Date StartTime U_cm/s V_cm/s W_cm/s Ustd_cm/s Vstd_cm/s Wstd_cm/s Uvar_(cm/s)^2 Vvar_(cm/s)^2 Wvar_(cm/s)^2 KE_(m/s)^2 TurbulentKE_(m/s)^2 HorizWindSpeed_cm/s FrictionSpeec_cm/s DragCoef SpeedOfSound_m/s SonicTemperature_C Pressure_mb 
11/23/2014  00:00:00        3.389       61.331       -5.980       13.807       20.194       12.682      190.619      407.781      160.828        0.228        0.038       61.424        6.987        0.013      334.346        4.259      867.539
11/23/2014  00:01:00       27.784       60.963       -8.855       16.918       19.386       12.769      286.231      375.819      163.056        0.270        0.041       66.996       10.200        0.023      334.287        4.162      867.571
11/23/2014  00:02:00        7.765       66.877      -14.380       12.142       14.762        8.964      147.432      217.927       80.355        0.259        0.022       67.327        8.347        0.015      334.272        4.136      867.601
11/23/2014  00:03:00       21.345       28.717       -1.574       14.420       12.424        7.652      207.940      154.361       58.550        0.085        0.021       35.781        2.754        0.006      334.253        4.103      867.625
11/23/2014  00:04:00       38.427       28.563       -4.543       11.088        9.176        8.507      122.934       84.196       72.365        0.130        0.014       47.880        5.805        0.015      334.195        4.008      867.621
11/23/2014  00:05:00        2.411       51.348       -9.097       13.258       27.511       11.074      175.776      756.842      122.629        0.189        0.053       51.404       13.141        0.065      334.197        4.009      867.623
11/23/2014  00:06:00        5.516       59.562      -10.453       10.570       10.810        6.703      111.731      116.849       44.930        0.198        0.014       59.817        3.971        0.004      334.217        4.043      867.644
11/23/2014  00:07:00        1.185       61.097        0.018       18.312       15.745       13.458      335.324      247.897      181.122        0.225        0.038       61.109       11.367        0.035      334.199        4.014      867.683
11/23/2014  00:08:00      -31.269       19.778       -0.521       23.953       22.649       11.911      573.758      512.985      141.881        0.130        0.061       36.999       12.686        0.118      334.512        4.533      867.702
11/23/2014  00:09:00      -10.977       19.721        1.181       15.320       24.809       13.558      234.697      615.500      183.820        0.077        0.052       22.570       14.278        0.400      334.395        4.339      867.698
11/23/2014  00:10:00      -10.712       48.899       -3.223       19.714       14.388       10.070      388.634      207.014      101.399        0.161        0.035       50.059        8.202        0.027      334.321        4.218      867.697
11/23/2014  00:11:00       48.558       43.539      -12.078       20.409       14.453       13.034      416.537      208.894      169.898        0.260        0.040       65.219       11.155        0.029      334.170        3.967      867.688
11/23/2014  00:12:00       71.609       44.300       -6.865       24.946       16.844       18.199      622.318      283.726      331.217        0.419        0.062       84.204       12.833        0.023      334.124        3.888      867.706
11/23/2014  00:13:00       56.390       38.428       -1.424       18.693       14.214       15.137      349.426      202.026      229.129        0.272        0.039       68.239       10.330        0.023      334.045        3.759      867.747
11/23/2014  00:14:00       28.358       23.875       -5.926       12.104       15.856       12.431      146.512      251.409      154.520        0.098        0.028       37.070        9.262        0.062      334.061        3.786      867.764
11/23/2014  00:15:00       28.137       19.282        1.927        9.713       12.071        8.581       94.345      145.709       73.631        0.074        0.016       34.110        6.967        0.042      334.023        3.724      867.768
11/23/2014  00:16:00       31.557       32.805       -2.987       10.521       14.345       11.445      110.692      205.786      130.993        0.126        0.022       45.520        9.819        0.047      334.044        3.756      867.787
11/23/2014  00:17:00       33.879       16.011       -1.668        7.960        6.402        6.660       63.364       40.979       44.357        0.078        0.007       37.472        5.029        0.018      334.033        3.742      867.787
11/23/2014  00:18:00       25.683       20.048       -0.799        8.495        6.746        7.774       72.172       45.511       60.434        0.062        0.009       32.581        4.884        0.022      333.999        3.685      867.786
11/23/2014  00:19:00       25.350       48.831       -7.842       12.725       15.690        7.745      161.933      246.161       59.981        0.178        0.023       55.019        8.750        0.025      334.051        3.765      867.779
11/23/2014  00:20:00       35.150       34.601       -1.335       10.917       15.395       11.700      119.173      237.020      136.885        0.146        0.025       49.323       10.567        0.046      334.088        3.828      867.774
11/23/2014  00:21:00       12.716       25.735       -2.826       13.680       10.348        6.899      187.136      107.087       47.598        0.059        0.017       28.705        5.003        0.030      334.074        3.808      867.807
11/23/2014  00:22:00        8.766       25.663       -6.032       16.399       17.778        8.217      268.918      316.064       67.517        0.071        0.033       27.119       11.299        0.174      334.072        3.802      867.834
11/23/2014  00:23:00      -13.033       17.834       -4.214        8.461       17.049        4.143       71.591      290.683       17.165        0.044        0.019       22.089        3.205        0.021      334.096        3.844      867.808
11/23/2014  00:24:00      -42.284        2.591       -5.814       17.146       23.409       10.162      294.000      547.987      103.272        0.139        0.047       42.363        3.584        0.007      334.198        4.013      867.774
11/23/2014  00:25:00      -41.210       36.406      -12.209       24.399       29.533       13.793      595.325      872.208      190.243        0.241        0.083       54.988        8.373        0.023      334.276        4.141      867.781
11/23/2014  00:26:00      -65.984       36.849      -12.092       22.598       26.971       16.793      510.686      727.453      282.015        0.369        0.076       75.576       17.557        0.054      334.262        4.119      867.810
11/23/2014  00:27:00      -88.298       70.396      -20.268       23.998       27.985       16.911      575.881      783.185      285.980        0.740        0.082      112.925       12.677        0.013      334.299        4.180      867.827
11/23/2014  00:28:00      -83.018      116.065      -24.151       23.992       33.963       19.957      575.627     1153.465      398.266        1.154        0.106      142.699       16.681        0.014      334.238        4.078      867.832
11/23/2014  00:29:00      -56.601       46.948       -4.214       25.510       26.725       16.972      650.757      714.223      288.062        0.354        0.083       73.538       10.653        0.021      334.381        4.319      867.821
11/23/2014  00:30:00      -42.309       44.414      -11.963       20.439       32.544       15.097      417.756     1059.137      227.924        0.280        0.085       61.341       12.776        0.043      334.470        4.465      867.781
11/23/2014  00:31:00      -54.877       70.126      -13.705       26.484       20.337       14.138      701.380      413.598      199.869        0.472        0.066       89.046        9.894        0.012      334.434        4.406      867.746
11/23/2014  00:32:00      -15.804       59.517       -0.872       31.579       23.592       19.683      997.237      556.565      387.439        0.287        0.097       61.580       17.822        0.084      334.330        4.232      867.720
11/23/2014  00:33:00        2.668       37.560        0.015       11.044       16.375       13.070      121.964      268.137      170.815        0.099        0.028       37.654       12.726        0.114      334.168        3.964      867.716
11/23/2014  00:34:00       -1.452       74.116      -14.923       14.918       13.418        6.915      222.560      180.035       47.815        0.308        0.023       74.130        4.519        0.004      334.198        4.012      867.756
11/23/2014  00:35:00      -10.860       67.600       -5.704       17.688       21.528       15.886      312.870      463.454      252.363        0.287        0.051       68.467       15.427        0.051      334.296        4.173      867.800
11/23/2014  00:36:00      -22.555       42.240       -3.407       25.594       20.941       10.416      655.031      438.508      108.490        0.175        0.060       47.884        8.188        0.029      334.326        4.225      867.794
11/23/2014  00:37:00      -45.201       38.305       -5.380       23.985       35.603       18.596      575.282     1267.587      345.796        0.286        0.109       59.249       19.293        0.106      334.389        4.330      867.812
11/23/2014  00:38:00      -15.745       85.353      -18.120       29.249       22.555       11.345      855.482      508.718      128.705        0.468        0.075       86.793        8.981        0.011      334.373        4.304      867.832
11/23/2014  00:39:00      -17.388      124.218      -23.357       23.177       24.384       14.873      537.185      594.587      221.202        0.882        0.068      125.429       11.756        0.009      334.235        4.074      867.838
11/23/2014  00:40:00      -15.531      126.808      -16.103       16.656       22.186       14.484      277.410      492.228      209.785        0.878        0.049      127.756       12.781        0.010      334.173        3.971      867.819
11/23/2014  00:41:00      -29.801      145.956      -21.564       14.896       15.407       11.421      221.903      237.369      130.443        1.162        0.029      148.967        8.559        0.003      334.227        4.060      867.802
11/23/2014  00:42:00      -15.303      117.977      -17.907       13.339       15.783        9.274      177.939      249.096       86.006        0.749        0.026      118.966        5.045        0.002      334.136        3.908      867.778
11/23/2014  00:43:00      -49.505      133.718      -22.464       35.517       48.774       17.739     1261.475     2378.942      314.683        1.239        0.198      142.588       17.214        0.015      334.383        4.319      867.772
11/23/2014  00:44:00      -57.348       23.588      -12.795       27.494       28.772       19.961      755.899      827.819      398.448        0.300        0.099       62.010       14.975        0.058      334.286        4.158      867.784
11/23/2014  00:45:00      -48.037       21.837       -1.234       32.118       22.089       18.682     1031.591      487.915      349.012        0.233        0.093       52.768       11.295        0.046      334.349        4.263      867.805
11/23/2014  00:46:00      -72.656        7.851       -5.530       39.551       26.815       14.290     1564.317      719.026      204.206        0.393        0.124       73.079       15.227        0.043      334.226        4.058      867.799
11/23/2014  00:47:00      -93.626       46.422      -16.088       31.985       37.470       27.323     1023.042     1404.005      746.558        0.718        0.159      104.503       20.093        0.037      334.405        4.356      867.773
11/23/2014  00:48:00     -108.489      118.704      -25.795       37.757       44.979       30.187     1425.570     2023.084      911.248        1.544        0.218      160.812       29.113        0.033      334.439        4.411      867.748
11/23/2014  00:49:00     -115.516      106.702      -30.426       47.681       50.184       26.444     2273.481     2518.409      699.303        1.557        0.275      157.255       26.702        0.029      334.412        4.368      867.734
11/23/2014  00:50:00      -85.689      145.891      -25.098       51.592       40.354       26.477     2661.782     1628.480      701.017        1.712        0.250      169.195       30.219        0.032      334.361        4.283      867.710
11/23/2014  00:51:00      -88.908       15.949      -13.429       45.389       41.215       24.217     2060.148     1698.679      586.452        0.634        0.217       90.327       24.054        0.071      334.177        3.977      867.693
11/23/2014  00:52:00      -41.885      104.660       -8.719       36.418       51.980       21.595     1326.272     2701.938      466.352        0.864        0.225      112.730       24.951        0.049      334.392        4.335      867.704
11/23/2014  00:53:00      -32.058      107.945      -16.055       34.486       32.726       21.520     1189.263     1071.001      463.112        0.783        0.136      112.605       18.102        0.026      334.395        4.340      867.726
11/23/2014  00:54:00      -24.457      139.387      -19.177       25.294       34.318       18.696      639.811     1177.715      349.555        1.128        0.108      141.516       19.627        0.019      334.335        4.240      867.754
11/23/2014  00:55:00       24.461       70.779      -14.087       29.890       36.852       16.279      893.390     1358.103      264.999        0.416        0.126       74.887       15.494        0.043      334.176        3.976      867.798
11/23/2014  00:56:00       25.998       92.582      -15.413       28.719       21.015       15.080      824.777      441.649      227.408        0.549        0.075       96.162        9.565        0.010      334.154        3.939      867.859
11/23/2014  00:57:00       -3.908      115.026      -19.978       23.165       29.615       15.832      536.597      877.059      250.668        0.765        0.083      115.092       15.267        0.018      334.172        3.969      867.915
11/23/2014  00:58:00      -28.418      114.951      -10.508       22.809       35.443       21.738      520.265     1256.191      472.542        0.819        0.112      118.411       18.210        0.024      334.328        4.229      867.942
11/23/2014  00:59:00      -52.123       21.503      -12.412       25.021       31.296       18.539      626.035      979.421      343.693        0.264        0.097       56.384       12.633        0.050      334.006        3.696      867.967
11/23/2014  01:00:00      -69.216        3.003       -3.303       48.432       25.043       18.129     2345.659      627.146      328.660        0.406        0.165       69.281       21.953        0.100      333.727        3.231      867.970
11/23/2014  01:01:00      -93.783       -7.642      -16.093       35.839       23.970       16.216     1284.403      574.557      262.960        0.562        0.106       94.094       16.013        0.029      333.629        3.069      867.965
11/23/2014  01:02:00      -93.826       16.919      -17.176       33.360       33.606       20.693     1112.910     1129.339      428.218        0.603        0.134       95.339       18.639        0.038      333.760        3.287      867.965
11/23/2014  01:03:00     -142.775       24.847      -21.398       43.740       30.202       19.189     1913.163      912.134      368.231        1.233        0.160      144.921       18.138        0.016      333.721        3.221      867.966
11/23/2014  01:04:00     -178.467       14.025      -25.522       37.461       33.734       22.496     1403.325     1137.956      506.051        1.787        0.152      179.018       15.724        0.008      333.447        2.767      867.963
11/23/2014  01:05:00     -149.345       10.624      -18.929       36.914       33.703       19.849     1362.624     1135.875      393.988        1.283        0.145      149.723       17.638        0.014      333.388        2.672      867.952
11/23/2014  01:06:00     -181.524       15.773      -25.563       34.649       29.190       22.124     1200.538      852.064      489.451        1.820        0.127      182.208       20.171        0.012      333.411        2.707      867.935
11/23/2014  01:07:00     -135.936        5.022      -14.861       36.014       30.756       20.180     1296.982      945.906      407.221        1.069        0.133      136.029       19.049        0.020      333.448        2.769      867.907
11/23/2014  01:08:00     -110.610       10.207      -17.522       26.276       31.376       23.192      690.424      984.460      537.888        0.743        0.111      111.080       16.428        0.022      333.537        2.917      867.906
11/23/2014  01:09:00      -67.146        9.004       -2.981       43.983       27.316       22.747     1934.485      746.177      517.434        0.390        0.160       67.747       11.945        0.031      333.615        3.046      867.918
11/23/2014  01:10:00      -57.348       41.309       -8.245       34.917       39.211       17.833     1219.202     1537.513      318.003        0.407        0.154       70.677       14.535        0.042      333.666        3.131      867.921
11/23/2014  01:11:00     -100.470      107.812      -22.572       31.181       32.707       21.947      972.237     1069.716      481.683        1.237        0.126      147.369       18.298        0.015      333.874        3.475      867.938
11/23/2014  01:12:00      -95.163      100.067      -19.334       31.825       51.895       24.262     1012.850     2693.052      588.622        1.187        0.215      138.092       25.365        0.034      333.878        3.481      867.967
11/23/2014  01:13:00     -108.901      112.790      -28.082       34.447       37.752       21.719     1186.562     1425.177      471.722        1.423        0.154      156.783       17.777        0.013      333.944        3.591      867.992
11/23/2014  01:14:00     -103.885       89.581      -19.945       37.955       52.215       28.404     1440.568     2726.413      806.762        1.209        0.249      137.174       22.971        0.028      333.911        3.535      868.003
11/23/2014  01:15:00      -68.216       -2.368       -3.333       51.760       32.524       22.949     2679.132     1057.783      526.672        0.447        0.213       68.257       27.105        0.158      333.631        3.072      868.013
11/23/2014  01:16:00     -102.635      -22.210      -21.831       24.020       29.575       19.617      576.952      874.674      384.834        0.667        0.092      105.011       13.264        0.016      333.501        2.857      868.016
11/23/2014  01:17:00     -137.238      -25.095      -19.042       28.787       25.415       18.781      828.697      645.907      352.722        1.083        0.091      139.513       14.832        0.011      333.194        2.348      867.981
11/23/2014  01:18:00      -85.218      -30.480      -10.565       23.811       31.516       16.928      566.941      993.278      286.540        0.507        0.092       90.505       11.341        0.016      333.203        2.365      867.927
11/23/2014  01:19:00      -98.221      -27.952      -21.344       23.828       23.215       15.377      567.753      538.925      236.444        0.611        0.067      102.121        6.348        0.004      333.231        2.410      867.897
11/23/2014  01:20:00     -112.481       -3.130      -21.767       17.750       16.923       17.784      315.056      286.399      316.288        0.703        0.046      112.524        8.081        0.005      333.150        2.277      867.878
11/23/2014  01:21:00      -63.585      -29.616       -8.153       25.419       21.838       19.455      646.106      476.910      378.497        0.324        0.075       70.144        7.596        0.012      333.157        2.288      867.869
11/23/2014  01:22:00      -41.047       37.599      -10.979       36.772       44.770       22.526     1352.184     2004.377      507.413        0.354        0.193       55.665       24.954        0.201      333.491        2.841      867.876
11/23/2014  01:23:00      -49.692        2.959      -11.061       26.711       18.850       13.294      713.500      355.319      176.742        0.192        0.062       49.780        6.528        0.017      333.410        2.706      867.919
11/23/2014  01:24:00      -84.194       47.212       -6.707       43.577       32.548       24.617     1898.939     1059.385      605.991        0.646        0.178       96.528       19.580        0.041      333.388        2.669      867.946
11/23/2014  01:25:00     -101.376       42.282      -10.768       41.510       29.285       23.439     1723.074      857.622      549.390        0.765        0.157      109.840       22.295        0.041      333.442        2.759      867.926
11/23/2014  01:26:00      -95.401        9.654      -10.372       47.714       37.422       20.230     2276.656     1400.401      409.266        0.669        0.204       95.889       17.417        0.033      333.379        2.654      867.915
11/23/2014  01:27:00      -97.402       50.094       -6.667       74.929       49.418       40.489     5614.347     2442.178     1639.382        1.087        0.485      109.529       19.990        0.033      333.381        2.657      867.906
11/23/2014  01:28:00     -111.750        3.111      -19.447       29.456       33.623       20.425      867.632     1130.484      417.176        0.765        0.121      111.793       15.552        0.019      333.364        2.631      867.903
11/23/2014  01:29:00      -90.506      -12.657      -27.331       48.193       47.980       31.448     2322.551     2302.041      988.949        0.735        0.281       91.386       20.081        0.048      333.448        2.768      867.901
11/23/2014  01:30:00     -154.535       30.567      -22.400       69.298       74.515       30.656     4802.207     5552.414      939.764        1.830        0.565      157.529       34.113        0.047      333.459        2.786      867.901
11/23/2014  01:31:00      -89.816      -10.402       -7.903       39.757       56.188       26.861     1580.653     3157.132      721.527        0.685        0.273       90.417       23.337        0.067      333.371        2.642      867.899
11/23/2014  01:32:00     -121.512      -21.701      -27.258       27.137       31.782       22.786      736.419     1010.071      519.217        0.912        0.113      123.435       14.643        0.014      333.388        2.670      867.906
11/23/2014  01:33:00      -94.076      -14.605      -14.366       55.814       57.552       27.926     3115.250     3312.206      779.878        0.824        0.360       95.203       24.530        0.066      333.456        2.781      867.926
11/23/2014  01:34:00      -79.387        2.337      -14.674       45.689       54.215       35.147     2087.451     2939.257     1235.305        0.639        0.313       79.421       24.778        0.097      333.528        2.901      867.955
11/23/2014  01:35:00      -83.700       24.135       -1.507       32.352       32.815       30.347     1046.632     1076.836      920.967        0.532        0.152       87.110       21.550        0.061      333.601        3.022      867.979
11/23/2014  01:36:00      -38.850      -22.066       10.756       62.658       56.609       29.758     3925.984     3204.623      885.552        0.506        0.401       44.679       33.109        0.549      333.468        2.803      867.996
11/23/2014  01:37:00     -105.805       33.577      -17.106       27.903       43.785       22.947      778.560     1917.162      526.545        0.792        0.161      111.005       17.315        0.024      333.552        2.941      868.022
11/23/2014  01:38:00     -156.982       38.352      -20.157       43.792       37.659       22.926     1917.772     1418.175      525.579        1.519        0.193      161.599       13.977        0.007      333.661        3.121      868.030
11/23/2014  01:39:00      -91.482       -6.019      -20.010       39.495       34.604       22.248     1559.856     1197.443      494.981        0.603        0.163       91.680       10.972        0.014      333.539        2.919      868.029
11/23/2014  01:40:00     -102.014        7.321      -31.988       45.662       53.473       30.376     2085.029     2859.410      922.727        0.867        0.293      102.276       24.869        0.059      333.619        3.052      868.034
11/23/2014  01:41:00     -118.847       62.825      -13.780       89.241       75.358       44.371     7963.993     5678.851     1968.799        1.693        0.781      134.431       40.739        0.092      333.758        3.280      868.031
11/23/2014  01:42:00     -117.011       54.274       -5.672       53.898       53.134       38.569     2904.964     2823.205     1487.592        1.194        0.361      128.986       36.157        0.079      333.743        3.259      868.049
11/23/2014  01:43:00     -134.175       71.931      -14.928       64.536       58.087       41.452     4164.891     3374.057     1718.304        1.633        0.463      152.240       35.957        0.056      333.846        3.428      868.073
11/23/2014  01:44:00     -178.404      124.061      -37.679       57.226       72.129       32.936     3274.810     5202.528     1084.767        2.910        0.478      217.299       33.771        0.024      333.817        3.376      868.089
11/23/2014  01:45:00     -139.540       79.696      -21.068       60.835       51.368       32.234     3700.928     2638.702     1039.037        1.682        0.369      160.695       25.223        0.025      333.799        3.350      868.115
11/23/2014  01:46:00     -129.751      109.862      -19.956       52.622       59.264       35.983     2769.114     3512.230     1294.748        1.844        0.379      170.015       31.998        0.035      333.841        3.420      868.141
11/23/2014  01:47:00     -126.521       58.303      -10.498       45.313       42.154       26.821     2053.235     1776.962      719.388        1.203        0.227      139.308       22.736        0.027      333.889        3.499      868.160
11/23/2014  01:48:00     -151.654       57.965      -25.434       42.128       65.518       33.188     1774.804     4292.616     1101.451        1.709        0.358      162.355       33.803        0.043      333.955        3.608      868.164
11/23/2014  01:49:00     -166.103       65.827      -23.417       66.755       45.036       30.428     4456.265     2028.268      925.859        1.994        0.371      178.671       26.758        0.022      333.878        3.478      868.162
11/23/2014  01:50:00     -220.695      101.162      -34.080       90.431       49.279       42.468     8177.762     2428.443     1803.500        3.625        0.620      242.776       42.631        0.031      334.013        3.701      868.169
11/23/2014  01:51:00     -155.828       64.916       -7.921       95.676       78.711       54.685     9153.991     6195.414     2990.453        2.345        0.917      168.809       50.796        0.091      333.970        3.633      868.181
11/23/2014  01:52:00     -154.813       91.380      -32.414       46.326       69.742       37.844     2146.108     4863.980     1432.137        2.090        0.422      179.771       30.822        0.029      334.015        3.707      868.186
11/23/2014  01:53:00     -122.777       63.309       -8.687       53.145       59.731       37.623     2824.377     3567.794     1415.456        1.348        0.390      138.138       25.097        0.033      333.992        3.670      868.213
11/23/2014  01:54:00     -117.275       74.676      -10.466       90.006       43.341       35.985     8101.141     1878.478     1294.884        1.535        0.564      139.032       30.031        0.047      334.008        3.696      868.233
11/23/2014  01:55:00      -91.107       53.154       -8.543       61.278       42.114       29.279     3754.933     1773.596      857.239        0.879        0.319      105.479       26.214        0.062      333.967        3.630      868.262
11/23/2014  01:56:00      -89.890      152.402      -23.381       69.012       48.898       36.938     4762.679     2391.060     1364.450        2.018        0.426      176.937       37.226        0.044      333.931        3.569      868.293
11/23/2014  01:57:00      -81.695      165.945      -16.752       54.543       64.655       39.319     2974.939     4180.209     1546.006        2.160        0.435      184.964       31.490        0.029      333.983        3.653      868.335
11/23/2014  01:58:00      -91.709      134.551      -19.967       52.667       47.521       37.993     2773.780     2258.239     1443.444        1.669        0.324      162.833       32.899        0.041      334.029        3.730      868.380
11/23/2014  01:59:00      -89.068      107.231      -20.868       61.649       58.281       37.050     3800.639     3396.698     1372.721        1.422        0.429      139.398       37.612        0.073      333.933        3.573      868.405
11/23/2014  02:00:00     -141.840      165.717      -36.647       60.839      108.963       42.555     3701.422    11872.891     1810.887        3.315        0.869      218.130       45.320        0.043      333.964        3.622      868.421
11/23/2014  02:01:00      -90.535      121.291       -1.226       74.074       88.360       46.265     5486.981     7807.553     2140.419        1.917        0.772      151.354       43.813        0.084      333.827        3.395      868.435
11/23/2014  02:02:00     -118.177      116.310      -22.190       54.506       62.523       36.336     2970.940     3909.163     1320.330        1.809        0.410      165.813       40.036        0.058      333.869        3.465      868.465
11/23/2014  02:03:00      -65.395      180.971       -1.789       53.065       98.241       49.177     2815.863     9651.359     2418.390        2.596        0.744      192.425       46.775        0.059      333.828        3.397      868.505
11/23/2014  02:04:00     -109.016       70.264      -14.828       69.268       52.193       32.996     4798.124     2724.132     1088.748        1.282        0.431      129.698       31.972        0.061      333.918        3.548      868.546
11/23/2014  02:05:00      -22.468       61.155       -1.643       57.031       50.354       29.679     3252.542     2535.533      880.819        0.546        0.333       65.152       35.815        0.302      333.828        3.399      868.582
11/23/2014  02:06:00        9.834      112.662        0.567       26.718       47.354       27.488      713.842     2242.377      755.614        0.825        0.186      113.091       27.704        0.060      333.730        3.236      868.620
11/23/2014  02:07:00       29.478       85.602       -1.991       67.300       36.109       21.882     4529.232     1303.849      478.812        0.725        0.316       90.535       15.936        0.031      333.695        3.178      868.659
11/23/2014  02:08:00      162.446      117.870       30.671       54.764       43.207       55.071     2999.046     1866.826     3032.805        2.456        0.395      200.703       28.249        0.020      333.456        2.782      868.686
11/23/2014  02:09:00       69.622        4.570       44.276       73.244       84.333       46.263     5364.650     7112.003     2140.269        1.072        0.731       69.771       49.133        0.496      333.331        2.575      868.705
11/23/2014  02:10:00       36.863       23.856       38.178       37.963       58.076       32.895     1441.192     3372.840     1082.101        0.464        0.295       43.909       37.375        0.725      333.207        2.370      868.731
11/23/2014  02:11:00       73.512        2.491       27.932       53.755       95.868       44.039     2889.592     9190.749     1939.452        1.010        0.701       73.554       51.192        0.484      333.070        2.144      868.745
11/23/2014  02:12:00       46.894       37.590       41.023       49.855       36.504       28.210     2485.483     1332.510      795.804        0.495        0.231       60.100       27.871        0.215      333.086        2.172      868.746
11/23/2014  02:13:00       86.228       73.219       64.659       72.200       34.944       32.229     5212.888     1221.048     1038.692        1.222        0.374      113.120       35.058        0.096      333.162        2.297      868.732
11/23/2014  02:14:00      103.132       83.737       65.785       53.410       33.664       42.250     2852.674     1133.294     1785.029        1.387        0.289      132.846       34.731        0.068      333.078        2.157      868.725
11/23/2014  02:15:00      108.473       66.652       53.800       55.986       47.706       25.861     3134.432     2275.825      668.800        1.259        0.304      127.314       18.886        0.022      333.105        2.203      868.741
11/23/2014  02:16:00       81.042       44.768       19.788       51.361       38.218       28.745     2637.947     1460.635      826.257        0.694        0.246       92.585       24.191        0.068      333.080        2.161      868.751
11/23/2014  02:17:00      153.795       91.778       44.581       81.524       36.660       38.899     6646.156     1343.974     1513.149        2.178        0.475      179.098       35.437        0.039      333.195        2.348      868.758
11/23/2014  02:18:00      121.611       28.519       32.618       50.419       40.021       46.282     2542.107     1601.682     2141.983        1.147        0.314      124.910       26.041        0.043      333.227        2.402      868.758
11/23/2014  02:19:00       81.059       75.070       59.390       44.324       33.853       36.304     1964.613     1146.017     1318.009        1.008        0.221      110.481       25.097        0.052      333.214        2.383      868.754
11/23/2014  02:20:00      100.715       78.613       51.591       39.448       23.458       32.864     1556.149      550.273     1080.066        1.109        0.159      127.764       18.858        0.022      333.216        2.386      868.752
11/23/2014  02:21:00       43.667       58.339       65.363       37.908       27.777       17.761     1436.999      771.562      315.445        0.605        0.126       72.871        8.559        0.014      333.189        2.340      868.758
11/23/2014  02:22:00       96.709       56.328       60.850       55.455       48.951       34.434     3075.272     2396.247     1185.672        1.144        0.333      111.917       29.025        0.067      333.280        2.491      868.757
11/23/2014  02:23:00       72.088       74.195       58.195       64.593       52.181       43.409     4172.278     2722.875     1884.367        1.143        0.439      103.448       33.228        0.103      333.257        2.451      868.772
11/23/2014  02:24:00      134.683       78.716       43.375       43.968       42.039       35.127     1933.190     1767.303     1233.896        1.557        0.247      155.999       27.966        0.032      333.201        2.359      868.812
11/23/2014  02:25:00      128.044       65.895       42.677       74.775       51.424       44.688     5591.254     2644.471     1997.001        1.639        0.512      144.005       33.844        0.055      333.283        2.495      868.832
11/23/2014  02:26:00      128.660       45.978       19.412       53.520       36.530       31.626     2864.422     1334.477     1000.180        1.212        0.260      136.629       22.999        0.028      333.238        2.421      868.855
11/23/2014  02:27:00      100.165       75.551       20.408       67.754       43.676       35.509     4590.603     1907.603     1260.866        1.196        0.388      125.463       29.154        0.054      333.205        2.366      868.870
11/23/2014  02:28:00      108.590       60.763       16.737       39.432       33.088       26.723     1554.896     1094.793      714.093        0.956        0.168      124.434        7.131        0.003      333.192        2.346      868.887
11/23/2014  02:29:00       34.776       30.837        4.827       28.580       28.646       28.886      816.802      820.576      834.426        0.233        0.124       46.479       22.512        0.235      333.062        2.130      868.891
11/23/2014  02:30:00       29.342       31.770        8.209       38.884       25.423       23.093     1511.971      646.347      533.307        0.231        0.135       43.246       19.478        0.203      333.126        2.237      868.883
11/23/2014  02:31:00       34.018       38.841        6.175       25.402       21.039       22.749      645.237      442.620      517.513        0.215        0.080       51.632       17.183        0.111      333.142        2.262      868.853
11/23/2014  02:32:00       13.745       85.767       -9.842       10.493       20.739       13.408      110.100      430.113      179.786        0.418        0.036       86.861        7.066        0.007      333.113        2.214      868.822
11/23/2014  02:33:00       62.533       55.751       -8.828       14.196       18.714       12.793      201.539      350.228      163.662        0.391        0.036       83.777       12.591        0.023      333.209        2.372      868.791
11/23/2014  02:34:00       47.191       54.001        0.877       26.690       23.630       19.077      712.356      558.362      363.925        0.339        0.082       71.715       12.738        0.032      333.226        2.401      868.753
11/23/2014  02:35:00       38.811       58.314       -0.571       29.993       39.706       20.675      899.586     1576.598      427.461        0.390        0.145       70.049       15.683        0.050      333.409        2.705      868.740
11/23/2014  02:36:00       26.903        7.081       -5.862       22.852       24.717       13.761      522.206      610.924      189.367        0.107        0.066       27.819       12.051        0.188      333.438        2.751      868.759
11/23/2014  02:37:00      -32.881       15.950       -1.072       17.233       15.782       12.702      296.982      249.078      161.345        0.102        0.035       36.545        8.144        0.050      333.231        2.410      868.773
11/23/2014  02:38:00     -112.708       12.930      -15.353       23.039       16.881        8.990      530.777      284.972       80.822        0.700        0.045      113.447        4.237        0.001      333.103        2.199      868.766
11/23/2014  02:39:00      -46.272       -9.593       -1.624       27.235       27.124       14.197      741.755      735.732      201.541        0.196        0.084       47.256       12.524        0.070      333.038        2.091      868.744
11/23/2014  02:40:00      -90.873       20.089       -8.432       33.473       20.665       15.428     1120.473      427.055      238.028        0.526        0.089       93.067       16.446        0.031      333.147        2.270      868.737
11/23/2014  02:41:00     -115.686       25.360       -8.858       17.411       17.093       14.424      303.140      292.154      208.042        0.745        0.040      118.433       10.483        0.008      333.235        2.416      868.731
11/23/2014  02:42:00      -94.287       28.710       -8.798       29.463       18.591       18.117      868.058      345.616      328.210        0.567        0.077       98.561       14.487        0.022      333.257        2.452      868.731
11/23/2014  02:43:00     -149.513       13.555      -18.374       52.087       28.729       21.015     2713.008      825.381      441.626        1.343        0.199      150.126       19.698        0.017      333.064        2.134      868.723
11/23/2014  02:44:00     -200.055      -57.614      -24.403       40.091       43.073       29.123     1607.305     1855.245      848.131        2.412        0.216      208.185       24.555        0.014      332.675        1.490      868.720
11/23/2014  02:45:00     -171.377      -99.959        4.505       61.997       57.495       40.026     3843.682     3305.681     1602.108        2.407        0.438      198.398       35.512        0.032      332.815        1.721      868.737
11/23/2014  02:46:00     -142.615      -57.457        5.874       69.043       46.753       35.094     4766.998     2185.885     1231.591        1.593        0.409      153.754       34.395        0.050      332.787        1.676      868.762
11/23/2014  02:47:00     -170.665      -59.002       -2.253       72.622       53.420       35.731     5273.907     2853.726     1276.739        2.101        0.470      180.576       32.111        0.032      332.627        1.410      868.775
11/23/2014  02:48:00     -163.108      -54.826      -10.333       73.615       58.674       32.092     5419.167     3442.681     1029.865        1.980        0.495      172.076       23.651        0.019      332.571        1.319      868.774
11/23/2014  02:49:00     -185.731      -44.927      -13.610       45.948       52.667       26.519     2111.195     2773.819      703.244        2.114        0.279      191.087       16.084        0.007      332.700        1.532      868.759
11/23/2014  02:50:00     -106.058      -87.856        1.997       94.373       70.253       46.868     8906.333     4935.554     2196.614        1.750        0.802      137.720       52.242        0.144      332.718        1.562      868.748
11/23/2014  02:51:00     -165.065      -96.915       -3.511       61.666       62.166       34.295     3802.757     3864.640     1176.162        2.275        0.442      191.413       29.782        0.024      332.711        1.551      868.724
11/23/2014  02:52:00      -60.055      -55.757        6.895       86.604       51.705       41.506     7500.263     2673.431     1722.788        0.933        0.595       81.947       45.397        0.307      332.732        1.583      868.716
11/23/2014  02:53:00      -95.188      -99.566       -0.267       85.681       61.474       42.122     7341.271     3779.083     1774.244        1.593        0.645      137.747       50.443        0.134      332.683        1.504      868.718
11/23/2014  02:54:00     -130.855      -81.072      -10.639       62.560       42.783       34.157     3913.717     1830.426     1166.687        1.536        0.346      153.934       32.032        0.043      332.644        1.439      868.738
11/23/2014  02:55:00     -119.758      -88.379       11.665       95.068       63.250       46.139     9037.849     4000.597     2128.764        1.873        0.758      148.838       50.100        0.113      332.648        1.445      868.758
11/23/2014  02:56:00     -148.751     -138.233       -3.817       82.718       72.832       41.733     6842.234     5304.442     1741.620        2.757        0.694      203.064       48.121        0.056      332.577        1.325      868.775
11/23/2014  02:57:00     -153.158     -121.645        2.535       53.364       49.239       37.704     2847.711     2424.496     1421.610        2.248        0.335      195.588       31.500        0.026      332.596        1.358      868.807
11/23/2014  02:58:00     -154.348      -54.947       -7.583       51.887       49.605       27.944     2692.220     2460.647      780.893        1.642        0.297      163.837       26.699        0.027      332.500        1.201      868.854
11/23/2014  02:59:00     -120.908      -27.658      -11.107       43.542       34.883       21.156     1895.920     1216.816      447.592        0.953        0.178      124.031       15.085        0.015      332.547        1.280      868.888
11/23/2014  03:00:00      -80.568      -34.703       -2.444       53.902       28.959       21.199     2905.471      838.626      449.413        0.595        0.210       87.724       22.688        0.067      332.579        1.333      868.895
11/23/2014  03:01:00      -33.183        4.887        2.798       15.898       15.978       13.132      252.735      255.309      172.437        0.091        0.034       33.541        9.223        0.076      332.582        1.338      868.875
11/23/2014  03:02:00      -29.020      -10.965        2.464       11.290       12.961       10.441      127.473      167.976      109.014        0.069        0.020       31.022        9.293        0.090      332.592        1.355      868.858
11/23/2014  03:03:00      -25.135       -6.236        6.325       17.038       16.167       14.793      290.297      261.375      218.842        0.074        0.039       25.897       13.806        0.284      332.651        1.453      868.880
11/23/2014  03:04:00      -49.144       -6.730        3.066       29.104       15.557       13.099      847.053      242.019      171.571        0.186        0.063       49.603       15.284        0.095      332.597        1.363      868.918
11/23/2014  03:05:00      -64.529      -37.572        3.502       43.978       29.231       20.023     1934.104      854.467      400.924        0.439        0.159       74.670       18.431        0.061      332.603        1.374      868.958
11/23/2014  03:06:00      -37.716     -147.217        0.426       30.642       27.650       18.154      938.940      764.528      329.575        1.256        0.102      151.972       14.268        0.009      332.691        1.517      868.994
11/23/2014  03:07:00      -81.868      -51.519        9.089       38.920       90.157       24.234     1514.729     8128.352      587.274        0.983        0.512       96.730       34.027        0.124      332.677        1.495      868.982
11/23/2014  03:08:00      -46.747       12.177        5.384       40.135       20.140       19.496     1610.850      405.631      380.099        0.238        0.120       48.307       15.338        0.101      332.747        1.612      868.989
11/23/2014  03:09:00     -125.989      -19.148       -1.490       66.107       52.365       32.496     4370.184     2742.116     1055.976        1.220        0.408      127.435       35.562        0.078      332.633        1.422      868.994
11/23/2014  03:10:00      -55.820      -39.497        2.798       60.440       34.459       26.453     3653.006     1187.418      699.763        0.511        0.277       68.380       35.270        0.266      332.608        1.380      868.986
11/23/2014  03:11:00      -17.632     -141.882       -7.522       42.247       77.538       28.307     1784.847     6012.193      801.292        1.455        0.430      142.973       20.535        0.021      332.865        1.805      868.958
11/23/2014  03:12:00      -73.798      -49.678        2.962       60.921       40.615       26.542     3711.322     1649.582      704.493        0.699        0.303       88.961       28.967        0.106      332.912        1.883      868.925
11/23/2014  03:13:00      -90.374      -31.895       -5.657       55.164       37.969       24.649     3043.099     1441.623      607.594        0.715        0.255       95.837       21.836        0.052      332.838        1.761      868.910
11/23/2014  03:14:00      -87.266      -45.808       -1.700       30.765       26.746       19.103      946.494      715.322      364.927        0.587        0.101       98.558        9.320        0.009      332.809        1.716      868.897
11/23/2014  03:15:00      -22.844      -79.211       -1.449       45.453       28.207       20.297     2065.969      795.636      411.974        0.504        0.164       82.439       13.321        0.026      333.073        2.150      868.908
11/23/2014  03:16:00      -22.806      -36.174       -3.649       20.649       25.433       11.805      426.389      646.845      139.347        0.153        0.061       42.763        8.142        0.036      333.157        2.288      868.930
11/23/2014  03:17:00      -33.824       16.187       -4.977       31.970       39.076       16.568     1022.096     1526.959      274.492        0.213        0.141       37.498       21.340        0.324      332.949        1.944      868.957
11/23/2014  03:18:00      -55.739       24.861       -4.128       20.546       13.648       14.182      422.153      186.266      201.120        0.228        0.040       61.032       10.948        0.032      332.897        1.858      868.958
11/23/2014  03:19:00      -25.777      -15.893       -6.798       20.777       17.102        9.698      431.688      292.474       94.053        0.089        0.041       30.282        8.259        0.074      332.929        1.911      868.948
11/23/2014  03:20:00      -10.764      -17.269        1.982       12.003       12.537        7.909      144.075      157.175       62.554        0.039        0.018       20.349        6.431        0.100      332.875        1.823      868.950
11/23/2014  03:21:00      -26.548      -45.466        9.577       45.634       31.411       17.449     2082.446      986.655      304.452        0.312        0.169       52.649       18.533        0.124      333.005        2.038      868.972
11/23/2014  03:22:00       64.567       28.052       12.687       18.032       18.720       35.776      325.147      350.427     1279.905        0.354        0.098       70.397       18.568        0.070      332.551        1.285      869.007
11/23/2014  03:23:00       58.425       33.099        3.540       36.568       24.292       16.362     1337.196      590.114      267.704        0.336        0.110       67.149       14.651        0.048      332.578        1.331      869.069
11/23/2014  03:24:00       23.308       34.043       -8.333       18.394       15.424        9.364      338.322      237.906       87.681        0.122        0.033       41.258        8.354        0.041      332.449        1.118      869.129
11/23/2014  03:25:00      102.074       44.178       19.156       29.748       29.604       29.688      884.973      876.409      881.358        0.769        0.132      111.224       18.494        0.028      332.547        1.282      869.143
11/23/2014  03:26:00      136.475       66.781       29.837       59.237       39.862       41.363     3509.074     1589.019     1710.880        1.539        0.340      151.938       36.206        0.057      332.492        1.190      869.162
11/23/2014  03:27:00      115.936       55.909       -5.908       33.978       32.358       28.168     1154.478     1047.054      793.421        0.980        0.150      128.713       16.809        0.017      332.330        0.923      869.204
11/23/2014  03:28:00       85.956       41.480       12.456       42.224       27.958       23.838     1782.847      781.650      568.259        0.620        0.157       95.441       19.209        0.041      332.304        0.880      869.233
11/23/2014  03:29:00       46.659       44.206        2.093       34.472       26.226       24.343     1188.316      687.786      592.558        0.330        0.123       64.275       13.521        0.044      332.302        0.877      869.256
11/23/2014  03:30:00       28.649       37.456       -1.971       26.381       29.049       19.483      695.944      843.840      379.574        0.207        0.096       47.156       15.554        0.109      332.289        0.856      869.254
11/23/2014  03:31:00        5.165       74.683      -11.579       25.549       31.710       19.525      652.758     1005.506      381.237        0.389        0.102       74.861       20.774        0.077      332.422        1.073      869.251
11/23/2014  03:32:00       -0.317       27.336      -12.889        8.855       12.565        6.087       78.416      157.882       37.053        0.059        0.014       27.338        5.633        0.042      332.485        1.177      869.225
11/23/2014  03:33:00      -15.986       -1.000       -1.106       10.814       10.257        5.083      116.932      105.204       25.835        0.025        0.012       16.017        3.161        0.039      332.391        1.023      869.198
11/23/2014  03:34:00       60.036       39.192        9.538       23.795       13.301       14.136      566.212      176.925      199.840        0.309        0.047       71.696        7.193        0.010      332.522        1.239      869.180
11/23/2014  03:35:00       64.943       43.400        9.407       19.595       15.452       15.007      383.967      238.775      225.208        0.352        0.042       78.109        7.672        0.010      332.562        1.304      869.180
11/23/2014  03:36:00       27.178       26.681        3.759       17.535       13.680        8.015      307.484      187.133       64.235        0.101        0.028       38.085        4.013        0.011      332.592        1.355      869.189
11/23/2014  03:37:00       23.710       35.453       -4.707       18.347       12.562        6.763      336.599      157.800       45.742        0.119        0.027       42.651        7.945        0.035      332.581        1.337      869.183
11/23/2014  03:38:00       35.314       39.302       -4.796       19.013       16.954       12.300      361.503      287.430      151.282        0.181        0.040       52.837       13.726        0.067      332.580        1.337      869.183
11/23/2014  03:39:00        8.659       53.069      -10.254       10.839       10.437        8.928      117.480      108.937       79.718        0.165        0.015       53.771        6.575        0.015      332.641        1.435      869.208
11/23/2014  03:40:00       28.572       20.723       -5.962        5.679        8.402        5.343       32.249       70.594       28.546        0.071        0.007       35.296        5.064        0.021      332.887        1.844      869.214
11/23/2014  03:41:00       28.754       32.178       -1.506        8.234       12.478        4.707       67.803      155.695       22.153        0.106        0.012       43.153        3.629        0.007      332.858        1.794      869.224
11/23/2014  03:42:00       17.269       81.987      -16.472        9.154       23.868        8.279       83.798      569.671       68.540        0.401        0.036       83.786       11.208        0.018      332.684        1.507      869.241
11/23/2014  03:43:00        4.069       90.063      -16.409        8.394       15.062        6.873       70.458      226.851       47.245        0.437        0.017       90.155        6.891        0.006      332.790        1.682      869.253
11/23/2014  03:44:00       46.662       41.955       -6.531       19.008       19.101        5.677      361.312      364.844       32.229        0.237        0.038       62.750        8.606        0.019      332.893        1.854      869.243
11/23/2014  03:45:00       31.082        6.731        6.028       23.667       10.863        9.883      560.133      118.014       97.669        0.091        0.039       31.803       10.832        0.116      332.821        1.733      869.233
11/23/2014  03:46:00       40.325       11.523        7.565       15.008       15.922       12.506      225.227      253.525      156.412        0.123        0.032       41.939       12.054        0.083      332.843        1.770      869.240
11/23/2014  03:47:00       17.227       34.060        1.525       15.144        9.439       11.244      229.351       89.089      126.425        0.095        0.022       38.168        9.420        0.061      332.849        1.782      869.272
11/23/2014  03:48:00        7.859       58.444      -11.643        9.871       14.225        7.251       97.446      202.358       52.570        0.198        0.018       58.970        6.360        0.012      332.902        1.866      869.284
11/23/2014  03:49:00       24.298       28.269       -6.511        6.986       13.820        7.287       48.807      190.982       53.107        0.086        0.015       37.276        7.276        0.038      332.895        1.858      869.282
11/23/2014  03:50:00       41.686       23.387        1.727        9.173       10.071        6.083       84.143      101.417       37.005        0.126        0.011       47.798        1.618        0.001      332.865        1.804      869.271
11/23/2014  03:51:00       47.663       25.630        3.749       10.882        9.426        6.220      118.410       88.853       38.695        0.159        0.012       54.117        4.540        0.007      332.804        1.705      869.260
11/23/2014  03:52:00       -2.428        2.592       25.672       14.122       27.368       13.061      199.441      748.989      170.589        0.090        0.056        3.552        9.797        7.608      332.759        1.631      869.235
11/23/2014  03:53:00       -5.496        3.827       22.926        6.208       17.941       12.787       38.545      321.883      163.499        0.055        0.026        6.697        7.393        1.219      332.748        1.612      869.229
11/23/2014  03:54:00        1.030      -15.788       10.425       11.462       16.275        9.364      131.369      264.867       87.688        0.042        0.024       15.821        8.630        0.297      332.802        1.702      869.240
11/23/2014  03:55:00      -13.050      -22.842        3.068       19.675       10.866       10.299      387.109      118.062      106.079        0.066        0.031       26.307       12.892        0.240      332.875        1.823      869.254
11/23/2014  03:56:00       -2.730       -0.534        4.230       22.265       19.452       13.313      495.729      378.392      177.229        0.054        0.053        2.782        4.455        2.564      332.713        1.557      869.265
11/23/2014  03:57:00       -4.205       30.890       43.578       10.224       18.809       14.897      104.522      353.767      221.920        0.178        0.034       31.175        9.379        0.091      332.582        1.338      869.254
11/23/2014  03:58:00       26.737      -17.539       24.915       35.854       46.386       30.005     1285.517     2151.634      900.295        0.299        0.217       31.976       34.320        1.152      332.524        1.241      869.255
11/23/2014  03:59:00       24.965      -42.786       -2.278       55.512       43.696       38.235     3081.611     1909.352     1461.896        0.445        0.323       49.537       34.237        0.478      332.555        1.293      869.267
11/23/2014  04:00:00       -2.942      -49.357      -11.601       28.733       32.301       19.277      825.587     1043.381      371.619        0.241        0.112       49.444       18.856        0.145      332.642        1.438      869.280
11/23/2014  04:01:00        5.810      -70.870      -12.007       23.785       30.221       25.580      565.711      913.321      654.357        0.367        0.107       71.108       16.973        0.057      332.635        1.426      869.282
11/23/2014  04:02:00        4.871      -68.024       -3.569       24.393       40.089       26.177      595.003     1607.113      685.259        0.377        0.144       68.198       15.748        0.053      332.663        1.473      869.290
11/23/2014  04:03:00       -9.313      -72.407       -8.917       23.718       33.148       27.640      562.565     1098.763      763.965        0.392        0.121       73.003       13.016        0.032      332.664        1.472      869.322
11/23/2014  04:04:00      -14.907      -36.539        7.060       23.286       23.985       20.653      542.245      575.269      426.562        0.158        0.077       39.463       20.343        0.266      332.591        1.353      869.361
11/23/2014  04:05:00       -6.491      -15.368        9.766       15.531       16.126       13.125      241.207      260.043      172.253        0.052        0.034       16.683       10.204        0.374      332.495        1.195      869.387
11/23/2014  04:06:00      -22.029        2.182        2.063       30.139       15.242       21.196      908.379      232.311      449.261        0.104        0.079       22.137       11.791        0.284      332.464        1.143      869.401
11/23/2014  04:07:00        3.212      -12.274       -3.201       19.756       18.903       15.138      390.292      357.325      229.160        0.057        0.049       12.688        9.738        0.589      332.371        0.988      869.394
11/23/2014  04:08:00      -36.054      -41.942        8.812       30.937       28.839       22.874      957.094      831.695      523.234        0.272        0.116       55.308       14.452        0.068      332.294        0.862      869.383
11/23/2014  04:09:00      -12.415      -44.527        0.565       41.337       32.092       28.101     1708.731     1029.900      789.672        0.283        0.176       46.226       25.001        0.293      332.348        0.952      869.352
11/23/2014  04:10:00     -105.380      -74.655        2.170       66.012       54.338       37.421     4357.576     2952.578     1400.316        1.269        0.436      129.144       36.828        0.081      332.152        0.629      869.323
11/23/2014  04:11:00     -121.134      -83.335       -3.233       50.728       56.780       37.425     2573.294     3223.981     1400.644        1.441        0.360      147.031       27.106        0.034      332.097        0.539      869.335
11/23/2014  04:12:00     -126.516      -96.440       -8.825       42.389       49.650       25.476     1796.841     2465.131      649.024        1.515        0.246      159.082       22.696        0.020      332.017        0.405      869.357
11/23/2014  04:13:00      -91.621     -117.117        3.752       55.607       34.405       34.453     3092.191     1183.737     1187.033        1.379        0.273      148.697       20.808        0.020      331.911        0.231      869.367
11/23/2014  04:14:00     -101.738     -108.309       -0.730       51.987       48.269       34.511     2702.598     2329.853     1191.035        1.415        0.311      148.598       34.515        0.054      331.916        0.239      869.379
11/23/2014  04:15:00     -133.964      -83.060       -5.726       61.619       53.208       35.299     3796.871     2831.120     1246.045        1.637        0.394      157.624       34.815        0.049      331.900        0.213      869.422
11/23/2014  04:16:00     -169.502     -112.083       -7.658       36.180       39.870       25.880     1308.982     1589.612      669.786        2.246        0.178      203.208       20.757        0.010      331.859        0.145      869.499
11/23/2014  04:17:00     -137.457     -115.177      -16.094       45.121       59.781       26.098     2035.928     3573.718      681.082        1.935        0.315      179.332       27.608        0.024      331.831        0.099      869.562
11/23/2014  04:18:00     -106.220      -66.922       -4.101       56.310       35.679       28.999     3170.808     1272.986      840.943        1.053        0.264      125.544       26.884        0.046      331.836        0.107      869.581
11/23/2014  04:19:00      -93.452      -79.058        1.910       66.811       40.877       37.103     4463.751     1670.960     1376.667        1.125        0.376      122.407       40.195        0.108      331.753       -0.029      869.585
11/23/2014  04:20:00     -122.498     -112.305       -5.271       46.880       46.617       28.363     2197.736     2173.174      804.446        1.641        0.259      166.187       24.090        0.021      331.658       -0.185      869.571
11/23/2014  04:21:00      -89.297      -74.199       -4.131       44.805       44.891       27.293     2007.531     2015.176      744.916        0.913        0.238      116.101       24.428        0.044      331.729       -0.067      869.565
11/23/2014  04:22:00     -105.794      -77.407       -5.461       49.276       41.030       27.142     2428.110     1683.465      736.664        1.103        0.242      131.089       30.921        0.056      331.654       -0.191      869.572
11/23/2014  04:23:00     -103.322      -87.271        1.377       49.563       45.090       26.032     2456.507     2033.077      677.657        1.173        0.258      135.247       27.689        0.042      331.656       -0.187      869.586
11/23/2014  04:24:00      -78.736      -51.753       11.152       55.129       38.576       28.513     3039.209     1488.131      812.985        0.717        0.267       94.221       28.687        0.093      331.684       -0.141      869.600
11/23/2014  04:25:00      -72.626      -52.446        5.050       51.964       31.041       24.498     2700.222      963.557      600.143        0.616        0.213       89.583       26.046        0.085      331.672       -0.161      869.633
11/23/2014  04:26:00     -119.140      -33.738        2.922       44.228       35.480       24.982     1956.098     1258.850      624.081        0.959        0.192      123.825       24.387        0.039      331.636       -0.221      869.666
11/23/2014  04:27:00      -73.101      -33.748       -3.233       51.193       35.186       24.395     2620.728     1238.059      595.095        0.547        0.223       80.515       24.759        0.095      331.696       -0.122      869.704
11/23/2014  04:28:00      -71.807       -0.070        3.845       44.110       29.274       22.749     1945.651      856.945      517.524        0.424        0.166       71.807       23.530        0.107      331.581       -0.311      869.721
11/23/2014  04:29:00     -117.658        4.530      -10.295       20.028       24.735       15.889      401.122      611.801      252.456        0.762        0.063      117.746        9.896        0.007      331.453       -0.523      869.702
11/23/2014  04:30:00     -103.958      -33.209       -4.736       28.918       37.963       19.498      836.241     1441.210      380.162        0.729        0.133      109.134       14.610        0.018      331.487       -0.467      869.697
11/23/2014  04:31:00     -128.740      -66.514      -18.631       21.501       31.991       17.749      462.312     1023.406      315.036        1.157        0.090      144.907       14.395        0.010      331.470       -0.496      869.727
11/23/2014  04:32:00     -109.071      -39.772      -13.625       26.942       22.824       17.539      725.854      520.942      307.629        0.761        0.078      116.096       12.346        0.011      331.529       -0.399      869.769
11/23/2014  04:33:00      -96.068      -35.533      -18.718       21.432       17.700       15.763      459.322      313.286      248.473        0.593        0.051      102.428       11.955        0.014      331.528       -0.400      869.789
11/23/2014  04:34:00      -49.789      -42.400       -8.069       21.375       15.526       14.863      456.884      241.062      220.903        0.263        0.046       65.397        3.570        0.003      331.525       -0.404      869.795
11/23/2014  04:35:00      -74.916      -15.463       -2.982       33.342       24.774       14.955     1111.716      613.729      223.641        0.390        0.097       76.495       15.592        0.042      331.539       -0.380      869.808
11/23/2014  04:36:00     -121.315       -9.844      -15.998       17.122       15.788       10.040      293.167      249.261      100.793        0.786        0.032      121.713        8.582        0.005      331.514       -0.423      869.815
11/23/2014  04:37:00      -85.907      -58.736       -4.232       25.143       22.880       12.816      632.182      523.506      164.261        0.608        0.066      104.067        8.925        0.007      331.623       -0.243      869.827
11/23/2014  04:38:00     -114.409      -48.365      -12.216       23.424       18.456       13.832      548.661      340.629      191.321        0.833        0.054      124.212        7.718        0.004      331.660       -0.181      869.839
11/23/2014  04:39:00     -104.136      -47.900        2.284       35.735       32.247       21.518     1276.973     1039.843      463.032        0.796        0.139      114.625       18.463        0.026      331.662       -0.178      869.833
11/23/2014  04:40:00     -107.446      -54.010        0.416       41.036       32.811       23.555     1683.966     1076.545      554.816        0.889        0.166      120.257       26.106        0.047      331.727       -0.070      869.816
11/23/2014  04:41:00      -42.843      -52.295        0.882       41.468       26.001       18.728     1719.594      676.060      350.747        0.366        0.137       67.604       20.532        0.092      331.811        0.067      869.806
11/23/2014  04:42:00      -65.548      -65.259        2.205       55.400       32.916       22.270     3069.181     1083.438      495.931        0.660        0.232       92.495       26.795        0.084      331.885        0.187      869.805
11/23/2014  04:43:00      -85.932      -72.508       -2.241       35.703       26.314       23.493     1274.724      692.443      551.923        0.758        0.126      112.435       21.808        0.038      331.812        0.070      869.813
11/23/2014  04:44:00      -74.585      -93.869        0.197       27.652       29.303       19.323      764.620      858.676      373.386        0.819        0.100      119.893       12.791        0.011      331.845        0.124      869.810
11/23/2014  04:45:00     -110.903      -94.009       -7.246       37.701       37.657       24.168     1421.336     1418.021      584.098        1.231        0.171      145.386       21.106        0.021      331.818        0.077      869.806
11/23/2014  04:46:00      -52.856      -82.430      -18.086       49.362       26.157       22.091     2436.592      684.204      488.033        0.676        0.180       97.920       16.346        0.028      331.832        0.101      869.816
11/23/2014  04:47:00      -39.306      -44.566       -3.828       56.143       34.144       27.207     3152.044     1165.793      740.243        0.430        0.253       59.423       17.595        0.088      331.757       -0.022      869.836
11/23/2014  04:48:00      -92.695      -79.474        1.804       71.692       52.014       32.748     5139.703     2705.411     1072.463        1.191        0.446      122.100       31.305        0.066      331.727       -0.072      869.842
11/23/2014  04:49:00      -69.909      -47.202        4.244       52.122       40.312       30.806     2716.703     1625.029      948.988        0.621        0.265       84.352       24.764        0.086      331.669       -0.166      869.844
11/23/2014  04:50:00      -60.960      -44.418        0.151       37.551       40.307       23.131     1410.112     1624.675      535.052        0.463        0.178       75.426       17.986        0.057      331.753       -0.030      869.834
11/23/2014  04:51:00      -27.711      -24.377        7.720       39.639       15.105       21.296     1571.227      228.161      453.508        0.184        0.113       36.907       25.631        0.482      331.854        0.138      869.830
11/23/2014  04:52:00      -62.670       -8.594       -6.588       25.335       22.979       14.408      641.885      528.033      207.588        0.271        0.069       63.257       14.002        0.049      331.819        0.080      869.835
11/23/2014  04:53:00      -69.899       43.621       -3.116       32.823       34.566       24.464     1077.366     1194.793      598.497        0.483        0.144       82.394       23.331        0.080      331.758       -0.021      869.836
11/23/2014  04:54:00      -81.651       57.300       -7.462       26.230       24.685       19.885      688.010      609.367      395.427        0.585        0.085       99.750       12.177        0.015      331.889        0.195      869.809
11/23/2014  04:55:00      -58.045       64.977       -8.010       22.919       27.621       19.074      525.282      762.941      363.803        0.465        0.083       87.128       11.163        0.016      331.868        0.159      869.778
11/23/2014  04:56:00      -37.155       21.718        4.182       29.151       23.674       15.203      849.801      560.457      231.119        0.176        0.082       43.037       16.206        0.142      331.813        0.069      869.760
11/23/2014  04:57:00      -72.731      -24.487       -6.326       26.324       23.193       15.921      692.943      537.929      253.472        0.371        0.074       76.742       13.124        0.029      331.720       -0.082      869.756
11/23/2014  04:58:00      -39.692      -25.083       -3.696       27.794       20.578       14.297      772.490      423.444      204.398        0.181        0.070       46.953       12.361        0.069      331.672       -0.162      869.755
11/23/2014  04:59:00      -36.425      -28.087        7.025       32.049       21.717       15.368     1027.121      471.624      236.168        0.195        0.087       45.997       18.723        0.166      331.629       -0.231      869.734
11/23/2014  05:00:00      -55.021      -33.713        9.612       42.212       33.542       19.097     1781.819     1125.080      364.679        0.376        0.164       64.528       19.917        0.095      331.679       -0.151      869.716
11/23/2014  05:01:00      -55.424      -31.996        3.372       33.927       28.396       16.127     1151.054      806.311      260.086        0.316        0.111       63.996       14.567        0.052      331.669       -0.166      869.690
11/23/2014  05:02:00      -68.165      -32.011        1.720       27.378       22.170       16.270      749.535      491.513      264.700        0.359        0.075       75.308       12.209        0.026      331.654       -0.191      869.677
11/23/2014  05:03:00      -79.467      -15.700       -3.459       35.056       20.981       17.239     1228.910      440.203      297.181        0.427        0.098       81.003       19.023        0.055      331.629       -0.234      869.678
11/23/2014  05:04:00     -112.416      -18.616       -9.288       21.997       19.602        9.741      483.884      384.231       94.882        0.702        0.048      113.947        5.726        0.003      331.637       -0.219      869.693
11/23/2014  05:05:00      -70.511      -31.050       -3.423       29.046       14.780       12.389      843.679      218.449      153.478        0.358        0.061       77.045       13.638        0.031      331.654       -0.190      869.708
11/23/2014  05:06:00      -41.713      -28.214        2.905       24.258       19.410       11.348      588.467      376.760      128.770        0.182        0.055       50.358       11.276        0.050      331.726       -0.072      869.720
11/23/2014  05:07:00       -8.732       -9.867       -2.406       12.818       10.353        9.885      164.297      107.193       97.715        0.027        0.018       13.176        8.689        0.435      331.704       -0.110      869.737
11/23/2014  05:08:00       -9.339        8.153        4.818       12.544        5.222        7.391      157.349       27.273       54.624        0.021        0.012       12.397        7.769        0.393      331.645       -0.205      869.745
11/23/2014  05:09:00      -16.254        1.253       -0.854       19.609       10.487        7.640      384.506      109.987       58.366        0.041        0.028       16.302        4.028        0.061      331.675       -0.156      869.783
11/23/2014  05:10:00      -61.180      -19.477       -6.578       22.332       28.983       12.844      498.710      840.038      164.969        0.283        0.075       64.206        9.684        0.023      331.644       -0.207      869.794
11/23/2014  05:11:00      -79.844      -51.850       -3.773       16.057       20.238       17.244      257.821      409.581      297.349        0.502        0.048       95.202        9.463        0.010      331.656       -0.187      869.780
11/23/2014  05:12:00      -59.956      -49.432       -3.301       24.484       20.158       17.766      599.464      406.327      315.647        0.369        0.066       77.707        9.843        0.016      331.713       -0.094      869.748
11/23/2014  05:13:00       -8.794      -14.182        5.318       33.224       17.556       18.403     1103.863      308.205      338.677        0.103        0.088       16.688        8.887        0.284      331.694       -0.125      869.727
11/23/2014  05:14:00      -42.870      -50.657       -8.098       18.542       26.421       13.819      343.789      698.044      190.969        0.285        0.062       66.362        7.741        0.014      331.764       -0.011      869.715
11/23/2014  05:15:00       -0.979      -23.645        8.994       28.810       42.017       25.354      830.027     1765.440      642.846        0.194        0.162       23.665       24.757        1.094      332.031        0.430      869.703
11/23/2014  05:16:00      -36.091      -38.939       -9.812       24.419       31.759       23.554      596.272     1008.620      554.808        0.254        0.108       53.092        6.734        0.016      331.991        0.365      869.712
11/23/2014  05:17:00      -16.994      -21.649        6.737       25.489       48.639       19.607      649.676     2365.766      384.422        0.210        0.170       27.522       14.857        0.291      332.101        0.546      869.714
11/23/2014  05:18:00      -44.313       39.570       -8.842       34.337       26.653       19.879     1179.036      710.396      395.185        0.295        0.114       59.409       15.936        0.072      331.550       -0.363      869.713
11/23/2014  05:19:00     -115.241       12.277      -14.645       38.857       34.861       20.978     1509.853     1215.267      440.059        0.840        0.158      115.893       16.916        0.021      331.405       -0.600      869.705
11/23/2014  05:20:00      -82.224        6.498      -11.259       35.022       27.775       20.181     1226.536      771.435      407.290        0.467        0.120       82.481       15.926        0.037      331.447       -0.532      869.701
11/23/2014  05:21:00      -18.911      -68.649       -1.403       35.873       22.663       15.955     1286.859      513.609      254.551        0.356        0.103       71.207        6.755        0.009      331.654       -0.192      869.704
11/23/2014  05:22:00      -19.240      -58.453        9.752       32.140       46.939       27.103     1032.998     2203.256      734.548        0.393        0.199       61.538       17.916        0.085      332.126        0.585      869.716
11/23/2014  05:23:00      -29.910      -27.638        5.372       14.561       24.275       17.215      212.031      589.279      296.372        0.139        0.055       40.724       16.411        0.162      331.816        0.075      869.743
11/23/2014  05:24:00      -22.985       10.616        5.474       20.831       25.081       14.495      433.939      629.040      210.095        0.097        0.064       25.319        9.069        0.128      331.788        0.028      869.768
11/23/2014  05:25:00       -4.451        5.837        3.530        5.265        7.486        6.261       27.723       56.046       39.203        0.009        0.006        7.341        1.625        0.049      331.657       -0.187      869.803
11/23/2014  05:26:00      -51.667       -9.264       -6.523       34.750       15.399        9.569     1207.564      237.136       91.572        0.217        0.077       52.491       13.082        0.062      331.580       -0.314      869.837
11/23/2014  05:27:00      -44.082      -12.595       -3.114       13.026       11.389        7.573      169.664      129.699       57.356        0.123        0.018       45.846        5.128        0.013      331.588       -0.301      869.869
11/23/2014  05:28:00      -39.495      -10.698       -4.054       11.437       16.543        8.418      130.811      273.656       70.869        0.108        0.024       40.918        8.135        0.040      331.716       -0.091      869.891
11/23/2014  05:29:00      -24.979      -12.183       -3.139       12.437        6.971        6.364      154.672       48.597       40.501        0.051        0.012       27.792        5.089        0.034      331.806        0.058      869.914
11/23/2014  05:30:00      -50.981        3.656       -0.429       15.437        5.479        5.226      238.300       30.016       27.312        0.145        0.015       51.112        5.293        0.011      331.869        0.162      869.937
11/23/2014  05:31:00      -58.117       -5.535       -3.390       12.787       13.267        9.226      163.509      176.005       85.126        0.192        0.021       58.380        5.964        0.010      331.783        0.020      869.970
11/23/2014  05:32:00      -69.106      -16.655       -6.749       16.095       20.934        9.580      259.055      438.249       91.767        0.294        0.039       71.085        7.924        0.012      331.506       -0.436      870.010
11/23/2014  05:33:00      -93.770      -30.211      -12.639       24.044       19.180       10.049      578.132      367.859      100.992        0.546        0.052       98.517        5.478        0.003      331.386       -0.632      870.027
11/23/2014  05:34:00      -81.205       -4.260       -3.010       33.446       24.753       14.872     1118.649      612.734      221.169        0.429        0.098       81.317       16.995        0.044      331.271       -0.822      870.036
11/23/2014  05:35:00      -73.048      -10.069       -4.206       34.240       36.294       17.873     1172.347     1317.289      319.445        0.413        0.140       73.738       16.918        0.053      331.171       -0.987      870.040
11/23/2014  05:36:00     -104.472       -0.973      -14.433       42.136       30.127       17.553     1775.461      907.615      308.121        0.706        0.150      104.476       18.503        0.031      331.188       -0.957      870.042
11/23/2014  05:37:00     -101.238      -12.893       -1.372       33.120       29.522       18.593     1096.929      871.546      345.690        0.637        0.116      102.056       17.061        0.028      331.238       -0.876      870.043
11/23/2014  05:38:00     -109.055      -31.564       -7.379       22.362       17.392       13.327      500.056      302.479      177.601        0.696        0.049      113.531       10.891        0.009      331.278       -0.809      870.031
11/23/2014  05:39:00     -101.196      -36.870       -3.927       21.786       15.724       13.982      474.638      247.251      195.499        0.627        0.046      107.704       12.185        0.013      331.363       -0.672      870.010
11/23/2014  05:40:00     -101.989      -39.949       -2.878       32.060       21.278       18.272     1027.829      452.756      333.867        0.691        0.091      109.533       12.807        0.014      331.348       -0.696      870.016
11/23/2014  05:41:00     -116.479      -53.835       -4.513       32.476       25.934       17.718     1054.663      672.568      313.919        0.926        0.102      128.318       18.245        0.020      331.448       -0.530      870.016
11/23/2014  05:42:00     -114.322      -53.514       -0.990       41.335       25.746       19.073     1708.556      662.870      363.782        0.933        0.137      126.227       18.678        0.022      331.463       -0.506      870.012
11/23/2014  05:43:00     -125.198      -63.570      -10.552       31.640       26.299       21.051     1001.085      691.645      443.155        1.098        0.107      140.412       12.709        0.008      331.508       -0.432      870.027
11/23/2014  05:44:00     -146.950      -53.360       -7.383       27.539       28.433       17.143      758.373      808.455      293.895        1.318        0.093      156.338       15.086        0.009      331.428       -0.564      870.060
11/23/2014  05:45:00     -114.036      -40.600       -5.356       28.100       32.163       15.900      789.586     1034.445      252.810        0.838        0.104      121.047       12.969        0.011      331.361       -0.673      870.074
11/23/2014  05:46:00     -126.353      -35.426       -4.345       30.345       27.500       15.887      920.827      756.261      252.384        0.958        0.096      131.225       14.661        0.012      331.341       -0.707      870.055
11/23/2014  05:47:00     -141.929      -19.688       -8.880       23.565       25.530       18.506      555.307      651.765      342.461        1.108        0.077      143.288       12.750        0.008      331.327       -0.730      870.022
11/23/2014  05:48:00     -128.372      -28.692       -6.605       25.508       23.365       15.534      650.650      545.934      241.316        0.939        0.072      131.539       15.058        0.013      331.335       -0.716      869.994
11/23/2014  05:49:00     -131.699      -24.716       -6.645       26.685       23.531       16.645      712.081      553.721      277.066        0.977        0.077      133.999       13.513        0.010      331.361       -0.674      870.005
11/23/2014  05:50:00     -100.078      -29.239       -1.448       24.486       29.236       19.215      599.580      854.761      369.219        0.635        0.091      104.262       16.855        0.026      331.291       -0.788      870.043
11/23/2014  05:51:00      -82.131      -14.283       -7.164       36.200       20.692       15.413     1310.455      428.164      237.550        0.449        0.099       83.363       18.627        0.050      331.172       -0.985      870.086
11/23/2014  05:52:00      -67.973       -2.328       -6.251       30.286       24.904       16.201      917.234      620.224      262.486        0.323        0.090       68.013       17.880        0.069      331.103       -1.098      870.105
11/23/2014  05:53:00        2.181      -13.556       -0.541       18.573       19.706       14.798      344.949      388.328      218.991        0.057        0.048       13.731        9.012        0.431      331.104       -1.097      870.096
11/23/2014  05:54:00       -9.764        2.080        3.566       11.657       10.495       12.308      135.886      110.136      151.494        0.025        0.020        9.983        9.024        0.817      331.244       -0.865      870.057
11/23/2014  05:55:00       42.881       41.604       23.074       17.370       11.489        9.926      301.731      132.005       98.521        0.232        0.027       59.747        8.451        0.020      331.341       -0.706      870.010
11/23/2014  05:56:00       87.222       40.969       15.832       33.978       21.715       28.231     1154.482      471.555      796.965        0.598        0.121       96.365       21.379        0.049      331.268       -0.827      869.969
11/23/2014  05:57:00       85.701       47.449       14.270       22.513       19.794       25.485      506.839      391.794      649.473        0.567        0.077       97.959       13.121        0.018      331.180       -0.971      869.929
11/23/2014  05:58:00       55.036       29.248       26.262       19.171       20.649       16.656      367.546      426.362      277.416        0.282        0.054       62.325       10.951        0.031      331.165       -0.998      869.899
11/23/2014  05:59:00      100.872       62.551       22.805       20.863       18.338       19.054      435.261      336.290      363.055        0.787        0.057      118.692        4.990        0.002      331.152       -1.017      869.901
11/23/2014  06:00:00       76.395       75.179       54.465       34.679       34.279       38.167     1202.649     1175.043     1456.745        0.914        0.192      107.182       25.441        0.056      331.134       -1.047      869.918
11/23/2014  06:01:00      117.115       70.987       33.779       28.892       34.435       33.679      834.768     1185.755     1134.299        1.152        0.158      136.949       23.992        0.031      331.051       -1.185      869.952
11/23/2014  06:02:00       70.098       51.963       10.519       26.412       19.056       20.897      697.570      363.149      436.679        0.461        0.075       87.258        8.956        0.011      331.014       -1.244      869.981
11/23/2014  06:03:00       68.687       51.759       14.578       23.625       20.643       13.517      558.148      426.116      182.719        0.439        0.058       86.005        6.877        0.006      331.003       -1.263      870.000
11/23/2014  06:04:00       40.334       39.178       15.520       16.991       16.041       13.904      288.685      257.320      193.308        0.207        0.037       56.230        8.919        0.025      331.070       -1.152      870.024
11/23/2014  06:05:00       23.588       15.249        6.785       11.724        7.083        7.939      137.451       50.170       63.029        0.054        0.013       28.088        5.015        0.032      331.303       -0.768      870.060
11/23/2014  06:06:00      -27.609       -2.023       -1.712       27.198       13.138        8.016      739.742      172.617       64.254        0.087        0.049       27.683        9.160        0.109      331.304       -0.766      870.083
11/23/2014  06:07:00      -89.891       -4.185      -14.595       19.713       12.925       10.316      388.602      167.062      106.413        0.449        0.033       89.989       10.391        0.013      331.119       -1.071      870.097
11/23/2014  06:08:00     -101.475        8.692      -10.816       22.107       13.257        7.698      488.723      175.756       59.255        0.561        0.036      101.847        5.067        0.002      331.179       -0.972      870.105
11/23/2014  06:09:00     -108.558       11.908       -9.603       27.759       16.249       15.596      770.577      264.028      243.245        0.665        0.064      109.209       15.831        0.021      331.128       -1.056      870.083
11/23/2014  06:10:00      -59.144       18.373       -4.974       27.563       19.824       13.783      759.741      393.009      189.969        0.260        0.067       61.932       13.350        0.046      331.305       -0.765      870.049
11/23/2014  06:11:00      -55.484       30.620        0.003       22.751       20.990       18.077      517.605      440.576      326.781        0.265        0.064       63.372       13.179        0.043      331.261       -0.839      870.039
11/23/2014  06:12:00      -80.657       12.505      -10.481       10.747       12.961        8.621      115.500      167.990       74.327        0.356        0.018       81.620        5.055        0.004      331.269       -0.824      870.033
11/23/2014  06:13:00      -65.662        4.187      -13.235       15.568       13.099       10.770      242.370      171.580      115.983        0.252        0.026       65.795        7.673        0.014      331.318       -0.744      870.020
11/23/2014  06:14:00      -71.465       -2.127       -8.317       25.638       28.583       14.303      657.326      817.004      204.576        0.343        0.084       71.497       12.148        0.029      331.349       -0.693      870.017
11/23/2014  06:15:00     -109.688      -11.907      -11.873       45.435       25.472       24.041     2064.343      648.836      577.961        0.780        0.165      110.332       26.713        0.059      331.344       -0.701      870.016
11/23/2014  06:16:00     -143.319      -17.785      -16.316       29.305       26.062       16.737      858.777      679.228      280.143        1.147        0.091      144.418       15.387        0.011      331.193       -0.950      870.040
11/23/2014  06:17:00     -120.553      -31.766      -13.101       25.252       22.488       15.266      637.641      505.696      233.065        0.854        0.069      124.668        9.440        0.006      331.117       -1.074      870.045
11/23/2014  06:18:00     -141.440        8.889      -11.025       37.062       27.307       22.664     1373.569      745.700      513.636        1.142        0.132      141.719       18.669        0.017      331.041       -1.200      870.032
11/23/2014  06:19:00     -202.829       20.452      -21.596       19.155       20.742       15.466      366.907      430.215      239.190        2.153        0.052      203.858       12.077        0.004      331.050       -1.186      870.024
11/23/2014  06:20:00     -200.285       22.803      -18.289       26.061       23.209       16.016      679.174      538.673      256.506        2.122        0.074      201.579       13.389        0.004      331.017       -1.240      870.039
11/23/2014  06:21:00     -222.212       36.431      -23.785       26.496       27.311       17.235      702.045      745.874      297.052        2.651        0.087      225.179       11.612        0.003      331.034       -1.214      870.061
11/23/2014  06:22:00     -221.146       23.916      -27.075       26.957       27.822       18.517      726.660      774.059      342.886        2.603        0.092      222.436        8.874        0.002      331.067       -1.162      870.095
11/23/2014  06:23:00     -206.615       -8.420      -27.314       74.341       35.146       28.136     5526.609     1235.270      791.661        2.553        0.378      206.786       35.434        0.029      330.962       -1.332      870.120
11/23/2014  06:24:00     -136.576       17.617      -11.471       44.983       46.996       30.756     2023.449     2208.655      945.933        1.214        0.259      137.708       28.079        0.042      330.988       -1.286      870.143
11/23/2014  06:25:00     -114.444        8.344      -19.741       56.312       56.259       27.946     3171.075     3165.094      780.986        1.034        0.356      114.748       19.433        0.029      331.017       -1.241      870.151
11/23/2014  06:26:00     -174.529       31.975      -21.772       44.966       55.146       30.794     2021.930     3041.103      948.273        1.898        0.301      177.434       23.503        0.018      330.904       -1.426      870.159
11/23/2014  06:27:00     -155.605       45.491      -26.092       53.482       63.128       40.137     2860.374     3985.144     1610.990        1.771        0.423      162.118       28.143        0.030      330.873       -1.476      870.178
11/23/2014  06:28:00     -217.662       61.946      -28.131       73.369       61.209       35.551     5383.035     3746.530     1263.842        3.120        0.520      226.305       37.845        0.028      330.782       -1.627      870.183
11/23/2014  06:29:00     -230.738       39.293      -25.286       54.690       65.841       31.855     2991.032     4335.066     1014.761        3.188        0.417      234.060       27.657        0.014      330.753       -1.677      870.167
11/23/2014  06:30:00     -153.927       34.737      -11.502       76.051       54.528       32.722     5783.698     2973.251     1070.703        1.743        0.491      157.798       20.784        0.017      330.801       -1.595      870.135
11/23/2014  06:31:00     -157.364      -35.351      -10.741       62.849       76.063       33.219     3950.044     5785.635     1103.519        1.848        0.542      161.286       28.977        0.032      330.898       -1.434      870.102
11/23/2014  06:32:00     -168.080       -1.941      -25.252       73.661       64.034       33.634     5425.971     4100.404     1131.227        1.977        0.533      168.091       26.774        0.025      330.964       -1.328      870.085
11/23/2014  06:33:00     -210.983       24.696      -23.638       68.529       72.712       32.440     4696.202     5287.001     1052.327        2.836        0.552      212.424       21.207        0.010      330.974       -1.313      870.100
11/23/2014  06:34:00     -151.439       26.604       -7.216       71.556       77.253       39.063     5120.214     5968.003     1525.938        1.815        0.631      153.758       40.970        0.071      330.927       -1.389      870.144
11/23/2014  06:35:00     -234.833       67.125      -37.349       80.531       50.213       37.817     6485.204     2521.321     1430.112        3.574        0.522      244.238       31.562        0.017      330.818       -1.567      870.190
11/23/2014  06:36:00     -178.620       22.194      -25.175       55.465       52.760       38.299     3076.330     2783.652     1466.786        2.018        0.366      179.994       35.409        0.039      330.839       -1.532      870.194
11/23/2014  06:37:00     -208.673       49.630      -34.848       64.931       73.435       35.233     4216.066     5392.722     1241.384        2.903        0.543      214.493       26.326        0.015      330.833       -1.543      870.189
11/23/2014  06:38:00     -155.487       46.000      -35.671       59.797       57.427       35.187     3575.641     3297.820     1238.151        1.784        0.406      162.149       33.040        0.042      330.794       -1.606      870.198
11/23/2014  06:39:00     -187.048       23.146      -19.856       62.548       53.365       38.786     3912.292     2847.833     1504.372        2.209        0.413      188.474       32.422        0.030      330.834       -1.541      870.210
11/23/2014  06:40:00     -142.437       14.407      -15.207       41.796       67.493       26.550     1746.919     4555.333      704.929        1.387        0.350      143.164       13.881        0.009      330.883       -1.458      870.211
11/23/2014  06:41:00      -95.341       -0.501       -9.812       47.812       50.126       30.663     2285.959     2512.585      940.204        0.746        0.287       95.343       19.992        0.044      330.928       -1.385      870.189
11/23/2014  06:42:00      -89.126      -15.344       -8.216       45.349       34.073       25.388     2056.568     1160.941      644.571        0.605        0.193       90.437       15.542        0.030      330.927       -1.387      870.146
11/23/2014  06:43:00     -103.128      -38.814       -4.594       36.281       39.135       27.534     1316.299     1531.530      758.126        0.788        0.180      110.191       18.827        0.029      330.938       -1.369      870.110
11/23/2014  06:44:00     -135.397      -28.434      -12.158       37.190       35.757       21.228     1383.129     1278.583      450.636        1.120        0.156      138.350       17.987        0.017      330.953       -1.344      870.075
11/23/2014  06:45:00      -48.154      -31.118       -0.156       61.493       32.796       25.452     3781.440     1075.563      647.796        0.439        0.275       57.333       22.663        0.156      330.966       -1.322      870.030
11/23/2014  06:46:00      -73.964      -28.171       -5.062       36.958       27.755       21.770     1365.889      770.350      473.929        0.445        0.131       79.147       13.791        0.030      330.997       -1.274      870.019
11/23/2014  06:47:00      -69.568      -32.482      -12.158       39.861       23.781       16.653     1588.920      565.519      277.321        0.424        0.122       76.778       13.251        0.030      331.018       -1.237      870.016
11/23/2014  06:48:00     -121.457      -30.217      -10.227       35.235       27.366       17.046     1241.500      748.904      290.579        0.902        0.114      125.159       16.213        0.017      330.943       -1.361      870.007
11/23/2014  06:49:00     -110.224      -40.853       -2.511       23.029       31.064       17.545      530.320      964.956      307.834        0.781        0.090      117.551       11.074        0.009      330.934       -1.375      870.005
11/23/2014  06:50:00      -75.287      -17.496       -6.163       36.263       30.921       19.013     1314.969      956.084      361.505        0.432        0.132       77.293       14.977        0.038      331.043       -1.197      870.018
11/23/2014  06:51:00     -128.245      -28.076      -10.560       47.010       30.933       17.160     2209.968      956.852      294.473        1.040        0.173      131.282       13.668        0.011      331.046       -1.193      870.035
11/23/2014  06:52:00     -141.971      -55.385       -3.060       40.730       33.194       21.858     1658.946     1101.848      477.754        1.324        0.162      152.392       20.851        0.019      331.032       -1.215      870.058
11/23/2014  06:53:00     -158.564      -60.535      -17.873       27.672       23.298       21.420      765.762      542.814      458.812        1.545        0.088      169.726       17.580        0.011      331.090       -1.120      870.069
11/23/2014  06:54:00     -138.321      -28.197       -7.486       36.739       47.228       26.084     1349.741     2230.481      680.398        1.212        0.213      141.166       19.802        0.020      331.023       -1.230      870.082
11/23/2014  06:55:00     -129.936        4.521      -19.056       50.322       27.024       24.532     2532.307      730.273      601.812        1.056        0.193      130.015       16.441        0.016      331.065       -1.160      870.097
11/23/2014  06:56:00      -84.028      -42.213      -11.272       52.578       42.389       24.409     2764.403     1796.816      595.819        0.706        0.258       94.036       26.909        0.082      331.026       -1.225      870.105
11/23/2014  06:57:00     -119.040      -57.526       -6.606       42.663       23.510       21.150     1820.138      552.736      447.317        1.017        0.141      132.211       21.048        0.025      331.060       -1.168      870.116
11/23/2014  06:58:00     -103.913      -63.810       -2.809       35.004       26.464       20.421     1225.309      700.356      417.030        0.861        0.117      121.941       17.548        0.021      331.055       -1.176      870.133
11/23/2014  06:59:00     -110.696      -38.158       -1.053       43.835       32.017       19.646     1921.496     1025.069      385.958        0.852        0.167      117.088       22.899        0.038      331.035       -1.208      870.152
11/23/2014  07:00:00      -76.170      -14.893        7.909       49.287       38.984       24.331     2429.190     1519.743      592.001        0.531        0.227       77.612       29.650        0.146      331.055       -1.177      870.174
11/23/2014  07:01:00      -80.340      -16.793       -7.017       54.083       25.682       21.429     2924.979      659.569      459.194        0.541        0.202       82.076       28.120        0.117      331.070       -1.153      870.185
11/23/2014  07:02:00      -65.611      -15.594       -9.718       37.114       36.276       17.273     1377.454     1315.927      298.357        0.382        0.150       67.439       12.191        0.033      331.056       -1.175      870.195
11/23/2014  07:03:00      -40.473      -28.025        2.445       26.488       17.106       14.555      701.589      292.604      211.834        0.182        0.060       49.229       13.761        0.078      331.088       -1.122      870.214
11/23/2014  07:04:00      -83.030      -37.765       -3.790       38.517       21.758       20.986     1483.560      473.413      440.432        0.537        0.120       91.215       19.575        0.046      331.121       -1.068      870.237
11/23/2014  07:05:00      -32.191      -24.334        5.092       27.868       19.608       16.243      776.630      384.485      263.850        0.154        0.071       40.354       15.099        0.140      331.204       -0.932      870.242
11/23/2014  07:06:00      -25.160      -45.259       -2.172       20.995       21.513       15.007      440.790      462.792      225.202        0.191        0.056       51.783       12.336        0.057      331.215       -0.912      870.250
11/23/2014  07:07:00     -102.018      -11.811      -17.311       16.385       19.760       11.336      268.465      390.464      128.513        0.582        0.039      102.699        7.382        0.005      331.186       -0.961      870.269
11/23/2014  07:08:00      -97.556       -4.924      -17.449       28.483       15.856       15.007      811.304      251.413      225.217        0.557        0.064       97.680       16.033        0.027      331.240       -0.871      870.305
11/23/2014  07:09:00     -119.737       -7.768      -17.241       15.663       17.453       11.773      245.326      304.593      138.614        0.769        0.034      119.989        7.928        0.004      331.245       -0.863      870.321
11/23/2014  07:10:00     -124.226      -29.603      -10.608       19.350       18.226       15.075      374.422      332.194      227.244        0.868        0.047      127.705       12.617        0.010      331.271       -0.819      870.335
11/23/2014  07:11:00      -94.715      -12.860       -2.017       36.357       21.627       15.463     1321.826      467.717      239.117        0.558        0.101       95.584       16.584        0.030      331.241       -0.870      870.333
11/23/2014  07:12:00      -64.860      -27.289       -0.540       38.206       21.637       17.577     1459.687      468.169      308.966        0.359        0.112       70.367       19.160        0.074      331.263       -0.835      870.330
11/23/2014  07:13:00      -19.952      -23.068        5.815       36.535       18.827       17.667     1334.832      354.453      312.120        0.148        0.100       30.499       19.475        0.408      331.371       -0.658      870.321
11/23/2014  07:14:00      -12.316      -19.887        7.027       21.110       12.071       13.285      445.623      145.704      176.484        0.068        0.038       23.392       14.862        0.404      331.379       -0.644      870.310
11/23/2014  07:15:00       -9.721      -20.528        6.736       15.708       12.815        9.904      246.734      164.221       98.092        0.054        0.025       22.713        7.519        0.110      331.381       -0.640      870.308
11/23/2014  07:16:00      -49.066      -28.458       -8.566        8.760       12.952        7.007       76.738      167.743       49.098        0.179        0.015       56.721        6.237        0.012      331.288       -0.793      870.294
11/23/2014  07:17:00      -88.352      -29.011      -13.950       17.330       11.522       10.779      300.334      132.762      116.192        0.470        0.027       92.993        7.015        0.006      331.343       -0.701      870.271
11/23/2014  07:18:00      -73.113      -51.695       -1.397       37.901       21.545       20.152     1436.482      464.184      406.109        0.516        0.115       89.543       15.574        0.030      331.243       -0.866      870.223
11/23/2014  07:19:00      -29.775      -26.365        9.449       35.651       24.475       19.836     1271.024      599.020      393.448        0.197        0.113       39.770       18.798        0.223      331.346       -0.699      870.159
11/23/2014  07:20:00      -16.319      -44.837       10.121       28.427       39.388       19.376      808.102     1551.430      375.423        0.256        0.137       47.714       20.238        0.180      331.442       -0.541      870.105
11/23/2014  07:21:00      -25.472      -17.464       -3.707       22.466       23.320       18.654      504.701      543.836      347.970        0.118        0.070       30.884       16.031        0.269      331.485       -0.471      870.057
11/23/2014  07:22:00      -49.313      -13.840       -7.933       22.828       14.031       10.658      521.124      196.863      113.594        0.176        0.042       51.218        9.017        0.031      331.369       -0.660      870.062
11/23/2014  07:23:00      -48.040        7.426       -8.099       21.849       23.180       19.501      477.379      537.311      380.286        0.191        0.070       48.611        9.930        0.042      331.365       -0.667      870.077
11/23/2014  07:24:00      -15.247      -10.080        0.056       24.615       18.673       20.468      605.880      348.664      418.919        0.085        0.069       18.278       17.144        0.880      331.522       -0.408      870.097
11/23/2014  07:25:00      -50.808      -32.102       -3.540       36.254       32.854       23.381     1314.384     1079.414      546.690        0.328        0.147       60.100       17.967        0.089      331.415       -0.586      870.094
11/23/2014  07:26:00      -51.033      -39.853        3.447       34.745       33.824       16.351     1207.237     1144.068      267.359        0.341        0.131       64.751        9.429        0.021      331.399       -0.611      870.103
11/23/2014  07:27:00      -47.466      -37.076        0.810       46.425       17.536       18.089     2155.306      307.495      327.221        0.321        0.140       60.230       16.548        0.075      331.448       -0.531      870.124
11/23/2014  07:28:00      -82.301      -70.029       -3.712       34.860       37.923       21.152     1215.250     1438.181      447.388        0.740        0.155      108.063       12.880        0.014      331.385       -0.634      870.161
11/23/2014  07:29:00      -25.222      -33.726       -0.835       30.153       35.646       28.478      909.176     1270.604      811.021        0.238        0.150       42.114        8.849        0.044      331.495       -0.453      870.180
11/23/2014  07:30:00      -35.423      -15.045       -1.128       39.785       22.961       18.845     1582.824      527.211      355.133        0.197        0.123       38.486       16.086        0.175      331.526       -0.402      870.186
11/23/2014  07:31:00      -25.837      -27.136        9.004       39.355       38.250       27.740     1548.783     1463.098      769.501        0.263        0.189       37.469       20.713        0.306      331.636       -0.221      870.189
11/23/2014  07:32:00      -48.603      -40.436       -0.674       65.976       36.988       25.189     4352.795     1368.137      634.494        0.518        0.318       63.224       33.707        0.284      331.629       -0.233      870.193
11/23/2014  07:33:00      -17.245       -5.419       14.741       46.383       48.424       27.811     2151.358     2344.861      773.442        0.291        0.263       18.076       33.666        3.469      331.750       -0.033      870.220
11/23/2014  07:34:00       -4.435       25.663        2.881       36.642       37.939       25.200     1342.623     1439.336      635.058        0.205        0.171       26.043       20.402        0.614      331.770       -0.002      870.254
11/23/2014  07:35:00        1.078       -2.830       19.213       25.040       42.678       32.385      626.997     1821.439     1048.760        0.194        0.175        3.028       31.043      105.070      331.891        0.199      870.293
11/23/2014  07:36:00        5.721       17.138       32.426       23.713       15.314       19.039      562.311      234.530      362.485        0.127        0.058       18.068        9.404        0.271      332.040        0.444      870.328
11/23/2014  07:37:00        6.679       23.802       22.773       19.074       22.028       17.493      363.803      485.224      306.017        0.114        0.058       24.721       11.481        0.216      332.000        0.378      870.345
11/23/2014  07:38:00        8.500       39.978       31.662       19.322       29.224       16.052      373.348      854.055      257.659        0.208        0.074       40.871       11.702        0.082      331.945        0.286      870.343
11/23/2014  07:39:00       36.947       22.101        5.127       32.808       19.808       18.947     1076.379      392.340      359.004        0.185        0.091       43.053       18.305        0.181      331.993        0.367      870.332
11/23/2014  07:40:00       28.935       11.638       14.651       18.389       13.018       16.773      338.171      169.470      281.346        0.099        0.039       31.187       10.521        0.114      332.055        0.468      870.307
11/23/2014  07:41:00       64.347       47.921       11.830       19.242       13.613       17.300      370.263      185.309      299.291        0.372        0.043       80.230        6.419        0.006      331.876        0.174      870.275
11/23/2014  07:42:00       80.473       69.484       14.894       22.019       24.247       25.425      484.825      587.912      646.448        0.662        0.086      106.320       13.939        0.017      331.772        0.003      870.258
11/23/2014  07:43:00       97.999       66.585        9.935       39.158       32.129       25.980     1533.367     1032.290      674.977        0.869        0.162      118.479       19.381        0.027      331.758       -0.021      870.265
11/23/2014  07:44:00      138.729       84.849        1.411       25.690       22.692       21.815      659.986      514.934      475.892        1.405        0.083      162.619       11.690        0.005      331.640       -0.215      870.269
11/23/2014  07:45:00       91.315       35.334        0.912       55.323       36.513       22.888     3060.640     1333.204      523.852        0.725        0.246       97.913       15.102        0.024      331.725       -0.074      870.259
11/23/2014  07:46:00       74.832       45.511       13.620       33.225       21.943       21.908     1103.891      481.511      479.949        0.496        0.103       87.585       14.343        0.027      331.682       -0.146      870.250
11/23/2014  07:47:00       40.412       40.825        6.040       26.536       22.644       19.043      704.151      512.755      362.630        0.246        0.079       57.444       15.898        0.077      331.711       -0.098      870.247
11/23/2014  07:48:00       44.312       26.080      -10.713       15.368        9.436       11.162      236.169       89.038      124.590        0.160        0.022       51.417        9.128        0.032      331.639       -0.217      870.249
11/23/2014  07:49:00       28.303       21.259       -2.980       11.397       15.021       13.693      129.895      225.624      187.500        0.090        0.027       35.398        5.744        0.026      331.763       -0.012      870.239
11/23/2014  07:50:00       17.513       59.354       -0.981       21.168       38.699       16.327      448.065     1497.583      266.577        0.302        0.111       61.883       20.667        0.112      331.707       -0.104      870.229
11/23/2014  07:51:00       11.892       97.564       -9.300       20.390       20.641       18.371      415.752      426.055      337.504        0.546        0.059       98.286       15.940        0.026      331.662       -0.178      870.215
11/23/2014  07:52:00       48.026       60.742        2.335       45.291       32.962       30.075     2051.277     1086.511      904.515        0.502        0.202       77.434       21.968        0.080      331.746       -0.040      870.192
11/23/2014  07:53:00       59.837       61.109        3.126       34.933       29.509       31.422     1220.280      870.796      987.362        0.520        0.154       85.526       25.612        0.090      331.735       -0.059      870.169
11/23/2014  07:54:00       36.853       50.726        7.638       28.625       23.942       22.588      819.369      573.227      510.229        0.295        0.095       62.699       14.703        0.055      331.734       -0.060      870.152
11/23/2014  07:55:00       55.611       50.046        0.701       17.980       22.406       23.511      323.277      502.012      552.754        0.349        0.069       74.814       15.481        0.043      331.650       -0.198      870.120
11/23/2014  07:56:00       47.150       54.473       -2.619       17.503       27.961       17.577      306.371      781.841      308.951        0.330        0.070       72.045       12.771        0.031      331.622       -0.245      870.091
11/23/2014  07:57:00       54.866       33.925       -2.778       25.229       24.817       15.434      636.492      615.887      238.199        0.283        0.075       64.508       12.222        0.036      331.673       -0.159      870.086
11/23/2014  07:58:00       57.543       58.911       -1.674       23.504       32.274       21.650      552.415     1041.605      468.705        0.442        0.103       82.351       17.819        0.047      331.633       -0.225      870.085
11/23/2014  07:59:00       51.767       29.171        1.748       30.011       24.964       16.378      900.653      623.221      268.255        0.266        0.090       59.420       13.648        0.053      331.729       -0.067      870.074
11/23/2014  08:00:00       52.549       41.141       -1.747       15.786       14.040       14.306      249.207      197.116      204.648        0.255        0.033       66.738        7.835        0.014      331.755       -0.025      870.062
11/23/2014  08:01:00       52.136       22.119       11.453       21.220       17.998       19.368      450.296      323.941      375.138        0.224        0.057       56.634       13.372        0.056      331.770       -0.001      870.041
11/23/2014  08:02:00       72.715       45.050       11.143       16.155       17.394       17.369      261.000      302.541      301.693        0.415        0.043       85.539        7.951        0.009      331.698       -0.119      870.061
11/23/2014  08:03:00       45.273        7.310       12.120       22.270       16.019       14.520      495.962      256.619      210.839        0.161        0.048       45.859       10.417        0.052      331.813        0.070      870.077
11/23/2014  08:04:00       13.932       24.967       25.578       11.683       17.136       15.382      136.493      293.626      236.597        0.107        0.033       28.591       12.227        0.183      332.064        0.484      870.104
11/23/2014  08:05:00        3.438       13.883       19.459       11.007       10.256        8.604      121.163      105.191       74.022        0.044        0.015       14.303        2.665        0.035      332.327        0.917      870.114
11/23/2014  08:06:00       -6.663       50.427       -8.775       19.328       19.186       13.263      373.575      368.122      175.912        0.179        0.046       50.865       11.398        0.050      331.949        0.294      870.109
11/23/2014  08:07:00      -28.479       27.084      -14.226       11.146       20.495        7.114      124.239      420.030       50.613        0.117        0.030       39.301        8.838        0.051      331.929        0.261      870.082
11/23/2014  08:08:00       -2.145       14.145       15.237       15.863       13.600       10.794      251.644      184.950      116.504        0.049        0.028       14.307        9.913        0.480      332.303        0.877      870.092
11/23/2014  08:09:00       -6.314       38.192       11.691       16.923       20.152       14.348      286.386      406.096      205.857        0.127        0.045       38.710       13.212        0.116      332.222        0.745      870.133
11/23/2014  08:10:00       -1.959       55.731       -3.966       15.807       26.296       11.445      249.876      691.493      130.986        0.210        0.054       55.765        9.446        0.029      332.081        0.512      870.205
11/23/2014  08:11:00       16.468       34.288        4.921       22.722       21.515       13.296      516.293      462.898      176.781        0.131        0.058       38.037        8.334        0.048      332.227        0.752      870.268
11/23/2014  08:12:00       21.519       43.221       -4.891       16.445       34.118       17.415      270.430     1164.036      303.269        0.205        0.087       48.281       14.643        0.092      332.182        0.679      870.324
11/23/2014  08:13:00       11.271       73.281       -8.558       27.287       49.224       17.300      744.605     2423.019      299.275        0.452        0.173       74.143       22.541        0.092      332.091        0.528      870.355
11/23/2014  08:14:00      -11.313       76.648       -1.927       12.496       27.516       17.125      156.153      757.143      293.272        0.361        0.060       77.478       12.790        0.027      332.121        0.578      870.340
11/23/2014  08:15:00        6.298       75.617       -5.988       19.946       20.899       19.426      397.836      436.776      377.354        0.350        0.061       75.879       17.050        0.050      332.293        0.862      870.321
11/23/2014  08:16:00        9.097       43.779        6.852       23.036       30.589       23.020      530.640      935.666      529.935        0.202        0.100       44.714       21.087        0.222      332.459        1.136      870.288
11/23/2014  08:17:00       25.159       30.160       13.751       18.135       24.993       20.022      328.877      624.647      400.866        0.154        0.068       39.276       18.560        0.223      332.440        1.104      870.279
11/23/2014  08:18:00       31.539       31.254        2.031       15.378       30.943       20.328      236.481      957.470      413.234        0.179        0.080       44.402       17.740        0.160      332.347        0.950      870.257
11/23/2014  08:19:00       15.700       13.946       18.185       23.283       16.606       14.267      542.076      275.747      203.550        0.090        0.051       20.999        9.518        0.205      332.628        1.414      870.244
11/23/2014  08:20:00       13.400       18.918       23.273       12.924       17.419        9.931      167.027      303.425       98.629        0.082        0.028       23.183        9.789        0.178      332.719        1.564      870.253
11/23/2014  08:21:00       36.906       24.684       16.154       25.560       16.208       14.492      653.330      262.689      210.021        0.168        0.056       44.400        2.851        0.004      332.626        1.411      870.282
11/23/2014  08:22:00        0.529       -0.157       28.556       11.800       18.800       12.985      139.237      353.447      168.611        0.074        0.033        0.552        4.260       59.654      332.906        1.873      870.321
11/23/2014  08:23:00       33.817       37.463       10.231       28.136       27.413       19.709      791.607      751.474      388.434        0.229        0.097       50.468       10.530        0.044      332.588        1.348      870.380
11/23/2014  08:24:00       59.104       31.069       -1.293       15.933       11.348       19.374      253.857      128.774      375.361        0.261        0.038       66.772        6.468        0.009      332.287        0.852      870.469
11/23/2014  08:25:00      -10.916        7.798        1.393       23.516       10.989       13.418      552.987      120.757      180.032        0.052        0.043       13.415        8.426        0.394      332.677        1.494      870.551
11/23/2014  08:26:00       -7.166       18.543       40.045       25.002       25.004       30.032      625.108      625.192      901.895        0.208        0.108       19.880       24.096        1.469      332.915        1.888      870.607
11/23/2014  08:27:00       15.235       40.648       47.389       25.658       21.667       24.619      658.332      469.453      606.097        0.293        0.087       43.410       19.025        0.192      332.823        1.736      870.651
11/23/2014  08:28:00       35.919       52.839       46.679       40.564       22.870       31.722     1645.398      523.041     1006.269        0.472        0.159       63.892       24.183        0.143      332.604        1.375      870.667
11/23/2014  08:29:00       38.526       47.853       45.895       22.263       20.199       13.736      495.645      407.980      188.676        0.349        0.055       61.434       10.318        0.028      332.572        1.322      870.661
11/23/2014  08:30:00       37.364       32.364       14.078       15.869       13.201       21.125      251.828      174.262      446.287        0.176        0.044       49.432       15.060        0.093      332.405        1.046      870.653
11/23/2014  08:31:00       14.642       22.910      -11.700       14.598       10.497       10.527      213.100      110.186      110.823        0.066        0.022       27.189        7.377        0.074      332.455        1.128      870.641
11/23/2014  08:32:00       35.706       31.814        1.696       32.488       18.761       18.918     1055.490      351.965      357.894        0.203        0.088       47.823       13.772        0.083      332.775        1.657      870.649
11/23/2014  08:33:00        1.305       23.581       -6.492       36.569       23.515       18.480     1337.305      552.975      341.493        0.142        0.112       23.617       14.825        0.394      332.890        1.847      870.688
11/23/2014  08:34:00      -15.320        1.265        5.833       17.686       21.533       20.400      312.805      463.681      416.145        0.073        0.060       15.372        8.733        0.323      332.918        1.894      870.747
11/23/2014  08:35:00      -27.804       11.451       21.505       18.880       43.968       23.351      356.443     1933.217      545.247        0.210        0.142       30.070       20.389        0.460      332.748        1.613      870.786
11/23/2014  08:36:00       -2.417       -6.718       -1.813       13.343       17.875       14.042      178.042      319.512      197.181        0.037        0.035        7.140        8.895        1.552      332.760        1.633      870.801
11/23/2014  08:37:00        1.073       18.839       -2.271       13.812       33.459       12.797      190.773     1119.516      163.763        0.092        0.074       18.869       14.345        0.578      332.705        1.541      870.787
11/23/2014  08:38:00        6.701       39.224        1.894       13.196       21.157       16.017      174.146      447.638      256.559        0.123        0.044       39.793       14.975        0.142      332.783        1.671      870.776
11/23/2014  08:39:00        1.711       38.522       -0.172       16.853       19.773       19.145      284.016      390.974      366.514        0.126        0.052       38.560       15.339        0.158      332.787        1.675      870.758
11/23/2014  08:40:00       29.158       55.126        0.628       22.748       26.252       24.407      517.473      689.182      595.693        0.285        0.090       62.362       19.367        0.096      332.745        1.608      870.723
11/23/2014  08:41:00       87.411       62.706        4.565       39.147       24.030       29.267     1532.512      577.463      856.547        0.728        0.148      107.576       22.115        0.042      332.590        1.351      870.679
11/23/2014  08:42:00       99.904       70.386       -3.041       32.193       28.289       18.400     1036.357      800.270      338.572        0.856        0.109      122.209       10.646        0.008      332.551        1.286      870.662
11/23/2014  08:43:00       41.403       81.826       51.725       50.767       34.648       39.356     2577.303     1200.455     1548.867        0.820        0.266       91.705       38.945        0.180      332.824        1.738      870.669
11/23/2014  08:44:00        8.870       58.808       69.467       37.147       53.191       38.425     1379.873     2829.306     1476.482        0.702        0.284       59.473       33.181        0.311      332.926        1.907      870.684
11/23/2014  08:45:00      115.962       93.223       52.872       60.180       39.073       48.265     3621.681     1526.728     2329.550        1.620        0.374      148.787       44.292        0.089      332.579        1.332      870.707
11/23/2014  08:46:00      109.503       54.990       12.594       47.169       48.159       41.045     2224.897     2319.287     1684.716        1.070        0.311      122.535       19.762        0.026      332.584        1.340      870.714
11/23/2014  08:47:00      117.935       82.950       16.002       55.117       34.993       39.712     3037.855     1224.537     1577.070        1.344        0.292      144.185       22.405        0.024      332.568        1.314      870.691
11/23/2014  08:48:00      108.355       63.864       31.803       42.963       48.161       34.738     1845.862     2319.512     1206.762        1.110        0.269      125.775       20.866        0.028      332.697        1.527      870.660
11/23/2014  08:49:00       38.541       51.774       30.467       42.801       35.997       37.846     1831.912     1295.797     1432.321        0.483        0.228       64.544       10.935        0.029      332.745        1.607      870.637
11/23/2014  08:50:00       13.892       37.212       64.113       36.559       49.434       35.550     1336.590     2443.741     1263.814        0.537        0.252       39.721       33.906        0.729      332.911        1.881      870.633
11/23/2014  08:51:00       62.121       85.185       69.340       46.875       39.925       41.472     2197.292     1593.997     1719.963        1.072        0.276      105.430       38.184        0.131      332.547        1.280      870.632
11/23/2014  08:52:00       95.244       72.149       40.287       39.172       46.588       36.040     1534.413     2170.488     1298.897        1.045        0.250      119.486       34.378        0.083      332.487        1.181      870.622
11/23/2014  08:53:00       73.591       65.210       38.611       53.038       21.537       33.943     2812.997      463.836     1152.100        0.779        0.221       98.326       35.107        0.127      332.506        1.213      870.571
11/23/2014  08:54:00       34.992       82.821       82.661       47.688       47.948       32.883     2274.167     2299.008     1081.296        1.028        0.283       89.909       27.398        0.093      332.720        1.567      870.563
11/23/2014  08:55:00      130.763       90.006       39.306       54.219       34.175       37.986     2939.751     1167.913     1442.967        1.615        0.278      158.745       32.749        0.043      332.483        1.175      870.566
11/23/2014  08:56:00      112.520       92.272       55.123       46.991       36.284       43.250     2208.187     1316.561     1870.570        1.480        0.270      145.516       30.249        0.043      332.503        1.208      870.569
11/23/2014  08:57:00       79.638       72.437       45.499       29.172       17.184       28.690      851.006      295.273      823.097        0.781        0.098      107.654       11.401        0.011      332.596        1.359      870.597
11/23/2014  08:58:00       69.663       51.294       -1.306       27.907       28.433       25.769      778.806      808.408      664.036        0.487        0.113       86.511       14.578        0.028      332.481        1.172      870.646
11/23/2014  08:59:00       64.956       37.815        8.423       19.944       21.323       20.562      397.780      454.673      422.815        0.350        0.064       75.162       11.724        0.024      332.596        1.362      870.666
11/23/2014  09:00:00       17.316       49.594       23.918       29.550       26.570       45.251      873.205      705.945     2047.669        0.348        0.181       52.530       28.114        0.286      332.810        1.717      870.676
11/23/2014  09:01:00       80.052       56.253       22.045       43.512       24.968       35.387     1893.298      623.400     1252.273        0.691        0.188       97.840       27.803        0.081      332.636        1.428      870.713
11/23/2014  09:02:00       89.030       70.734       32.319       28.728       26.202       21.119      825.326      686.560      445.993        0.797        0.098      113.708       16.132        0.020      332.507        1.214      870.755
11/23/2014  09:03:00       70.939       62.199       20.745       38.180       25.337       35.413     1457.696      641.962     1254.075        0.634        0.168       94.345       26.574        0.079      332.679        1.498      870.806
11/23/2014  09:04:00      109.288       65.042       17.382       29.241       33.263       27.899      855.053     1106.454      778.352        0.961        0.137      127.178       21.546        0.029      332.693        1.522      870.837
11/23/2014  09:05:00       91.642       73.322       22.725       34.581       26.230       30.086     1195.869      688.027      905.191        0.854        0.139      117.364       19.638        0.028      332.709        1.548      870.858
11/23/2014  09:06:00       94.101       73.409       22.682       34.107       27.666       24.210     1163.294      765.410      586.119        0.864        0.126      119.348       13.671        0.013      332.678        1.496      870.877
11/23/2014  09:07:00      109.105       84.743        8.721       34.487       25.050       30.613     1189.384      627.485      937.169        1.096        0.138      138.149       16.340        0.014      332.598        1.365      870.908
11/23/2014  09:08:00      102.117       64.648       23.519       41.337       33.014       30.002     1708.752     1089.915      900.124        0.943        0.185      120.861       20.777        0.030      332.711        1.551      870.925
11/23/2014  09:09:00      107.900       81.378       18.351       38.600       33.214       36.517     1489.967     1103.199     1333.523        1.126        0.196      135.148       22.591        0.028      332.660        1.468      870.937
11/23/2014  09:10:00      105.360       64.126       31.043       53.175       26.421       39.231     2827.606      698.057     1539.068        1.062        0.253      123.341       31.217        0.064      332.710        1.548      870.940
11/23/2014  09:11:00       22.773       55.993       64.877       30.761       32.545       19.952      946.216     1059.163      398.083        0.513        0.120       60.447       16.165        0.072      332.797        1.695      870.930
11/23/2014  09:12:00       17.461       38.548       32.827       25.849       21.553       22.875      668.160      464.513      523.261        0.226        0.083       42.319       16.565        0.153      332.911        1.881      870.909
11/23/2014  09:13:00       45.806       49.312       -1.894       29.055       34.100       25.149      844.173     1162.843      632.477        0.359        0.132       67.304       19.523        0.084      332.747        1.611      870.880
11/23/2014  09:14:00       32.141       36.762        5.372       32.545       30.722       21.295     1059.164      943.844      453.489        0.243        0.123       48.831       13.785        0.080      332.804        1.704      870.860
11/23/2014  09:15:00        6.129        8.297        9.018       16.250       16.627       11.306      264.066      276.470      127.823        0.043        0.033       10.315        6.462        0.392      332.889        1.847      870.848
11/23/2014  09:16:00       19.008       23.572       29.468       41.045       31.233       34.511     1684.697      975.475     1191.028        0.282        0.193       30.281       29.097        0.923      333.086        2.171      870.858
11/23/2014  09:17:00        4.358      -21.009       20.977       19.350       24.699       18.835      374.404      610.019      354.745        0.112        0.067       21.456       11.233        0.274      333.152        2.279      870.896
11/23/2014  09:18:00       40.064       40.787       14.099       38.648       35.071       22.274     1493.666     1229.995      496.120        0.334        0.161       57.172       12.668        0.049      332.916        1.891      870.934
11/23/2014  09:19:00       82.803       58.065        9.891       24.073       25.612       24.331      579.500      655.964      591.976        0.608        0.091      101.133       16.138        0.025      332.779        1.666      870.939
11/23/2014  09:20:00       30.025       61.596        1.306       23.997       28.705       23.199      575.880      823.959      538.176        0.332        0.097       68.524       22.561        0.108      332.808        1.712      870.930
11/23/2014  09:21:00       20.020       25.730       10.910       21.281       26.362       19.986      452.867      694.937      399.421        0.136        0.077       32.602       10.667        0.107      333.017        2.057      870.957
11/23/2014  09:22:00       10.426       -1.254        8.148       22.591       27.190       13.975      510.340      739.312      195.288        0.081        0.072       10.501        6.804        0.420      333.244        2.431      870.985
11/23/2014  09:23:00       23.713       27.584       18.703       26.859       24.158       24.600      721.395      583.590      605.138        0.179        0.096       36.376       20.085        0.305      333.256        2.451      871.012
11/23/2014  09:24:00       48.602       59.217       26.039       39.007       35.320       36.104     1521.545     1247.480     1303.482        0.531        0.204       76.608       26.481        0.119      333.126        2.236      871.043
11/23/2014  09:25:00       77.528       57.646        2.770       28.735       22.373       18.832      825.690      500.539      354.646        0.551        0.084       96.611       12.410        0.016      333.080        2.160      871.068
11/23/2014  09:26:00       16.393      -10.044       24.578       25.820       33.421       29.327      666.653     1116.943      860.066        0.181        0.132       19.225       17.440        0.823      333.293        2.513      871.064
11/23/2014  09:27:00       29.626        5.782       13.212       32.682       33.794       27.415     1068.104     1142.021      751.596        0.202        0.148       30.185       24.286        0.647      333.190        2.342      871.042
11/23/2014  09:28:00       56.717       48.160       21.595       24.780       19.938       20.672      614.073      397.526      427.337        0.372        0.072       74.406        7.593        0.010      333.003        2.035      871.006
11/23/2014  09:29:00       54.777       50.472        9.097       17.699       14.520       17.901      313.250      210.818      320.447        0.324        0.042       74.484       12.845        0.030      332.956        1.958      870.975
11/23/2014  09:30:00       45.874       34.385       31.487       27.299       34.103       21.270      745.210     1163.022      452.404        0.332        0.118       57.330       11.451        0.040      333.127        2.239      870.964
11/23/2014  09:31:00       33.848       20.038       10.650       23.364       35.882       27.765      545.869     1287.490      770.900        0.213        0.130       39.335       16.727        0.181      333.094        2.185      870.985
11/23/2014  09:32:00       18.881       41.826       11.010       15.220       16.482       19.649      231.656      271.646      386.081        0.156        0.044       45.890       11.907        0.067      333.205        2.367      871.019
11/23/2014  09:33:00       56.727       38.285        6.649       30.401       20.856       24.796      924.198      434.958      614.827        0.335        0.099       68.437       13.073        0.036      333.245        2.432      871.038
11/23/2014  09:34:00       50.477       54.875       -0.838       23.872       25.379       19.996      569.870      644.112      399.830        0.359        0.081       74.560       13.097        0.031      333.306        2.534      871.062
11/23/2014  09:35:00       57.083       61.991       23.537       29.103       27.735       28.340      846.988      769.230      803.183        0.504        0.121       84.270       13.443        0.025      333.359        2.622      871.076
11/23/2014  09:36:00       67.417       72.486       74.196       41.704       37.584       34.585     1739.216     1412.521     1196.107        0.983        0.217       98.992       21.311        0.046      333.485        2.831      871.075
11/23/2014  09:37:00       43.585       34.536       44.754       45.839       27.377       38.357     2101.182      749.524     1471.290        0.471        0.216       55.610       33.768        0.369      333.534        2.911      871.088
11/23/2014  09:38:00       64.077       51.125       37.372       30.901       23.871       23.647      954.869      569.842      559.193        0.510        0.104       81.974       18.620        0.052      333.340        2.590      871.077
11/23/2014  09:39:00       43.305       39.061       65.577       30.855       29.756       24.979      952.048      885.405      623.940        0.508        0.123       58.319       17.244        0.087      333.609        3.035      871.060
11/23/2014  09:40:00       49.483       73.710       68.808       44.953       33.955       31.631     2020.806     1152.957     1000.497        0.839        0.209       88.779       28.910        0.106      333.588        3.000      871.044
11/23/2014  09:41:00       26.464       34.224       62.957       24.007       26.844       20.771      576.325      720.611      431.430        0.378        0.086       43.262       17.182        0.158      333.646        3.097      871.040
11/23/2014  09:42:00       57.772       60.300       61.306       43.452       35.753       31.929     1888.090     1278.269     1019.444        0.746        0.209       83.509       26.377        0.100      333.569        2.969      871.030
11/23/2014  09:43:00       31.123       60.279       65.055       54.366       38.505       29.283     2955.665     1482.644      857.515        0.706        0.265       67.840       15.508        0.052      333.769        3.301      871.028
11/23/2014  09:44:00       14.079       58.323       71.364       40.824       41.409       28.569     1666.618     1714.700      816.174        0.644        0.210       59.998       21.256        0.126      333.837        3.415      871.023
11/23/2014  09:45:00      -10.671       44.808       83.575       24.567       54.114       41.382      603.542     2928.364     1712.460        0.717        0.262       46.061       35.090        0.580      333.995        3.676      871.011
11/23/2014  09:46:00       49.204       47.378       33.123       52.976       35.587       27.390     2806.438     1266.409      750.206        0.529        0.241       68.306       26.677        0.153      333.817        3.381      871.017
11/23/2014  09:47:00       70.890       34.644       13.696       40.828       60.891       35.773     1666.935     3707.746     1279.701        0.653        0.333       78.902       35.068        0.198      333.582        2.992      871.016
11/23/2014  09:48:00       93.133       64.716        5.462       46.848       33.506       25.522     2194.691     1122.662      651.372        0.843        0.198      113.410       17.836        0.025      333.570        2.972      871.005
11/23/2014  09:49:00       32.427       72.232       -5.659       29.742       46.104       22.996      884.601     2125.600      528.834        0.492        0.177       79.177       23.307        0.087      333.561        2.957      870.986
11/23/2014  09:50:00        9.863       95.828       -8.156       27.636       39.488       25.605      763.751     1559.285      655.604        0.616        0.149       96.335       21.971        0.052      333.637        3.083      870.949
11/23/2014  09:51:00       14.865       37.959       17.704       25.252       42.432       26.336      637.661     1800.456      693.566        0.255        0.157       40.766       15.790        0.150      334.007        3.696      870.931
11/23/2014  09:52:00       16.700       65.592       62.329       30.968       32.681       26.329      959.041     1068.029      693.206        0.559        0.136       67.685       17.640        0.068      333.930        3.568      870.898
11/23/2014  09:53:00       28.645       23.446       29.026       40.078       39.409       31.481     1606.210     1553.045      991.022        0.318        0.208       37.017       33.094        0.799      334.011        3.703      870.890
11/23/2014  09:54:00       59.936       13.862       13.342       36.146       48.452       32.393     1306.509     2347.599     1049.314        0.433        0.235       61.518       20.343        0.109      333.868        3.465      870.896
11/23/2014  09:55:00       84.855       66.684       -1.502       39.267       32.562       25.415     1541.922     1060.260      645.898        0.745        0.162      107.922       20.753        0.037      333.623        3.060      870.916
11/23/2014  09:56:00       77.941       56.271       -1.667       22.920       21.731       27.482      525.341      472.223      755.238        0.550        0.088       96.132       14.685        0.023      333.545        2.930      870.937
11/23/2014  09:57:00       50.121       42.153       -0.912       30.545       34.155       23.039      933.007     1166.585      530.778        0.346        0.132       65.490       18.312        0.078      333.744        3.259      870.935
11/23/2014  09:58:00       76.297       57.749        4.838       55.882       34.072       23.888     3122.748     1160.921      570.619        0.702        0.243       95.688       21.040        0.048      333.832        3.405      870.929
11/23/2014  09:59:00       76.149       71.629       -5.418       46.341       37.334       30.521     2147.527     1393.822      931.560        0.771        0.224      104.543       23.806        0.052      333.785        3.327      870.935
11/23/2014  10:00:00       68.362       73.717       42.550       41.637       41.168       39.999     1733.653     1694.802     1599.949        0.847        0.251      100.536       30.262        0.091      334.071        3.801      870.938
11/23/2014  10:01:00       -9.223        9.041       25.113       23.951       52.301       26.471      573.644     2735.431      700.713        0.240        0.200       12.915       18.573        2.068      334.329        4.231      870.930
11/23/2014  10:02:00       74.960       76.214       25.420       53.450       43.804       37.862     2856.867     1918.762     1433.549        0.914        0.310      106.900       26.210        0.060      333.778        3.315      870.915
11/23/2014  10:03:00       19.156       20.761       37.291       21.464       32.231       24.919      460.709     1038.830      620.968        0.215        0.106       28.249       16.584        0.345      334.246        4.093      870.896
11/23/2014  10:04:00        6.942       20.385       65.283       27.545       61.882       32.687      758.751     3829.387     1068.454        0.519        0.283       21.535       37.480        3.029      334.188        3.995      870.885
11/23/2014  10:05:00       31.884       52.601       69.641       37.735       35.543       35.868     1423.960     1263.340     1286.531        0.630        0.199       61.510       23.873        0.151      334.258        4.112      870.883
11/23/2014  10:06:00       62.622       68.566       -0.252       55.231       49.682       38.231     3050.513     2468.274     1461.590        0.780        0.349       92.859       33.257        0.128      333.780        3.319      870.893
11/23/2014  10:07:00       32.337       89.507        0.677       36.575       45.134       40.505     1337.719     2037.109     1640.645        0.704        0.251       95.169       36.780        0.149      333.955        3.609      870.906
11/23/2014  10:08:00       78.861       70.179        0.584       47.906       35.360       37.140     2295.012     1250.307     1379.406        0.803        0.246      105.566       26.333        0.062      333.943        3.590      870.927
11/23/2014  10:09:00       84.467       66.543        3.458       34.254       33.472       33.634     1173.352     1120.353     1131.249        0.750        0.171      107.530       24.314        0.051      333.976        3.645      870.948
11/23/2014  10:10:00       55.580       78.603       -6.386       29.877       28.234       29.483      892.623      797.156      869.225        0.593        0.128       96.268       19.339        0.040      334.084        3.823      870.983
11/23/2014  10:11:00       36.737      110.845      -10.964       29.184       32.431       30.231      851.696     1051.765      913.940        0.829        0.141      116.774       21.090        0.033      333.899        3.517      870.996
11/23/2014  10:12:00       43.665       77.747       -1.238       34.212       29.448       33.647     1170.478      867.164     1132.114        0.556        0.158       89.170       20.629        0.054      334.075        3.808      870.988
11/23/2014  10:13:00       74.950       62.325       19.555       35.225       22.868       29.400     1240.812      522.954      864.364        0.626        0.131       97.478       23.134        0.056      334.018        3.713      870.983
11/23/2014  10:14:00       33.694       55.986       31.835       47.996       56.670       40.988     2303.660     3211.503     1680.038        0.624        0.360       65.343       27.141        0.173      334.226        4.060      870.961
11/23/2014  10:15:00       52.286       23.514       48.949       43.745       74.304       47.014     1913.636     5521.071     2210.327        0.766        0.482       57.330       46.028        0.645      334.322        4.219      870.954
11/23/2014  10:16:00      106.272       88.937       70.109       64.278       52.477       52.235     4131.686     2753.871     2728.478        1.686        0.481      138.576       39.829        0.083      334.326        4.223      870.952
11/23/2014  10:17:00      151.147       84.039       44.661       39.060       37.183       41.587     1525.715     1382.607     1729.448        1.827        0.232      172.939       25.671        0.022      333.946        3.593      870.978
11/23/2014  10:18:00       52.108       51.914        5.203       44.335       34.745       35.248     1965.573     1207.194     1242.423        0.493        0.221       73.555       26.593        0.131      334.128        3.896      870.991
11/23/2014  10:19:00       28.348       60.065        8.527       42.683       32.577       29.501     1821.857     1061.242      870.291        0.412        0.188       66.418       21.915        0.109      334.452        4.435      870.971
11/23/2014  10:20:00       37.233       65.101       -3.060       43.702       33.769       30.740     1909.879     1140.345      944.954        0.481        0.200       74.996       18.724        0.062      334.493        4.502      870.959
11/23/2014  10:21:00      176.616      101.148        9.660       56.471       29.432       31.760     3188.977      866.219     1008.697        2.329        0.253      203.529       18.670        0.008      334.095        3.839      870.954
11/23/2014  10:22:00      149.986      123.666       20.614       56.196       49.185       46.774     3157.951     2419.128     2187.813        2.299        0.388      194.394       27.181        0.020      334.130        3.898      870.946
11/23/2014  10:23:00      114.422       81.490       26.123       57.321       56.403       45.138     3285.668     3181.268     2037.435        1.446        0.425      140.474       17.428        0.015      334.188        3.995      870.935
11/23/2014  10:24:00       72.102       48.271       32.194       52.475       38.956       39.713     2753.586     1517.595     1577.144        0.721        0.292       86.769       27.245        0.099      334.541        4.582      870.918
11/23/2014  10:25:00       28.550       15.415       47.652       42.327       53.212       43.365     1791.570     2831.503     1880.501        0.491        0.325       32.446       31.025        0.914      334.951        5.263      870.903
11/23/2014  10:26:00       30.470      -32.204        4.570       43.359       80.240       43.540     1880.017     6438.536     1895.735        0.610        0.511       44.335       34.503        0.606      334.778        4.976      870.869
11/23/2014  10:27:00       58.599      -55.495       22.767       52.389       73.359       48.316     2744.564     5381.489     2334.441        0.874        0.523       80.707       53.176        0.434      334.671        4.797      870.834
11/23/2014  10:28:00       77.127      -77.885        6.225       49.510       74.292       53.965     2451.205     5519.320     2912.196        1.147        0.544      109.611       54.686        0.249      334.513        4.535      870.813
11/23/2014  10:29:00       72.892      -89.879       -3.810       50.011       66.287       38.810     2501.148     4393.945     1506.249        1.090        0.420      115.722       39.942        0.119      334.430        4.398      870.805
11/23/2014  10:30:00       59.789     -115.356      -23.296       24.786       31.102       23.561      614.328      967.305      555.111        0.978        0.107      129.930        8.238        0.004      334.092        3.839      870.807
11/23/2014  10:31:00       69.042      -94.743      -18.625       43.887       44.060       28.030     1926.041     1941.313      785.697        0.937        0.233      117.231       19.268        0.027      334.322        4.217      870.802
11/23/2014  10:32:00      -63.585      -42.815        5.081       62.165       39.850       27.184     3864.510     1588.012      738.946        0.605        0.310       76.656       25.637        0.112      334.466        4.457      870.806
11/23/2014  10:33:00      -24.259       20.919       31.221       59.466       34.771       31.139     3536.180     1209.016      969.659        0.386        0.286       32.033       34.048        1.130      334.673        4.801      870.821
11/23/2014  10:34:00        6.066       33.951       69.558       25.660       38.562       23.277      658.425     1487.040      541.820        0.436        0.134       34.489       16.893        0.240      334.906        5.187      870.811
11/23/2014  10:35:00       39.539       75.693       75.640       70.629       63.558       41.923     4988.480     4039.561     1757.497        1.190        0.539       85.397       23.737        0.077      334.771        4.963      870.784
11/23/2014  10:36:00       85.286      107.485       75.994       56.061       43.722       47.189     3142.780     1911.643     2226.823        1.594        0.364      137.211       34.583        0.064      334.528        4.559      870.789
11/23/2014  10:37:00       21.322       62.730       64.098       36.610       32.235       31.397     1340.283     1039.072      985.751        0.593        0.168       66.255       19.800        0.089      334.626        4.723      870.784
11/23/2014  10:38:00      104.055       97.968      102.926       88.423       53.312       45.074     7818.699     2842.210     2031.678        2.185        0.635      142.917       43.731        0.094      334.512        4.531      870.765
11/23/2014  10:39:00      127.823       55.541       78.916       77.788       60.816       48.955     6051.010     3698.585     2396.568        1.890        0.607      139.369       39.317        0.080      334.366        4.290      870.750
11/23/2014  10:40:00       59.893       69.607       88.988       75.178       51.890       39.656     5651.783     2692.568     1572.589        1.313        0.496       91.828       44.415        0.234      334.455        4.437      870.743
11/23/2014  10:41:00       -5.109       14.346       64.645       25.654       63.573       41.407      658.105     4041.586     1714.503        0.541        0.321       15.229       36.723        5.815      334.896        5.171      870.734
11/23/2014  10:42:00      116.155       56.772       46.106       95.267       84.884       39.430     9075.771     7205.258     1554.747        1.833        0.892      129.286       27.576        0.045      334.529        4.560      870.737
11/23/2014  10:43:00      114.348       96.336       24.834       38.500       38.879       36.593     1482.272     1511.597     1339.031        1.365        0.217      149.519       17.184        0.013      334.457        4.443      870.739
11/23/2014  10:44:00       84.979       77.122       15.758       35.384       29.887       34.745     1252.016      893.216     1207.208        0.838        0.168      114.757       19.747        0.030      334.442        4.418      870.727
11/23/2014  10:45:00       26.098       -7.980       52.745       44.004       63.686       36.170     1936.313     4055.881     1308.267        0.541        0.365       27.291       33.289        1.488      334.847        5.092      870.700
11/23/2014  10:46:00       14.468       11.324       22.423       29.786       31.250       20.265      887.235      976.536      410.686        0.156        0.114       18.373        5.310        0.084      334.906        5.187      870.702
11/23/2014  10:47:00      137.753       75.641       17.888       92.169       54.671       45.636     8495.117     2988.893     2082.668        1.929        0.678      157.154       38.788        0.061      334.625        4.718      870.692
11/23/2014  10:48:00      159.596       89.114        3.609       88.424       61.599       45.647     7818.765     3794.410     2083.636        2.356        0.685      182.790       25.132        0.019      334.439        4.408      870.702
11/23/2014  10:49:00      190.536      103.653       13.434       53.172       54.854       51.678     2827.285     3008.974     2670.646        2.787        0.425      216.905       25.074        0.013      334.517        4.537      870.714
11/23/2014  10:50:00      130.585       99.639       24.334       51.280       47.299       44.792     2629.634     2237.228     2006.284        1.722        0.344      164.257       21.194        0.017      334.606        4.689      870.718
11/23/2014  10:51:00       33.946       18.566       41.710       53.352       60.556       39.282     2846.486     3667.068     1543.104        0.565        0.403       38.691       19.961        0.266      334.954        5.268      870.709
11/23/2014  10:52:00       35.822       50.336       90.661       45.934       76.594       43.694     2109.940     5866.690     1909.180        1.096        0.494       61.782       48.274        0.611      334.766        4.956      870.700
11/23/2014  10:53:00        2.319       57.957       84.643       41.594       89.946       62.861     1730.100     8090.328     3951.476        1.215        0.689       58.004       67.723        1.363      334.851        5.096      870.676
11/23/2014  10:54:00       -0.109       37.538       71.491       25.495       41.582       21.620      650.003     1729.058      467.407        0.468        0.142       37.538       21.275        0.321      335.018        5.374      870.650
11/23/2014  10:55:00       96.415      104.026      101.414       70.932       61.991       49.776     5031.375     3842.932     2477.678        2.087        0.568      141.835       42.743        0.091      334.630        4.727      870.622
11/23/2014  10:56:00       28.718       85.009      112.773       61.427       73.222       46.534     3773.309     5361.473     2165.416        1.603        0.565       89.728       45.267        0.255      334.760        4.944      870.584
11/23/2014  10:57:00       65.942       52.493       53.572       55.403       72.348       49.025     3069.515     5234.277     2403.424        1.034        0.535       84.285       39.155        0.216      334.776        4.971      870.562
11/23/2014  10:58:00       63.754       67.630       86.668       62.214       43.659       42.688     3870.537     1906.122     1822.243        1.187        0.380       92.943       36.817        0.157      334.675        4.803      870.555
11/23/2014  10:59:00       93.876       57.948       46.647       55.975       39.158       53.579     3133.198     1533.364     2870.702        1.094        0.377      110.320       43.732        0.157      334.567        4.627      870.533
11/23/2014  11:00:00       56.760       52.455       62.898       58.898       57.141       46.785     3468.990     3265.064     2188.816        0.942        0.446       77.287       43.929        0.323      334.702        4.848      870.502
11/23/2014  11:01:00       -5.725       36.960       61.701       24.959       42.768       37.548      622.954     1829.062     1409.817        0.453        0.193       37.401       26.909        0.518      334.964        5.284      870.503
11/23/2014  11:02:00       21.479       -0.520       25.444       30.889       34.590       24.458      954.149     1196.439      598.179        0.193        0.137       21.485       12.284        0.327      335.001        5.345      870.511
11/23/2014  11:03:00       49.027      -36.747       28.305       60.335       86.239       41.036     3640.317     7437.083     1683.929        0.866        0.638       61.270       41.796        0.465      334.924        5.216      870.529
11/23/2014  11:04:00       76.709      -60.741       11.424       47.282       59.536       50.462     2235.570     3544.555     2546.395        0.901        0.416       97.845       41.721        0.182      334.809        5.027      870.548
11/23/2014  11:05:00       50.700        1.774       64.108       63.456       76.633       54.594     4026.641     5872.554     2980.505        0.978        0.644       50.731       53.139        1.097      334.925        5.219      870.544
11/23/2014  11:06:00       66.199      -24.810       46.008       66.266       66.971       48.059     4391.126     4485.052     2309.705        0.915        0.559       70.696       44.448        0.395      334.873        5.133      870.547
11/23/2014  11:07:00       85.005      -72.289       17.662       39.942       59.823       38.720     1595.335     3578.804     1499.221        0.972        0.334      111.587       28.880        0.067      334.866        5.121      870.529
11/23/2014  11:08:00       80.913       21.786       37.382       66.555       62.617       39.171     4429.577     3920.831     1534.385        0.915        0.494       83.794       32.750        0.153      334.691        4.830      870.484
11/23/2014  11:09:00       88.116       74.202       62.355       56.852       42.422       48.056     3232.100     1799.661     2309.421        1.225        0.367      115.197       41.554        0.130      334.512        4.534      870.450
11/23/2014  11:10:00       74.603      130.266      115.676       67.652       66.459       75.006     4576.804     4416.806     5625.960        2.526        0.731      150.116       60.086        0.160      334.585        4.652      870.419
11/23/2014  11:11:00      108.622      124.187      115.601       56.724       59.497       47.560     3217.615     3539.844     2261.930        2.480        0.451      164.988       37.314        0.051      334.554        4.601      870.408
11/23/2014  11:12:00       94.415       33.897       48.956       48.556       32.985       34.487     2357.655     1087.982     1189.380        0.855        0.232      100.315       22.297        0.049      334.569        4.629      870.432
11/23/2014  11:13:00      110.046       78.806       34.513       52.883       40.447       42.754     2796.620     1635.984     1827.945        1.288        0.313      135.353       18.688        0.019      334.636        4.738      870.418
11/23/2014  11:14:00      104.432       94.171       55.523       87.033       45.895       51.630     7574.766     2106.321     2665.655        1.760        0.617      140.620       51.016        0.132      334.739        4.909      870.383
11/23/2014  11:15:00       57.935       77.888       66.294       84.947       44.571       46.487     7216.056     1986.534     2161.011        1.259        0.568       97.073       50.749        0.273      334.768        4.957      870.334
11/23/2014  11:16:00       50.500       43.047       17.732       46.277       37.770       24.495     2141.526     1426.590      600.022        0.444        0.208       66.357       16.694        0.063      334.827        5.056      870.296
11/23/2014  11:17:00       10.089      -38.821        9.893       44.215       55.118       41.174     1955.007     3037.960     1695.295        0.420        0.334       40.110       39.807        0.985      334.952        5.265      870.281
11/23/2014  11:18:00       31.048      -27.752       17.330       42.835       40.841       40.073     1834.859     1668.020     1605.870        0.357        0.255       41.643       23.846        0.328      334.844        5.083      870.275
11/23/2014  11:19:00       13.960       17.183       -1.516       33.254       34.250       23.959     1105.819     1173.086      574.048        0.167        0.143       22.139       14.318        0.418      334.791        4.997      870.267
11/23/2014  11:20:00        3.083       -4.507       13.190       16.952       18.193       18.805      287.355      330.973      353.623        0.059        0.049        5.461        4.049        0.550      335.242        5.746      870.252
11/23/2014  11:21:00        7.179      -20.338       16.305       17.682       35.253       16.423      312.654     1242.750      269.725        0.128        0.091       21.568        8.553        0.157      335.097        5.505      870.216
11/23/2014  11:22:00       13.492      -65.698       -2.114       42.774       86.121       34.755     1829.647     7416.770     1207.935        0.748        0.523       67.069       47.949        0.511      335.124        5.550      870.178
11/23/2014  11:23:00       38.613       -1.016       64.056       52.901      109.596       55.170     2798.547    12011.181     3043.679        1.172        0.893       38.626       71.148        3.393      334.998        5.340      870.159
11/23/2014  11:24:00       50.821        1.433       45.692       45.820       62.603       45.991     2099.483     3919.195     2115.175        0.640        0.407       50.841       41.037        0.652      334.911        5.196      870.171
11/23/2014  11:25:00       58.156       20.077       20.782       44.866       23.404       30.683     2012.985      547.741      941.458        0.386        0.175       61.524       20.970        0.116      334.760        4.946      870.167
11/23/2014  11:26:00       45.124       25.538       10.567       33.073       20.192       16.311     1093.825      407.712      266.060        0.228        0.088       51.849       15.898        0.094      334.835        5.070      870.141
11/23/2014  11:27:00        1.749       10.488       43.313       22.319       42.322       26.166      498.131     1791.160      684.671        0.248        0.149       10.633       28.880        7.378      335.219        5.709      870.117
11/23/2014  11:28:00      103.672       83.791       49.867       42.965       30.663       31.992     1846.005      940.219     1023.480        1.203        0.190      133.300       21.117        0.025      334.660        4.779      870.082
11/23/2014  11:29:00       49.214       60.280       58.800       59.500       61.202       41.310     3540.229     3745.731     1706.539        0.925        0.450       77.818       36.564        0.221      335.009        5.358      870.027
11/23/2014  11:30:00       50.711      -25.019       33.459       46.573       50.878       41.851     2169.079     2588.562     1751.466        0.541        0.325       56.547       35.368        0.391      335.095        5.502      869.989
11/23/2014  11:31:00       31.194       40.720       53.651       53.670       47.444       49.291     2880.425     2250.946     2429.610        0.653        0.378       51.295       43.557        0.721      335.221        5.710      869.963
11/23/2014  11:32:00       -1.742       41.950       58.941       16.467       32.449       18.570      271.152     1052.905      344.854        0.345        0.083       41.986        9.012        0.046      335.274        5.799      869.962
11/23/2014  11:33:00       12.749      -76.949       -3.310       36.239       55.305       26.280     1313.245     3058.641      690.626        0.558        0.253       77.998       30.821        0.156      335.246        5.752      869.961
11/23/2014  11:34:00       85.986     -111.619       -5.199       34.011       56.613       35.527     1156.771     3205.057     1262.139        1.275        0.281      140.898        8.144        0.003      335.157        5.604      869.962
11/23/2014  11:35:00       31.392       29.484       23.435       32.111       24.374       24.531     1031.113      594.078      601.760        0.231        0.111       43.067        5.364        0.016      335.151        5.595      869.955
11/23/2014  11:36:00       23.906       40.958       38.774       40.876       31.944       22.145     1670.872     1020.400      490.414        0.347        0.159       47.425       12.042        0.064      335.359        5.939      869.941
11/23/2014  11:37:00       56.704       32.233       35.144       43.608       42.066       36.575     1901.690     1769.550     1337.705        0.525        0.250       65.226       23.603        0.131      335.140        5.576      869.935
11/23/2014  11:38:00      114.767       70.310       34.379       45.164       47.802       42.630     2039.751     2285.018     1817.303        1.272        0.307      134.592       31.645        0.055      335.046        5.419      869.923
11/23/2014  11:39:00       80.413       37.028       20.020       53.180       42.701       31.597     2828.141     1823.378      998.351        0.694        0.282       88.529       33.127        0.140      335.017        5.371      869.894
11/23/2014  11:40:00       75.655       47.545       19.248       40.699       26.535       35.362     1656.435      704.122     1250.503        0.598        0.181       89.355       19.543        0.048      334.875        5.137      869.851
11/23/2014  11:41:00       31.357       17.422       21.835       27.640       60.246       31.113      763.989     3629.583      967.997        0.356        0.268       35.872       35.066        0.956      335.129        5.558      869.809
11/23/2014  11:42:00       28.782       -1.085       32.784       39.542       37.380       42.670     1563.597     1397.241     1820.709        0.334        0.239       28.802       24.687        0.735      335.377        5.970      869.776
11/23/2014  11:43:00       88.718      -86.790      -19.839       61.418       71.184       45.889     3772.177     5067.107     2105.846        1.337        0.547      124.110       52.214        0.177      335.060        5.442      869.751
11/23/2014  11:44:00       39.067     -104.884      -10.065       48.566       67.802       37.434     2358.665     4597.074     1401.328        1.049        0.418      111.923       33.213        0.088      334.957        5.271      869.745
11/23/2014  11:45:00        0.807       24.242       68.240       21.342       44.496       31.513      455.480     1979.893      993.039        0.434        0.171       24.255       33.061        1.858      335.341        5.910      869.740
11/23/2014  11:46:00       68.595       67.749       35.778       36.352       33.531       35.191     1321.459     1124.304     1238.415        0.713        0.184       96.412       25.239        0.069      334.899        5.175      869.743
11/23/2014  11:47:00       82.489       60.904       23.842       43.697       34.277       35.578     1909.384     1174.915     1265.765        0.772        0.218      102.536       16.834        0.027      335.019        5.375      869.719
11/23/2014  11:48:00       45.037       46.171       66.207       30.659       37.287       27.744      939.971     1390.322      769.704        0.582        0.155       64.499       20.229        0.098      335.217        5.704      869.687
11/23/2014  11:49:00        2.161      -33.793       20.500       33.718       57.177       32.849     1136.925     3269.200     1079.036        0.352        0.274       33.862       33.802        0.996      335.445        6.083      869.645
11/23/2014  11:50:00       23.236      -46.757       23.816       46.051       62.359       45.632     2120.669     3888.697     2082.252        0.569        0.405       52.212       39.680        0.578      335.337        5.902      869.618
11/23/2014  11:51:00       70.518     -125.519      -20.368       35.969       35.935       27.324     1293.791     1291.333      746.583        1.224        0.167      143.972       20.422        0.020      334.942        5.247      869.615
11/23/2014  11:52:00       91.420     -162.532      -11.665       36.250       33.674       31.438     1314.056     1133.919      988.320        1.917        0.172      186.478       17.276        0.009      335.160        5.608      869.598
11/23/2014  11:53:00       57.408      -47.104       33.955       74.824       87.856       71.541     5598.586     7718.632     5118.173        1.255        0.922       74.259       67.521        0.827      335.290        5.827      869.570
11/23/2014  11:54:00       81.942      -78.781        4.775       60.619       80.478       47.404     3674.679     6476.726     2247.139        1.267        0.620      113.670       54.771        0.232      334.982        5.313      869.558
11/23/2014  11:55:00       31.792      -59.334       22.116       40.510       46.087       28.787     1641.045     2124.027      828.683        0.481        0.230       67.315       26.810        0.159      335.340        5.909      869.537
11/23/2014  11:56:00       10.442       23.095       62.506       31.077       33.335       19.455      965.749     1111.236      378.514        0.350        0.123       25.346       16.792        0.439      335.417        6.035      869.532
11/23/2014  11:57:00       -2.470       10.740       61.787       31.993       71.057       40.689     1023.532     5049.075     1655.622        0.583        0.386       11.021       48.756       19.573      335.432        6.062      869.530
11/23/2014  11:58:00       28.257       68.577       86.932       59.602       53.413       53.429     3552.396     2852.988     2854.661        1.116        0.463       74.170       49.255        0.441      335.326        5.885      869.524
11/23/2014  11:59:00       58.347      -32.561        5.485       63.645       66.223       51.168     4050.694     4385.444     2618.202        0.777        0.553       66.818       58.556        0.768      335.289        5.823      869.519
11/23/2014  12:00:00       23.381       20.121       43.975       30.734       29.835       32.955      944.578      890.127     1086.000        0.290        0.146       30.847       24.105        0.611      335.233        5.731      869.526
11/23/2014  12:01:00       23.126        7.115       20.899       28.058       20.348       26.655      787.253      414.033      710.503        0.147        0.096       24.195       20.454        0.715      335.141        5.577      869.536
11/23/2014  12:02:00       -2.232        9.717        1.449        8.715       10.026        9.777       75.955      100.528       95.581        0.019        0.014        9.970        5.153        0.267      335.170        5.625      869.544
11/23/2014  12:03:00      -48.025      -17.338       14.520       29.517       25.971       25.574      871.261      674.479      654.050        0.251        0.110       51.059       21.035        0.170      334.984        5.318      869.542
11/23/2014  12:04:00      -85.686      -22.195      -15.579       25.805       22.575       19.884      665.922      509.627      395.367        0.482        0.079       88.514        7.829        0.008      334.918        5.209      869.532
11/23/2014  12:05:00      -47.873       -1.548       -6.518       25.431       18.663       15.277      646.723      348.324      233.388        0.178        0.061       47.898       14.815        0.096      335.121        5.545      869.503
11/23/2014  12:06:00       -5.137       19.380       43.681       20.921       28.723       27.076      437.671      825.010      733.129        0.215        0.100       20.050       19.779        0.973      335.762        6.613      869.454
11/23/2014  12:07:00       43.718       44.956       20.818       42.454       31.430       25.536     1802.314      987.868      652.069        0.390        0.172       62.709       10.936        0.030      335.284        5.816      869.383
11/23/2014  12:08:00       72.730       70.611       64.732       58.604       38.885       43.809     3434.478     1512.027     1919.266        1.066        0.343      101.368       27.871        0.076      335.402        6.012      869.317
11/23/2014  12:09:00       68.559       59.511       18.317       52.632       38.259       29.943     2770.101     1463.755      896.587        0.685        0.257       90.785       20.050        0.049      335.097        5.504      869.278
11/23/2014  12:10:00       59.243       48.043        9.374       47.945       38.609       23.028     2298.679     1490.664      530.308        0.511        0.216       76.275        6.826        0.008      335.125        5.552      869.231
11/23/2014  12:11:00      101.240      -51.070        7.417       50.679       37.098       26.604     2568.366     1376.251      707.772        0.878        0.233      113.392       27.251        0.058      335.115        5.534      869.203
11/23/2014  12:12:00       48.145       58.355       63.604       60.892       47.251       34.248     3707.835     2232.655     1172.944        0.844        0.356       75.652       31.228        0.170      335.425        6.051      869.163
11/23/2014  12:13:00       60.992      -36.061       32.783       57.424       69.080       48.661     3297.551     4771.987     2367.849        0.826        0.522       70.855       48.107        0.461      335.441        6.078      869.137
11/23/2014  12:14:00       13.762      -25.006       55.851       38.569       77.524       48.995     1487.591     6009.998     2400.501        0.691        0.495       28.543       52.102        3.332      335.448        6.089      869.129
11/23/2014  12:15:00       63.390     -102.881       -9.957       43.567       42.101       32.126     1898.068     1772.499     1032.051        0.970        0.235      120.842       25.263        0.044      335.365        5.950      869.138
11/23/2014  12:16:00       20.053       -3.399        9.990       35.688       30.348       33.492     1273.624      921.005     1121.725        0.191        0.166       20.339       28.025        1.899      335.707        6.519      869.143
11/23/2014  12:17:00        5.793       49.447       49.170       16.837       22.528       26.038      283.485      507.528      677.962        0.318        0.073       49.785       13.463        0.073      335.408        6.022      869.141
11/23/2014  12:18:00      -42.324       -1.095       -7.939       42.425       26.519       13.653     1799.873      703.246      186.410        0.227        0.134       42.338       14.662        0.120      335.174        5.632      869.127
11/23/2014  12:19:00      -18.139      -17.882       17.862       58.201       21.848       18.794     3387.309      477.331      353.220        0.259        0.211       25.471       23.374        0.842      335.468        6.122      869.109
11/23/2014  12:20:00        8.038       -5.533       19.309       33.055       22.299       20.962     1092.607      497.249      439.414        0.125        0.101        9.758       22.878        5.497      335.561        6.277      869.088
11/23/2014  12:21:00       -0.597       -5.281       17.022       20.476       22.315       15.280      419.267      497.962      233.484        0.073        0.058        5.315       10.358        3.798      335.812        6.695      869.068
11/23/2014  12:22:00      -20.021      -28.622       10.862       28.634       24.359       17.894      819.919      593.370      320.209        0.154        0.087       34.930       18.015        0.266      335.714        6.532      869.047
11/23/2014  12:23:00       -2.974       23.138       44.188       13.972       33.259       24.996      195.213     1106.137      624.787        0.221        0.096       23.328       23.124        0.983      335.576        6.301      869.049
11/23/2014  12:24:00       -0.231        6.136       25.223       16.177       12.658       19.175      261.684      160.223      367.694        0.073        0.039        6.141        8.627        1.974      335.770        6.625      869.038
11/23/2014  12:25:00       -6.695       32.711        7.381       33.743       25.356       24.912     1138.614      642.946      620.628        0.179        0.120       33.389       16.396        0.241      335.644        6.416      869.031
11/23/2014  12:26:00       43.794       20.264       21.911       46.134       26.904       33.054     2128.383      723.838     1092.543        0.338        0.197       48.255       28.412        0.347      335.476        6.135      869.005
11/23/2014  12:27:00       41.094       40.480       41.024       53.647       34.319       39.091     2878.007     1177.765     1528.077        0.530        0.279       57.683       34.212        0.352      335.552        6.261      868.953
11/23/2014  12:28:00       68.971      -27.791       42.954       50.851       57.123       47.712     2585.786     3263.006     2276.478        0.775        0.406       74.359       47.415        0.407      335.536        6.235      868.904
11/23/2014  12:29:00      110.998      -80.259       13.532       70.060      101.393       60.002     4908.345    10280.634     3600.299        1.886        0.939      136.975       68.169        0.248      335.420        6.041      868.855
11/23/2014  12:30:00      105.486      -66.275       10.909       51.219       55.287       39.380     2623.365     3056.622     1550.762        1.143        0.362      124.578       39.469        0.100      335.326        5.886      868.859
11/23/2014  12:31:00       66.148       33.331       43.619       52.187       44.614       34.510     2723.525     1990.392     1190.920        0.665        0.295       74.071       32.853        0.197      335.301        5.843      868.859
11/23/2014  12:32:00       80.069       62.067       46.748       32.282       35.113       28.473     1042.144     1232.892      810.719        0.777        0.154      101.308       12.457        0.015      335.315        5.866      868.866
11/23/2014  12:33:00       39.596       24.415       26.035       23.011       31.460       24.583      529.484      989.752      604.336        0.248        0.106       46.518       12.267        0.070      335.469        6.123      868.871
11/23/2014  12:34:00       61.974       50.804       22.545       55.317       37.258       28.929     3059.996     1388.186      836.887        0.611        0.264       80.136       10.095        0.016      335.384        5.979      868.857
11/23/2014  12:35:00       71.935      103.486        0.308       39.382       46.784       32.544     1550.945     2188.765     1059.129        1.034        0.240      126.031       26.938        0.046      335.240        5.743      868.816
11/23/2014  12:36:00       12.836      113.385       -7.230       24.580       40.645       20.204      604.153     1652.025      408.191        0.787        0.133      114.109       12.458        0.012      335.240        5.742      868.761
11/23/2014  12:37:00       21.917       86.197       18.841       38.963       54.896       53.941     1518.089     3013.518     2909.636        0.785        0.372       88.940       35.037        0.155      335.415        6.034      868.724
11/23/2014  12:38:00       76.669       77.565       65.855       41.293       38.296       50.471     1705.078     1466.547     2547.300        1.097        0.286      109.062       37.214        0.116      335.179        5.642      868.717
11/23/2014  12:39:00       47.123       89.320       82.666       41.674       47.866       39.418     1736.745     2291.167     1553.784        1.131        0.279      100.988       34.597        0.117      335.292        5.828      868.724
11/23/2014  12:40:00       72.624       78.429       55.478       34.778       33.996       34.700     1209.543     1155.739     1204.123        0.904        0.178      106.889       28.056        0.069      335.265        5.782      868.754
11/23/2014  12:41:00       52.187       30.667       34.991       46.114       26.236       27.039     2126.509      688.317      731.084        0.422        0.177       60.531       19.740        0.106      335.364        5.949      868.781
11/23/2014  12:42:00       35.374       62.876       64.019       43.956       27.758       21.165     1932.099      770.489      447.949        0.623        0.158       72.144       26.387        0.134      335.331        5.893      868.795
11/23/2014  12:43:00       50.367        7.603       44.467       43.647       32.653       31.809     1905.026     1066.211     1011.836        0.428        0.199       50.938       31.853        0.391      335.435        6.066      868.795
11/23/2014  12:44:00       -8.152       56.670       73.636       17.372       37.289       21.961      301.799     1390.475      482.264        0.544        0.109       57.254       19.192        0.112      335.660        6.443      868.770
11/23/2014  12:45:00       58.562       78.947       43.203       45.090       33.662       32.341     2033.141     1133.113     1045.959        0.787        0.211       98.296       23.835        0.059      335.536        6.236      868.721
11/23/2014  12:46:00       79.011        8.722       16.678       60.719       38.208       37.179     3686.792     1459.868     1382.299        0.656        0.326       79.491       22.106        0.077      335.513        6.196      868.706
11/23/2014  12:47:00       98.952       79.326       25.471       62.052       34.024       37.644     3850.497     1157.636     1417.089        1.158        0.321      126.823       41.488        0.107      335.443        6.081      868.712
11/23/2014  12:48:00       50.053       20.523       56.818       64.753       76.242       48.827     4192.932     5812.898     2384.122        0.927        0.619       54.097       51.669        0.912      335.547        6.255      868.735
11/23/2014  12:49:00       81.501       60.168       45.391       38.301       30.053       29.421     1466.991      903.158      865.583        0.778        0.162      101.305       12.157        0.014      335.435        6.067      868.736
11/23/2014  12:50:00       48.218       54.816       32.095       41.614       32.181       28.578     1731.763     1035.620      816.708        0.497        0.179       73.005       15.476        0.045      335.628        6.388      868.719
11/23/2014  12:51:00      123.978       98.781       12.344       34.567       26.211       33.144     1194.877      687.001     1098.541        1.413        0.149      158.519       17.430        0.012      335.345        5.915      868.681
11/23/2014  12:52:00       50.305       70.517       75.376       78.418       50.649       49.343     6149.309     2565.288     2434.727        1.216        0.557       86.621       49.508        0.327      335.764        6.614      868.631
11/23/2014  12:53:00       40.557      110.064      105.229       45.173       39.636       41.738     2040.625     1570.973     1742.022        1.509        0.268      117.299       34.856        0.088      335.475        6.132      868.598
11/23/2014  12:54:00        1.955       59.651       76.919       20.058       49.496       29.896      402.304     2449.889      893.786        0.661        0.187       59.683       34.990        0.344      335.576        6.302      868.602
11/23/2014  12:55:00       -8.120        1.251       28.948       11.952       13.537        8.552      142.850      183.257       73.141        0.065        0.020        8.216        3.888        0.224      335.898        6.837      868.616
11/23/2014  12:56:00       -5.589       -0.028       12.281       23.513       11.314       13.813      552.848      128.014      190.787        0.053        0.044        5.589       15.174        7.371      335.792        6.662      868.638
11/23/2014  12:57:00       16.564       27.376       28.950       13.255       12.374       14.621      175.682      153.105      213.781        0.120        0.027       31.996        7.177        0.050      335.575        6.299      868.663
11/23/2014  12:58:00       42.437       83.760       10.627       30.118       42.817       31.167      907.097     1833.253      971.402        0.632        0.186       93.897       22.352        0.057      335.421        6.043      868.663
11/23/2014  12:59:00      -19.821       27.022       -5.700       19.723       25.159       20.541      388.995      632.962      421.945        0.130        0.072       33.512       15.181        0.205      335.453        6.096      868.639
11/23/2014  13:00:00       -4.202       22.191       19.649       17.626       19.720       21.433      310.689      388.862      459.355        0.103        0.058       22.585       16.685        0.546      335.832        6.728      868.612
11/23/2014  13:01:00       13.015      -76.837        5.713       44.144       50.311       27.417     1948.718     2531.170      751.717        0.567        0.262       77.931       12.017        0.024      335.750        6.591      868.612
11/23/2014  13:02:00      -11.678        4.739       34.957       19.475       36.844       27.266      379.257     1357.486      743.409        0.193        0.124       12.603       27.467        4.750      335.829        6.724      868.645
11/23/2014  13:03:00      -12.639       11.282       22.931       21.530       43.826       22.690      463.531     1920.732      514.850        0.186        0.145       16.942       22.828        1.815      335.808        6.689      868.703
11/23/2014  13:04:00      -51.360      -92.118        0.617       34.272       78.915       27.326     1174.597     6227.551      746.718        0.963        0.407      105.469       32.939        0.098      335.558        6.273      868.756
11/23/2014  13:05:00      -96.856      -99.575       -8.664       48.183       34.611       22.612     2321.606     1197.952      511.282        1.170        0.202      138.911       19.160        0.019      335.451        6.095      868.786
11/23/2014  13:06:00      -41.485      -11.549       -0.001       40.265       32.208       26.491     1621.262     1037.359      701.779        0.261        0.168       43.063       27.478        0.407      335.678        6.470      868.774
11/23/2014  13:07:00       -0.593        6.015       22.871        8.848       10.869        7.685       78.284      118.136       59.063        0.041        0.013        6.044        4.448        0.542      336.121        7.209      868.729
11/23/2014  13:08:00      -36.582      -37.906       -4.227       28.882       18.728       17.464      834.170      350.736      304.976        0.214        0.074       52.679       14.445        0.075      335.815        6.700      868.678
11/23/2014  13:09:00       -3.424      -49.019      -10.751       37.807       29.264       24.556     1429.405      856.360      602.977        0.271        0.144       49.139       16.619        0.114      335.912        6.861      868.662
11/23/2014  13:10:00      -56.185      -92.701       -9.153       23.736       14.432       19.096      563.396      208.274      364.644        0.648        0.057      108.399       11.229        0.011      335.457        6.102      868.686
11/23/2014  13:11:00      -63.798      -65.933      -11.365       23.107       16.846       15.909      533.948      283.803      253.103        0.481        0.054       91.746        9.603        0.011      335.459        6.105      868.706
11/23/2014  13:12:00        6.216      -45.851       14.042       30.278       31.616       21.031      916.770      999.571      442.298        0.235        0.118       46.271       22.692        0.241      335.623        6.381      868.693
11/23/2014  13:13:00      -47.598      -65.369        3.837       58.426       30.516       23.297     3413.581      931.245      542.753        0.572        0.244       80.862       27.310        0.114      335.587        6.321      868.635
11/23/2014  13:14:00     -105.905      -45.986       -5.486       38.085       24.779       21.396     1450.451      613.986      457.780        0.794        0.126      115.458       17.420        0.023      335.569        6.290      868.586
11/23/2014  13:15:00      -66.941      -14.974      -10.506       34.556       16.697       11.272     1194.139      278.790      127.060        0.321        0.080       68.595       10.535        0.024      335.544        6.248      868.551
11/23/2014  13:16:00        7.763        8.750       15.129       24.993       23.339       18.758      624.640      544.704      351.870        0.094        0.076       11.697       16.636        2.023      336.025        7.050      868.518
11/23/2014  13:17:00      114.711       88.284       20.836       41.220       38.914       29.459     1699.080     1514.307      867.823        1.273        0.204      144.750       21.385        0.022      335.707        6.521      868.498
11/23/2014  13:18:00       39.693       38.612       -0.700       35.602       37.589       25.649     1267.481     1412.964      657.858        0.320        0.167       55.375       19.323        0.122      335.856        6.769      868.493
11/23/2014  13:19:00       63.237       45.292       -1.872       51.846       53.027       32.519     2687.985     2811.821     1057.491        0.630        0.328       77.784       25.389        0.107      335.725        6.550      868.489
11/23/2014  13:20:00      137.864       78.720       22.369       81.339       59.990       38.740     6616.083     3598.776     1500.821        1.871        0.586      158.755        7.254        0.002      335.714        6.529      868.455
11/23/2014  13:21:00      147.382      103.556       23.780       59.853       42.012       44.472     3582.371     1765.019     1977.768        2.017        0.366      180.126       38.065        0.045      335.579        6.305      868.421
11/23/2014  13:22:00      102.375       81.430       50.766       51.290       36.746       46.149     2630.653     1350.243     2129.700        1.290        0.306      130.811       35.350        0.073      335.634        6.398      868.396
11/23/2014  13:23:00       32.298       52.409       -4.511       35.302       17.361       17.803     1246.225      301.404      316.945        0.284        0.093       61.562        8.677        0.020      335.466        6.117      868.395
11/23/2014  13:24:00       52.864       36.882       42.680       27.007       33.377       24.103      729.357     1114.038      580.931        0.420        0.121       64.459       13.737        0.045      335.707        6.519      868.387
11/23/2014  13:25:00       48.256       -3.965       36.266       26.137       42.913       35.712      683.149     1841.559     1275.357        0.373        0.190       48.419       33.885        0.490      335.661        6.442      868.376
11/23/2014  13:26:00       50.352       47.122       27.645       31.111       13.510       19.225      967.898      182.527      369.586        0.352        0.076       68.963       10.481        0.023      335.591        6.327      868.354
11/23/2014  13:27:00       85.940       42.646       28.388       39.357       57.182       28.848     1548.994     3269.815      832.184        0.783        0.283       95.939       27.229        0.081      335.742        6.578      868.321
11/23/2014  13:28:00       51.183       22.101       30.234       41.061       41.909       31.069     1685.969     1756.331      965.279        0.421        0.220       55.751       27.063        0.236      335.790        6.658      868.287
11/23/2014  13:29:00       72.879        3.735       37.646       46.818       35.879       33.529     2191.947     1287.301     1124.226        0.567        0.230       72.975       34.075        0.218      335.853        6.763      868.261
11/23/2014  13:30:00       31.088       27.591       14.163       33.551       48.904       33.820     1125.677     2391.627     1143.799        0.329        0.233       41.566       31.025        0.557      335.951        6.926      868.245
11/23/2014  13:31:00        4.849       15.953        2.167       37.012       19.174       24.195     1369.901      367.646      585.413        0.130        0.116       16.673       15.912        0.911      336.042        7.079      868.233
11/23/2014  13:32:00       26.926       -9.883       22.218       53.594       37.904       22.835     2872.349     1436.696      521.416        0.307        0.242       28.682       21.698        0.572      336.025        7.050      868.239
11/23/2014  13:33:00       52.124      -45.008        1.512       30.538       39.182       26.332      932.581     1535.223      693.397        0.395        0.158       68.866       24.253        0.124      336.113        7.198      868.267
11/23/2014  13:34:00       42.371       41.783        4.713       52.951       38.057       27.964     2803.836     1448.298      781.988        0.430        0.252       59.507       20.763        0.122      336.111        7.192      868.312
11/23/2014  13:35:00      113.217       73.873       -0.618       45.279       34.122       29.642     2050.227     1164.283      878.619        1.118        0.205      135.186       15.693        0.013      335.757        6.603      868.359
11/23/2014  13:36:00       81.399       59.451        0.891       34.816       24.257       23.428     1212.170      588.418      548.881        0.625        0.117      100.798       18.646        0.034      335.716        6.538      868.407
11/23/2014  13:37:00      100.348       56.544        7.822       41.756       31.755       21.708     1743.546     1008.360      471.256        0.827        0.161      115.182       16.555        0.021      335.876        6.801      868.442
11/23/2014  13:38:00       59.115       49.735        9.257       38.759       40.871       35.652     1502.253     1670.414     1271.065        0.525        0.222       77.254       21.812        0.080      335.914        6.865      868.450
11/23/2014  13:39:00       60.291       91.687        9.020       62.815       52.780       46.020     3945.675     2785.746     2117.820        1.048        0.442      109.733       30.371        0.077      335.891        6.826      868.440
11/23/2014  13:40:00       17.810      129.292      -15.362       32.800       70.147       30.141     1075.811     4920.584      908.503        1.209        0.345      130.513       26.947        0.043      335.824        6.714      868.418
11/23/2014  13:41:00      -18.018      129.219      -31.462       16.913       39.793       10.794      286.042     1583.521      116.509        1.000        0.099      130.469       14.292        0.012      335.574        6.299      868.402
11/23/2014  13:42:00       -6.247       46.528        2.623       18.447       34.320       21.436      340.300     1177.869      459.511        0.209        0.099       46.945       23.660        0.254      335.935        6.900      868.378
11/23/2014  13:43:00      -15.124       60.896      -17.443       31.873       50.077       23.577     1015.865     2507.748      555.870        0.416        0.204       62.746       25.870        0.170      335.671        6.462      868.343
11/23/2014  13:44:00      -46.351       94.649      -27.384       22.419       18.776       15.195      502.625      352.530      230.874        0.647        0.054      105.388       14.160        0.018      335.689        6.490      868.295
11/23/2014  13:45:00       -5.451       77.825       -7.204       14.774       48.548       22.827      218.270     2356.928      521.079        0.462        0.155       78.016       29.947        0.147      335.784        6.649      868.276
11/23/2014  13:46:00       29.459       26.497        2.291       35.930       29.080       23.302     1290.990      845.652      542.969        0.213        0.134       39.622       23.745        0.359      335.916        6.868      868.289
11/23/2014  13:47:00      -21.869       54.027       -9.457       26.903       29.197       16.645      723.787      852.456      277.040        0.267        0.093       58.285       15.240        0.068      335.920        6.876      868.331
11/23/2014  13:48:00      -75.452       44.765      -10.577       52.574       26.534       24.188     2764.048      704.067      585.045        0.593        0.203       87.732       21.856        0.062      336.065        7.117      868.376
11/23/2014  13:49:00      -96.395       48.741      -25.297       23.969       29.079       13.015      574.528      845.571      169.383        0.695        0.079      108.017       12.035        0.012      335.663        6.445      868.410
11/23/2014  13:50:00      -35.978       33.267      -23.397       29.164       20.381       17.467      850.560      415.397      305.089        0.226        0.079       49.001       10.414        0.045      335.772        6.629      868.419
11/23/2014  13:51:00       15.034      -11.396       -0.273       16.633       17.856        9.279      276.655      318.850       86.107        0.052        0.034       18.865        8.280        0.193      335.783        6.648      868.427
11/23/2014  13:52:00      -50.211       -0.908        1.065       58.668       31.282       24.429     3441.883      978.546      596.800        0.377        0.251       50.219       28.060        0.312      336.110        7.191      868.457
11/23/2014  13:53:00      -73.904      -20.740       -8.856       49.487       25.190       19.275     2448.997      634.539      371.544        0.471        0.173       76.759       24.302        0.100      336.035        7.067      868.464
11/23/2014  13:54:00      -53.182       10.991        0.078       19.726       30.709       18.151      389.118      943.059      329.445        0.231        0.083       54.306       16.410        0.091      335.775        6.630      868.428
11/23/2014  13:55:00       36.690       31.115       -3.904       50.120       37.763       29.041     2512.012     1426.037      843.409        0.355        0.239       48.107       24.712        0.264      336.053        7.097      868.377
11/23/2014  13:56:00      125.447       85.290       -1.774       35.502       33.744       24.019     1260.374     1138.677      576.929        1.299        0.149      151.695       13.591        0.008      335.726        6.552      868.364
11/23/2014  13:57:00       76.922       58.752      -15.284       27.514       30.056       19.239      757.042      903.378      370.139        0.582        0.102       96.792        7.841        0.007      335.752        6.596      868.355
11/23/2014  13:58:00       17.062       12.380      -11.617       32.514       15.578        6.470     1057.181      242.678       41.855        0.096        0.067       21.080        6.631        0.099      335.792        6.661      868.327
11/23/2014  13:59:00        9.198       16.132       -4.992       14.184       16.499       10.602      201.188      272.229      112.395        0.048        0.029       18.570        7.767        0.175      335.884        6.816      868.316
11/23/2014  14:00:00       34.484       38.819       20.000       22.265       21.452       30.445      495.730      460.179      926.882        0.249        0.094       51.924       21.637        0.174      336.022        7.045      868.314
11/23/2014  14:01:00       36.511       42.877       71.118       61.129       53.018       38.354     3736.723     2810.903     1471.047        0.812        0.401       56.316       24.920        0.196      336.114        7.197      868.295
11/23/2014  14:02:00       92.902       59.150       40.594       38.168       40.772       43.304     1456.809     1662.339     1875.219        0.938        0.250      110.134       19.717        0.032      335.930        6.891      868.280
11/23/2014  14:03:00      110.472       36.674       39.641       46.288       41.909       41.802     2142.585     1756.359     1747.426        1.038        0.282      116.400       29.878        0.066      335.969        6.957      868.294
11/23/2014  14:04:00       73.254       -2.031       29.506       55.506       68.702       49.419     3080.896     4719.913     2442.251        0.824        0.512       73.283       55.973        0.583      335.992        6.995      868.316
11/23/2014  14:05:00       45.458       36.783       68.494       31.215       32.820       19.672      974.368     1077.163      386.991        0.527        0.122       58.476       10.507        0.032      335.979        6.973      868.315
11/23/2014  14:06:00       67.824       35.488       11.543       30.476       32.358       23.187      928.786     1047.016      537.619        0.425        0.126       76.548       12.717        0.028      335.893        6.830      868.305
11/23/2014  14:07:00       69.114       35.919       -1.682       25.967       25.010       12.777      674.299      625.518      163.245        0.377        0.073       77.890        8.382        0.012      335.816        6.704      868.310
11/23/2014  14:08:00      -10.711      -12.952      -10.771       25.984       16.249        9.707      675.155      264.044       94.230        0.072        0.052       16.807       13.317        0.628      335.861        6.778      868.319
11/23/2014  14:09:00       15.729       18.998        0.937       25.619       30.581       18.980      656.317      935.210      360.241        0.128        0.098       24.665        8.905        0.130      336.013        7.029      868.326
11/23/2014  14:10:00       42.813       55.106       -1.792       27.984       27.977       18.419      783.114      782.689      339.263        0.339        0.095       69.783       11.481        0.027      336.001        7.009      868.308
11/23/2014  14:11:00        9.417       62.499      -16.144       24.167       59.622       21.148      584.050     3554.785      447.232        0.442        0.229       63.204       11.201        0.031      335.929        6.890      868.270
11/23/2014  14:12:00       -0.948       -0.248       -4.026       29.736       25.598       20.565      884.249      655.277      422.912        0.099        0.098        0.979       20.076      420.117      335.919        6.872      868.242
11/23/2014  14:13:00      -49.548      -41.766      -20.747       15.059       27.138       18.302      226.762      736.446      334.957        0.296        0.065       64.802        7.009        0.012      335.929        6.892      868.219
11/23/2014  14:14:00      -14.187      -26.342      -16.920       18.488       17.264       10.817      341.795      298.037      117.003        0.097        0.038       29.919       12.816        0.183      335.939        6.908      868.234
11/23/2014  14:15:00       13.871       13.286       11.673       25.674       21.101       16.457      659.145      445.238      270.823        0.094        0.069       19.207        7.976        0.172      336.086        7.152      868.265
11/23/2014  14:16:00       20.982       29.538       16.224       17.047       19.367       20.066      290.598      375.089      402.630        0.132        0.053       36.232       13.784        0.145      336.148        7.254      868.281
11/23/2014  14:17:00       28.655       38.181       33.716       25.383       21.212       34.520      644.309      449.939     1191.623        0.285        0.114       47.738       12.631        0.070      336.223        7.380      868.264
11/23/2014  14:18:00      113.694       26.569       53.191       98.950       61.458       54.891     9791.133     3777.129     3013.016        1.652        0.829      116.757       45.577        0.152      336.019        7.039      868.219
11/23/2014  14:19:00      117.595       55.421       10.448       59.024       58.258       44.778     3483.792     3394.008     2005.073        1.294        0.444      130.000       28.283        0.047      335.996        7.000      868.180
11/23/2014  14:20:00      174.891      100.819       11.155       47.810       39.840       33.069     2285.801     1587.195     1093.535        2.292        0.248      201.869       22.234        0.012      335.893        6.829      868.140
11/23/2014  14:21:00      101.606       78.362       18.957       43.803       38.908       26.801     1918.736     1513.845      718.296        1.049        0.208      128.313       18.707        0.021      335.911        6.860      868.114
11/23/2014  14:22:00       75.836       54.908       18.052       48.979       43.561       26.545     2398.945     1897.543      704.643        0.705        0.250       93.627       17.831        0.036      336.005        7.015      868.077
11/23/2014  14:23:00      112.633       71.298       26.856       39.899       33.043       31.437     1591.968     1091.869      988.282        1.108        0.184      133.302       15.910        0.014      336.006        7.018      868.035
11/23/2014  14:24:00      102.174       53.291       17.815       46.755       49.104       40.468     2185.986     2411.170     1637.663        0.991        0.312      115.237       18.172        0.025      336.002        7.011      868.000
11/23/2014  14:25:00       85.672       76.338        6.330       48.978       28.266       26.224     2398.802      798.939      687.704        0.855        0.194      114.748       11.562        0.010      336.045        7.082      867.957
11/23/2014  14:26:00       85.260       59.671       17.244       47.337       26.777       32.498     2240.764      716.981     1056.089        0.757        0.201      104.067       25.823        0.062      336.060        7.109      867.900
11/23/2014  14:27:00       26.922       40.253       37.090       30.616       22.841       22.123      937.348      521.706      489.430        0.283        0.097       48.426       21.224        0.192      336.005        7.017      867.872
11/23/2014  14:28:00       25.531       35.082       28.203       18.858       18.632       28.510      355.620      347.135      812.842        0.210        0.076       43.389       20.177        0.216      335.971        6.960      867.904
11/23/2014  14:29:00       23.098       50.714      -11.634       29.120       31.189       23.055      847.978      972.742      531.526        0.280        0.118       55.727       20.215        0.132      335.976        6.968      867.956
11/23/2014  14:30:00       17.712       64.990       -6.019       21.978       32.490       19.277      483.020     1055.573      371.605        0.324        0.096       67.360       21.292        0.100      336.044        7.081      868.019
11/23/2014  14:31:00       45.233       25.448        7.733       26.340       17.967       15.103      693.770      322.816      228.110        0.200        0.062       51.900        4.423        0.007      336.050        7.091      868.072
11/23/2014  14:32:00       44.996       36.963       12.086       36.504       24.078       22.084     1332.560      579.751      487.701        0.297        0.120       58.231       17.639        0.092      336.144        7.249      868.094
11/23/2014  14:33:00      103.995       63.953       23.703       42.382       26.853       30.824     1796.224      721.095      950.141        0.947        0.173      122.086       23.050        0.036      336.125        7.217      868.104
11/23/2014  14:34:00       88.084       51.277       24.410       40.344       47.305       34.184     1627.615     2237.741     1168.541        0.801        0.252      101.922       23.616        0.054      336.163        7.281      868.145
11/23/2014  14:35:00       25.503       48.535       14.628       28.572       22.599       21.343      816.349      510.731      455.504        0.250        0.089       54.828       14.865        0.074      336.169        7.290      868.186
11/23/2014  14:36:00        2.830       30.099        5.554        9.624       14.196       20.907       92.617      201.531      437.119        0.084        0.037       30.232        7.989        0.070      336.134        7.231      868.210
11/23/2014  14:37:00       33.222       55.205        6.320       31.389       17.437       18.597      985.283      304.036      345.863        0.291        0.082       64.431       13.702        0.045      336.157        7.270      868.228
11/23/2014  14:38:00       62.236       72.914        0.136       50.376       36.027       25.959     2537.711     1297.941      673.855        0.685        0.225       95.863       19.156        0.040      336.104        7.181      868.246
11/23/2014  14:39:00       99.653       68.924        9.090       38.848       35.733       38.522     1509.132     1276.860     1483.945        0.952        0.213      121.167       26.315        0.047      336.117        7.202      868.224
11/23/2014  14:40:00      142.204       82.804        6.380       44.194       31.884       38.019     1953.111     1016.576     1445.458        1.577        0.221      164.555       16.744        0.010      336.035        7.067      868.204
11/23/2014  14:41:00       38.943       62.976       -3.748       49.015       50.382       30.928     2402.490     2538.329      956.551        0.570        0.295       74.044       19.820        0.072      336.082        7.145      868.202
11/23/2014  14:42:00       84.457       73.676       -0.523       77.591       56.479       40.099     6020.291     3189.869     1607.945        1.169        0.541      112.077       33.668        0.090      336.086        7.151      868.199
11/23/2014  14:43:00      131.127      105.100       13.930       85.035       59.994       56.683     7230.953     3599.299     3212.918        2.124        0.702      168.049       38.647        0.053      336.034        7.061      868.162
11/23/2014  14:44:00      148.124       89.295       19.359       70.340       58.067       39.628     4947.736     3371.820     1570.356        2.009        0.494      172.958       36.394        0.044      336.059        7.104      868.097
11/23/2014  14:45:00      125.903       80.667       19.210       55.441       41.761       29.302     3073.753     1743.978      858.635        1.420        0.284      149.528       26.638        0.032      336.015        7.033      868.054
11/23/2014  14:46:00       83.212      105.532       83.328       56.202       48.692       38.835     3158.609     2370.934     1508.170        1.602        0.352      134.392       29.954        0.050      336.190        7.325      868.059
11/23/2014  14:47:00       63.895       75.058       66.349       55.507       39.579       27.182     3081.013     1566.464      738.874        0.975        0.269       98.571       17.381        0.031      336.042        7.078      868.101
11/23/2014  14:48:00       62.295       36.657       42.947       62.935       31.438       33.245     3960.805      988.331     1105.218        0.656        0.303       72.280       34.085        0.222      336.097        7.170      868.131
11/23/2014  14:49:00       60.869       60.649        3.393       47.659       38.164       27.401     2271.338     1456.476      750.806        0.594        0.224       85.927       10.284        0.014      336.111        7.194      868.158
11/23/2014  14:50:00       88.003       61.787       10.576       43.479       30.137       25.497     1890.437      908.246      650.121        0.756        0.172      107.527       19.636        0.033      336.065        7.117      868.172
11/23/2014  14:51:00       57.626       87.637       -3.172       49.217       51.279       30.934     2422.312     2629.518      956.893        0.851        0.300      104.886       28.502        0.074      336.107        7.187      868.158
11/23/2014  14:52:00      163.543       84.976       11.188       51.184       38.526       35.548     2619.762     1484.221     1263.652        1.973        0.268      184.302       24.438        0.018      336.047        7.085      868.120
11/23/2014  14:53:00       85.174       59.396       18.446       54.267       36.422       31.978     2944.915     1326.544     1022.598        0.821        0.265      103.839       30.066        0.084      336.124        7.214      868.079
11/23/2014  14:54:00       45.612       30.390       28.186       42.953       44.709       38.610     1844.963     1998.852     1490.740        0.457        0.267       54.809       28.691        0.274      336.172        7.296      868.044
11/23/2014  14:55:00       14.413       66.324       72.860       46.898       49.047       48.045     2199.439     2405.648     2308.367        0.841        0.346       67.871       43.014        0.402      336.250        7.423      868.010
11/23/2014  14:56:00       72.353       68.993       46.958       80.810       44.770       45.385     6530.245     2004.332     2059.802        1.140        0.530       99.975       48.204        0.232      336.298        7.506      867.994
11/23/2014  14:57:00      119.101       92.554        9.475       52.609       43.730       40.440     2767.709     1912.357     1635.375        1.458        0.316      150.835       30.210        0.040      336.110        7.191      867.990
11/23/2014  14:58:00      103.518       48.262        4.475       58.714       48.497       34.814     3447.350     2351.975     1212.043        1.004        0.351      114.216       12.161        0.011      336.114        7.198      868.007
11/23/2014  14:59:00       47.912       48.464        7.100       41.159       51.140       31.172     1694.077     2615.266      971.713        0.499        0.264       68.149       23.586        0.120      336.130        7.225      868.019
11/23/2014  15:00:00       99.561       57.085       39.713       63.836       46.028       48.318     4075.055     2118.620     2334.654        1.164        0.426      114.765       26.537        0.053      336.165        7.284      868.016
11/23/2014  15:01:00       81.989       49.661       60.675       71.148       42.936       53.316     5061.976     1843.538     2842.556        1.131        0.487       95.856       48.550        0.257      336.132        7.227      867.993
11/23/2014  15:02:00      108.334       78.284       47.547       50.031       38.785       42.862     2503.072     1504.283     1837.159        1.298        0.292      133.659       27.518        0.042      336.165        7.284      867.986
11/23/2014  15:03:00      121.686       67.664       28.428       53.678       36.573       41.787     2881.308     1337.591     1746.184        1.308        0.298      139.233       28.018        0.040      336.103        7.178      868.003
11/23/2014  15:04:00       91.265       60.552       13.877       33.465       27.291       20.437     1119.914      744.796      417.661        0.723        0.114      109.526       11.731        0.011      336.050        7.090      868.024
11/23/2014  15:05:00      101.469       79.018       13.214       45.527       35.728       34.677     2072.693     1276.468     1202.491        1.063        0.228      128.607       15.184        0.014      336.093        7.163      868.013
11/23/2014  15:06:00      114.399       61.762        3.334       46.659       40.009       33.240     2177.065     1600.740     1104.926        1.090        0.244      130.007       14.625        0.013      336.111        7.193      867.987
11/23/2014  15:07:00      128.370       55.201        5.506       53.822       33.477       33.889     2896.817     1120.690     1148.433        1.236        0.258      139.735       24.666        0.031      336.084        7.148      867.948
11/23/2014  15:08:00       73.854       52.655       31.571       43.123       27.327       31.678     1859.557      746.780     1003.520        0.642        0.180       90.702       22.663        0.062      336.179        7.306      867.906
11/23/2014  15:09:00       31.238       40.857       36.290       24.004       32.554       23.088      576.171     1059.745      533.070        0.307        0.108       51.430       21.314        0.172      336.251        7.428      867.890
11/23/2014  15:10:00       81.246       39.416       42.343       53.502       47.418       33.597     2862.451     2248.454     1128.761        0.809        0.312       90.302       15.076        0.028      336.196        7.334      867.907
11/23/2014  15:11:00       81.816       84.640       93.248       62.455       47.327       35.310     3900.650     2239.824     1246.786        1.497        0.369      117.719       33.559        0.081      336.164        7.282      867.937
11/23/2014  15:12:00      109.125       62.745       30.451       51.062       46.602       42.177     2607.347     2171.742     1778.893        1.166        0.328      125.878       32.627        0.067      336.100        7.175      867.947
11/23/2014  15:13:00      147.237       75.555       31.933       54.558       35.610       37.566     2976.570     1268.038     1411.238        1.703        0.283      165.491       26.869        0.026      336.111        7.192      867.943
11/23/2014  15:14:00      134.957       82.438       29.790       48.060       33.473       37.850     2309.738     1120.439     1432.627        1.538        0.243      158.144       22.163        0.020      336.114        7.197      867.927
11/23/2014  15:15:00       72.764       51.966       28.506       55.278       44.094       34.346     3055.697     1944.257     1179.677        0.749        0.309       89.415       17.714        0.039      336.220        7.374      867.937
11/23/2014  15:16:00       67.355       67.585       63.085       49.795       53.336       40.602     2479.533     2844.769     1648.517        1.003        0.349       95.417       31.598        0.110      336.280        7.474      867.936
11/23/2014  15:17:00        0.055       32.975       59.799       21.924       46.991       27.341      480.669     2208.180      747.557        0.405        0.172       32.975       26.153        0.629      336.414        7.700      867.938
11/23/2014  15:18:00      113.846       43.872       25.216       30.239       31.992       29.674      914.377     1023.499      880.541        0.917        0.141      122.007       18.016        0.022      336.083        7.146      867.973
11/23/2014  15:19:00       79.258       19.980       40.958       39.323       27.434       32.874     1546.329      752.647     1080.714        0.587        0.169       81.737       24.092        0.087      336.124        7.214      867.993
11/23/2014  15:20:00       94.042       64.267       40.784       52.453       42.422       49.245     2751.362     1799.629     2425.101        1.081        0.349      113.904       37.952        0.111      336.152        7.262      867.983
11/23/2014  15:21:00       62.819       64.551       60.122       61.865       39.632       40.417     3827.231     1570.704     1633.571        0.938        0.352       90.073       34.838        0.150      336.203        7.347      867.963
11/23/2014  15:22:00       -3.954      -13.281       24.798       28.299       54.202       26.885      800.833     2937.838      722.785        0.263        0.223       13.857       29.209        4.443      336.363        7.614      867.960
11/23/2014  15:23:00       89.078       55.186       41.305       58.037       40.747       27.670     3368.344     1660.331      765.653        0.924        0.290      104.787       18.623        0.032      336.267        7.454      867.952
11/23/2014  15:24:00       76.693       54.870       28.494       46.544       41.481       36.777     2166.384     1720.644     1352.580        0.747        0.262       94.300       27.798        0.087      336.229        7.391      867.960
11/23/2014  15:25:00      123.020       44.541       25.881       42.264       31.596       38.041     1786.262      998.321     1447.087        1.101        0.212      130.835       27.607        0.045      336.174        7.298      867.960
11/23/2014  15:26:00       89.002       31.057       11.684       41.580       29.606       33.597     1728.880      876.503     1128.743        0.638        0.187       94.265       18.918        0.040      336.140        7.243      867.955
11/23/2014  15:27:00       26.417       -2.025        1.387       28.185       20.054       19.327      794.384      402.180      373.514        0.114        0.079       26.494       14.031        0.280      336.228        7.390      867.951
11/23/2014  15:28:00        8.793      -38.352        3.707       33.077       56.355       23.981     1094.060     3175.914      575.082        0.320        0.242       39.347       25.638        0.425      336.329        7.557      867.946
11/23/2014  15:29:00       51.198       19.634       45.309       37.284       39.352       36.214     1390.126     1548.581     1311.436        0.465        0.213       54.833       23.789        0.188      336.286        7.484      867.931
11/23/2014  15:30:00       18.820       -3.673       20.878       28.117       44.825       30.367      790.546     2009.294      922.173        0.226        0.186       19.175       12.827        0.447      336.340        7.575      867.901
11/23/2014  15:31:00       26.992       -3.030       37.522       27.938       30.532       16.820      780.548      932.187      282.901        0.207        0.100       27.161       10.424        0.147      336.339        7.575      867.875
11/23/2014  15:32:00       18.427       41.865       41.061       42.596       25.405       19.781     1814.385      645.406      391.294        0.331        0.143       45.741       10.606        0.054      336.337        7.571      867.856
11/23/2014  15:33:00       67.151       36.894       28.503       38.441       28.187       26.437     1477.702      794.535      698.932        0.483        0.149       76.619       25.971        0.115      336.215        7.367      867.844
11/23/2014  15:34:00       71.948       45.488       30.364       40.927       34.896       32.939     1675.035     1217.736     1084.970        0.607        0.199       85.122       30.746        0.130      336.249        7.423      867.854
11/23/2014  15:35:00       61.738       63.148       57.052       33.163       20.711       21.375     1099.796      428.953      456.898        0.652        0.099       88.313       16.266        0.034      336.176        7.302      867.872
11/23/2014  15:36:00       20.110      -54.753       -2.698       46.984       36.506       31.766     2207.495     1332.654     1009.083        0.398        0.227       58.329       32.087        0.303      336.424        7.718      867.859
11/23/2014  15:37:00       75.294      -81.484      -11.785       42.098       54.081       38.686     1772.218     2924.758     1496.592        0.932        0.310      110.945       39.776        0.129      336.250        7.425      867.822
11/23/2014  15:38:00       86.999     -102.553       -2.816       49.126       54.936       40.378     2413.324     3017.987     1630.370        1.258        0.353      134.484       42.973        0.102      336.197        7.336      867.792
11/23/2014  15:39:00       24.061       32.281       65.584       45.769       62.753       32.603     2094.820     3937.919     1062.967        0.651        0.355       40.261       30.303        0.567      336.311        7.527      867.793
11/23/2014  15:40:00       30.912       85.443       85.923       40.850       42.164       32.939     1668.763     1777.794     1084.976        1.008        0.227       90.863       25.727        0.080      336.214        7.365      867.824
11/23/2014  15:41:00       69.054       56.288       16.188       47.881       33.487       30.305     2292.622     1121.359      918.400        0.626        0.217       89.089       19.924        0.050      336.167        7.287      867.862
11/23/2014  15:42:00       93.270       57.537       23.077       46.148       35.688       27.272     2129.647     1273.650      743.770        0.834        0.207      109.589       18.373        0.028      336.144        7.249      867.893
11/23/2014  15:43:00       43.620        2.445       23.345       43.436       21.650       19.921     1886.713      468.704      396.842        0.260        0.138       43.689       19.273        0.195      336.187        7.321      867.909
11/23/2014  15:44:00       -3.938       -0.179       20.679        9.190        7.602        7.729       84.463       57.790       59.735        0.032        0.010        3.942        4.658        1.396      336.352        7.597      867.929
11/23/2014  15:45:00       51.783        1.024       21.287       47.350       16.230       17.799     2241.997      263.417      316.807        0.298        0.141       51.793       16.571        0.102      336.218        7.373      867.947
11/23/2014  15:46:00       62.916       21.793       38.674       42.630       44.768       32.130     1817.286     2004.191     1032.312        0.539        0.243       66.584       28.537        0.184      336.236        7.403      867.930
11/23/2014  15:47:00       73.415       45.415        7.487       35.375       31.900       31.493     1251.419     1017.609      991.804        0.538        0.163       86.327       19.933        0.053      336.270        7.459      867.898
11/23/2014  15:48:00       66.897       61.063       14.449       21.859       23.425       23.929      477.816      548.750      572.587        0.501        0.080       90.575       19.066        0.044      336.230        7.394      867.878
11/23/2014  15:49:00       11.243       19.473        6.715       22.524       23.870       23.866      507.309      569.771      569.602        0.110        0.082       22.486       18.663        0.689      336.239        7.408      867.902
11/23/2014  15:50:00       10.758       27.489       43.001       21.364       21.507       17.973      456.402      462.549      323.015        0.198        0.062       29.519       12.338        0.175      336.234        7.397      867.977
11/23/2014  15:51:00       33.295       31.572       12.158       20.032       13.940       21.676      401.289      194.325      469.847        0.166        0.053       45.884       12.722        0.077      336.233        7.398      868.025
11/23/2014  15:52:00       19.329       22.516       22.056       25.151       14.593       19.667      632.569      212.954      386.803        0.130        0.062       29.675       18.439        0.386      336.296        7.502      868.036
11/23/2014  15:53:00       26.328       34.062       23.024       24.804       15.514       19.974      615.215      240.689      398.951        0.182        0.063       43.051       17.765        0.170      336.309        7.523      868.026
11/23/2014  15:54:00       57.694       38.955       52.188       38.524       24.402       21.829     1484.131      595.446      476.511        0.506        0.128       69.614       15.951        0.053      336.304        7.517      868.009
11/23/2014  15:55:00       59.628       58.644       51.995       46.002       30.214       31.353     2116.210      912.904      983.019        0.685        0.201       83.634       23.552        0.079      336.287        7.486      867.980
11/23/2014  15:56:00       33.394       68.019       58.376       42.914       27.800       28.041     1841.649      772.835      786.292        0.627        0.170       75.774       16.452        0.047      336.335        7.568      867.953
11/23/2014  15:57:00      116.238       76.752       35.662       51.243       40.414       37.868     2625.818     1633.301     1433.981        1.318        0.285      139.291       22.254        0.026      336.201        7.342      867.951
11/23/2014  15:58:00      126.105       58.151       38.319       45.326       39.137       33.857     2054.407     1531.730     1146.306        1.274        0.237      138.867       20.907        0.023      336.181        7.311      867.970
11/23/2014  15:59:00      130.285       52.760       15.333       34.480       24.404       27.030     1188.875      595.544      730.628        1.125        0.126      140.563       18.369        0.017      336.150        7.258      868.001
11/23/2014  16:00:00       43.149       31.952        5.259       39.660       28.455       19.084     1572.886      809.693      364.190        0.283        0.137       53.691       15.251        0.081      336.181        7.311      868.050
11/23/2014  16:01:00       22.884       85.000      -14.873       19.111       27.546       18.961      365.231      758.776      359.510        0.473        0.074       88.026       18.998        0.047      336.136        7.236      868.094
11/23/2014  16:02:00        0.830      104.783      -19.489       14.094       23.109        8.579      198.651      534.028       73.602        0.608        0.040      104.786        4.910        0.002      336.159        7.271      868.102
11/23/2014  16:03:00      -13.389       92.219      -18.232        8.384       15.828        8.370       70.296      250.534       70.051        0.470        0.020       93.186        4.960        0.003      336.141        7.241      868.084
11/23/2014  16:04:00        8.602       74.743      -13.036       17.034       16.028        9.836      290.154      256.902       96.746        0.324        0.032       75.236        5.750        0.006      336.159        7.272      868.039
11/23/2014  16:05:00       34.867       43.843        1.300       27.750       29.868       16.819      770.054      892.093      282.885        0.254        0.097       56.017       13.706        0.060      336.174        7.299      867.996
11/23/2014  16:06:00       72.321       51.500        3.686       22.209       14.393       16.656      493.257      207.165      277.412        0.444        0.049       88.784        9.374        0.011      336.191        7.327      867.996
11/23/2014  16:07:00       69.289       28.986        9.915       30.963       22.799       20.136      958.680      519.776      405.460        0.381        0.094       75.108       15.464        0.042      336.171        7.296      868.011
11/23/2014  16:08:00       47.929       16.512        7.046       39.381       21.074       19.818     1550.841      444.098      392.765        0.250        0.119       50.693       11.641        0.053      336.209        7.356      868.004
11/23/2014  16:09:00       82.874       49.671       -0.308       27.527       23.638       17.426      757.715      558.748      303.680        0.548        0.081       96.619       13.317        0.019      336.187        7.320      867.975
11/23/2014  16:10:00       71.696       38.900        1.667       33.616       27.782       21.674     1130.014      771.861      469.763        0.451        0.119       81.569       15.461        0.036      336.177        7.303      867.958
11/23/2014  16:11:00       80.137       56.108        5.157       27.557       20.261       21.868      759.366      410.496      478.190        0.562        0.082       97.826       12.589        0.017      336.164        7.281      867.949
11/23/2014  16:12:00       89.125       68.871       20.218       39.898       35.728       37.937     1591.813     1276.489     1439.243        0.870        0.215      112.634       18.505        0.027      336.187        7.321      867.946
11/23/2014  16:13:00      147.729       76.679       -0.160       60.210       46.051       36.585     3625.270     2120.665     1338.447        1.739        0.354      166.444       12.738        0.006      336.185        7.315      867.933
11/23/2014  16:14:00       81.574       66.292        0.900       46.106       40.274       32.288     2125.781     1621.977     1042.491        0.792        0.240      105.114       26.330        0.063      336.172        7.294      867.921
11/23/2014  16:15:00       40.899       81.326       -2.422       54.332       48.567       31.007     2952.015     2358.712      961.418        0.728        0.314       91.031       25.739        0.080      336.152        7.263      867.959
11/23/2014  16:16:00       34.992      139.531      -15.849       29.411       56.193       31.228      864.994     3157.610      975.166        1.297        0.250      143.852       34.809        0.059      336.159        7.272      868.016
11/23/2014  16:17:00       21.729      141.285      -28.522       23.430       40.078       24.747      548.974     1606.218      612.428        1.201        0.138      142.947       26.637        0.035      336.157        7.269      868.054
11/23/2014  16:18:00       59.354       81.637       -8.667       30.132       40.062       26.144      907.921     1604.997      683.506        0.673        0.160      100.933       23.497        0.054      336.159        7.274      868.085
11/23/2014  16:19:00       61.622       54.391        5.085       35.775       26.224       28.146     1279.852      687.701      792.171        0.477        0.138       82.193       18.220        0.049      336.154        7.264      868.111
11/23/2014  16:20:00       52.011       65.917        0.699       44.704       36.468       25.266     1998.415     1329.892      638.369        0.551        0.198       83.965       23.113        0.076      336.147        7.250      868.114
11/23/2014  16:21:00       18.805       92.155      -15.090       21.356       35.761       21.461      456.068     1278.869      460.595        0.563        0.110       94.054       19.044        0.041      336.156        7.267      868.128
11/23/2014  16:22:00       26.195       61.997       -2.548       40.669       28.320       20.258     1653.941      802.010      410.382        0.370        0.143       67.304       13.989        0.043      336.165        7.284      868.139
11/23/2014  16:23:00       73.796       40.731        7.120       38.500       25.498       22.331     1482.261      650.137      498.683        0.489        0.132       84.290       13.269        0.025      336.182        7.311      868.114
11/23/2014  16:24:00       97.020       41.938        6.063       45.529       32.744       27.497     2072.852     1072.144      756.091        0.755        0.195      105.696       12.240        0.013      336.160        7.276      868.065
11/23/2014  16:25:00       49.145       46.668       10.556       44.603       27.294       31.552     1989.422      744.975      995.521        0.422        0.186       67.773       19.887        0.086      336.188        7.320      868.051
11/23/2014  16:26:00       54.917       58.980       -2.838       44.359       39.588       23.397     1967.749     1567.201      547.437        0.529        0.204       80.588       20.131        0.062      336.119        7.209      868.064
11/23/2014  16:27:00       92.282       82.014        7.433       40.190       43.212       43.318     1615.206     1867.266     1876.432        1.033        0.268      123.460       32.947        0.071      336.130        7.224      868.061
11/23/2014  16:28:00      111.868       87.354       -0.585       60.939       34.747       35.162     3713.588     1207.361     1236.392        1.315        0.308      141.934       27.925        0.039      336.121        7.211      868.047
11/23/2014  16:29:00       15.102       57.434       -3.853       22.202       43.584       15.217      492.926     1899.536      231.566        0.308        0.131       59.386       16.184        0.074      336.126        7.219      868.020
11/23/2014  16:30:00       21.204       95.581      -20.510       20.175       26.527       11.841      407.017      703.691      140.210        0.563        0.063       97.905       12.593        0.017      336.146        7.249      868.047
11/23/2014  16:31:00        9.486      104.555      -21.986       36.060       36.985       18.942     1300.357     1367.904      358.804        0.727        0.151      104.984       18.139        0.030      336.229        7.391      868.120
11/23/2014  16:32:00       17.265       83.980        0.408       35.560       43.605       23.853     1264.485     1901.411      568.967        0.554        0.187       85.737       21.079        0.060      336.165        7.284      868.188
11/23/2014  16:33:00        9.588      101.434      -14.599       31.271       20.612       21.845      977.875      424.860      477.211        0.624        0.094      101.886       12.575        0.015      336.161        7.276      868.231
11/23/2014  16:34:00       15.096       96.732      -18.241       25.394       31.339       20.434      644.869      982.156      417.568        0.598        0.102       97.903       19.162        0.038      336.142        7.244      868.247
11/23/2014  16:35:00       -0.996       98.346      -16.710       34.590       17.404       13.720     1196.452      302.883      188.226        0.582        0.084       98.351       11.173        0.013      336.164        7.280      868.276
11/23/2014  16:36:00       -7.061      109.471      -17.110       28.386       28.160       20.461      805.762      793.007      418.661        0.717        0.101      109.698       19.060        0.030      336.227        7.386      868.294
11/23/2014  16:37:00       11.038       81.939      -11.505       10.838       24.355       13.163      117.452      593.174      173.278        0.393        0.044       82.679       13.009        0.025      336.148        7.254      868.272
11/23/2014  16:38:00       19.444       87.212      -12.577       17.434       19.769       11.179      303.937      390.833      124.971        0.448        0.041       89.354        7.528        0.007      336.145        7.250      868.227
11/23/2014  16:39:00       55.545       39.066        5.427       20.033       24.137       20.023      401.308      582.597      400.917        0.301        0.069       67.908       10.274        0.023      336.131        7.225      868.163
11/23/2014  16:40:00       60.783       38.785       10.449       27.554       25.984       19.506      759.230      675.153      380.502        0.356        0.091       72.104        9.835        0.019      336.138        7.238      868.084
11/23/2014  16:41:00      100.263       45.999       26.945       35.662       30.358       25.853     1271.761      921.596      668.358        0.788        0.143      110.311       19.345        0.031      336.121        7.210      868.028
11/23/2014  16:42:00       73.842       48.257        6.538       40.060       31.148       27.278     1604.798      970.208      744.066        0.557        0.166       88.212       22.167        0.063      336.073        7.128      868.011
11/23/2014  16:43:00       69.711       61.478        4.570       38.421       24.713       21.802     1476.174      610.756      475.334        0.561        0.128       92.947        9.473        0.010      336.067        7.118      868.006
11/23/2014  16:44:00       43.376       26.096        6.209       24.483       18.020       15.577      599.409      324.707      242.648        0.188        0.058       50.621       11.260        0.049      336.085        7.146      868.004
11/23/2014  16:45:00       54.986       29.587       12.447       22.921       14.950       15.376      525.370      223.511      236.410        0.252        0.049       62.440       12.794        0.042      336.096        7.167      867.994
11/23/2014  16:46:00       61.043       33.053        6.872       25.418       18.501       15.425      646.079      342.300      237.937        0.305        0.061       69.418       10.694        0.024      336.125        7.218      867.996
11/23/2014  16:47:00       59.827       52.043        4.543       19.890       14.865       18.366      395.598      220.969      337.302        0.363        0.048       79.295       12.705        0.026      336.102        7.178      868.003
11/23/2014  16:48:00       73.585       43.830        2.036       22.418       25.392       18.002      502.554      644.740      324.064        0.441        0.074       85.649       10.612        0.015      336.090        7.158      868.007
11/23/2014  16:49:00       58.151       38.010        7.407       35.109       24.838       24.608     1232.626      616.903      605.556        0.367        0.123       69.472       14.117        0.041      336.095        7.164      868.001
11/23/2014  16:50:00       22.808       26.130       -3.019       30.277       17.010       15.335      916.694      289.327      235.162        0.133        0.072       34.684       10.416        0.090      336.082        7.143      868.006
11/23/2014  16:51:00       62.077       26.788        4.720       23.930       18.198       14.156      572.646      331.156      200.385        0.285        0.055       67.611        9.201        0.019      336.089        7.153      868.003
11/23/2014  16:52:00       73.050       41.805       -5.923       15.345       16.389       18.102      235.467      268.601      327.671        0.398        0.042       84.166       12.616        0.022      336.077        7.135      867.973
11/23/2014  16:53:00       72.420       35.920        6.055       21.351       21.863       16.992      455.852      477.983      288.727        0.390        0.061       80.838        9.373        0.013      336.074        7.129      867.915
11/23/2014  16:54:00       78.367       56.430       13.700       18.845       23.057       17.251      355.145      531.617      297.602        0.535        0.059       96.570       17.856        0.034      336.082        7.145      867.902
11/23/2014  16:55:00       69.294       49.187       10.354       17.667       10.995       16.297      312.123      120.893      265.605        0.401        0.035       84.977        6.884        0.007      336.081        7.141      867.927
11/23/2014  16:56:00       50.181       56.137        4.182       32.805       20.116       22.442     1076.157      404.648      503.624        0.384        0.099       75.296        6.263        0.007      336.074        7.131      867.922
11/23/2014  16:57:00       53.138       49.061       -4.958       18.371       19.502       15.492      337.492      380.336      240.012        0.311        0.048       72.324       15.044        0.043      336.073        7.131      867.930
11/23/2014  16:58:00       47.775       43.325        2.812       17.456       12.877       12.511      304.702      165.816      156.537        0.240        0.031       64.494        6.025        0.009      336.072        7.127      867.963
11/23/2014  16:59:00       47.099       36.689        4.956       23.998       20.715       18.310      575.893      429.097      335.245        0.246        0.067       59.703       14.019        0.055      336.061        7.109      867.966
11/23/2014  17:00:00       44.251       77.422       -5.110       29.091       40.948       22.976      846.284     1676.740      527.895        0.551        0.153       89.175       24.216        0.074      336.071        7.129      867.951
11/23/2014  17:01:00       53.809       46.995        0.947       32.935       24.050       18.903     1084.736      578.416      357.335        0.356        0.101       71.442       15.929        0.050      336.066        7.118      867.926
11/23/2014  17:02:00       69.218       44.440        3.464       24.651       25.993       20.503      607.675      675.614      420.387        0.424        0.085       82.256       17.454        0.045      336.079        7.139      867.900
11/23/2014  17:03:00       76.595       51.234        9.386       37.304       21.212       22.644     1391.562      449.954      512.742        0.547        0.118       92.151       13.415        0.021      336.027        7.051      867.893
11/23/2014  17:04:00       60.590       50.583       13.803       38.215       20.694       14.863     1460.391      428.260      220.899        0.426        0.105       78.929       12.220        0.024      336.002        7.011      867.900
11/23/2014  17:05:00       48.702       40.254       -2.461       32.911       31.350       21.391     1083.132      982.843      457.554        0.326        0.126       63.185       17.899        0.080      336.003        7.013      867.921
11/23/2014  17:06:00       17.029       54.561       -2.229       23.466       29.016       20.652      550.662      841.905      426.521        0.255        0.091       57.156       18.116        0.100      336.005        7.015      867.954
11/23/2014  17:07:00       36.715       92.114       -6.595       45.654       31.805       25.006     2084.306     1011.575      625.305        0.680        0.186       99.161       27.432        0.077      336.017        7.035      867.988
11/23/2014  17:08:00       11.605       69.274       -6.394       32.257       39.750       28.768     1040.483     1580.071      827.618        0.421        0.172       70.240       27.435        0.153      335.999        7.005      867.989
11/23/2014  17:09:00       43.200       80.833      -12.489       30.214       44.870       18.781      912.863     2013.329      352.729        0.592        0.164       91.652       20.900        0.052      335.986        6.986      867.967
11/23/2014  17:10:00       36.201       93.427      -16.206       24.977       51.286       22.099      623.851     2630.265      488.351        0.702        0.187      100.196       27.072        0.073      335.969        6.955      867.949
11/23/2014  17:11:00       34.174       76.755       -3.651       24.352       30.738       20.166      593.037      944.846      406.648        0.451        0.097       84.019       17.045        0.041      335.964        6.948      867.933
11/23/2014  17:12:00       44.740       77.668       -2.591       22.501       44.485       24.128      506.283     1978.896      582.150        0.555        0.153       89.633       23.568        0.069      335.970        6.956      867.939
11/23/2014  17:13:00       25.554       74.877       -6.469       37.326       37.151       22.430     1393.223     1380.215      503.101        0.479        0.164       79.117       21.953        0.077      335.943        6.912      867.968
11/23/2014  17:14:00       34.327       70.440       -7.831       26.924       44.494       20.482      724.885     1979.718      419.515        0.466        0.156       78.359       21.019        0.072      335.940        6.910      867.994
11/23/2014  17:15:00       28.948       50.682        7.996       32.070       27.233       20.068     1028.502      741.646      402.721        0.282        0.109       58.367       15.127        0.067      335.927        6.887      867.999
11/23/2014  17:16:00       32.140       77.192       -7.018       21.866       33.747       18.013      478.101     1138.889      324.469        0.449        0.097       83.616       15.168        0.033      335.946        6.917      867.994
11/23/2014  17:17:00       15.957       86.908      -10.603       18.895       31.785       15.854      357.012     1010.287      251.351        0.477        0.081       88.361       16.714        0.036      335.942        6.909      867.992
11/23/2014  17:18:00       21.060       87.619      -15.153       14.981       26.627       13.840      224.423      709.023      191.536        0.474        0.056       90.114       12.845        0.020      335.943        6.912      867.984
11/23/2014  17:19:00       39.848       43.408        9.373       25.895       32.968       25.943      670.536     1086.892      673.029        0.299        0.122       58.925       23.568        0.160      335.909        6.855      867.969
11/23/2014  17:20:00        9.398       74.479       -9.185       32.171       26.458       13.353     1034.971      700.031      178.310        0.382        0.096       75.070       14.095        0.035      335.945        6.916      867.995
11/23/2014  17:21:00       -1.055       75.741      -15.005       15.331       16.887        9.797      235.037      285.173       95.986        0.329        0.031       75.748        6.401        0.007      335.951        6.924      868.051
11/23/2014  17:22:00       10.548       93.071      -15.238       16.573       24.736        9.451      274.657      611.851       89.321        0.499        0.049       93.667        8.309        0.008      335.927        6.885      868.093
11/23/2014  17:23:00       15.569       83.232      -15.533       18.599       19.274        8.559      345.934      371.482       73.248        0.410        0.040       84.676        6.365        0.006      335.970        6.957      868.106
11/23/2014  17:24:00        7.296       77.195      -11.387       10.508       16.000        7.816      110.424      255.984       61.091        0.328        0.021       77.539        5.904        0.006      335.963        6.946      868.107
11/23/2014  17:25:00        9.025       94.559      -16.432       21.070       15.080        8.644      443.935      227.406       74.715        0.502        0.037       94.989        6.300        0.004      336.002        7.014      868.106
11/23/2014  17:26:00       11.000       83.599      -14.792       18.153       17.112        9.780      329.523      292.832       95.657        0.402        0.036       84.319        8.966        0.011      335.972        6.962      868.109
11/23/2014  17:27:00       15.853       75.137      -15.968       18.619       21.437        9.642      346.653      459.560       92.967        0.353        0.045       76.791        4.906        0.004      335.937        6.902      868.128
11/23/2014  17:28:00        0.341       91.000      -11.930       28.322       31.229       16.435      802.154      975.225      270.125        0.524        0.102       91.001       10.906        0.014      335.965        6.948      868.138
11/23/2014  17:29:00      -21.841       85.334       -8.960       30.304       38.707       20.017      918.349     1498.229      400.681        0.533        0.141       88.085       18.381        0.044      336.140        7.242      868.125
11/23/2014  17:30:00       -0.218       86.863      -14.149       21.239       46.058       11.975      451.111     2121.328      143.405        0.523        0.136       86.863       13.442        0.024      335.999        7.005      868.128
11/23/2014  17:31:00       -6.821       34.410       -0.377       29.102       43.250       20.142      846.921     1870.552      405.698        0.218        0.156       35.080       23.855        0.462      335.943        6.913      868.146
11/23/2014  17:32:00      -58.482      -22.400       -5.910       29.605       20.644       11.679      876.466      426.170      136.398        0.270        0.072       62.625       10.430        0.028      335.979        6.974      868.148
11/23/2014  17:33:00      -51.539      -18.501       -3.886       25.405       15.208       12.092      645.416      231.273      146.209        0.202        0.051       54.759        9.093        0.028      335.916        6.867      868.153
11/23/2014  17:34:00      -23.339       -7.729        8.397       37.857       11.291       13.746     1433.157      127.493      188.955        0.121        0.087       24.585       20.952        0.726      335.903        6.847      868.164
11/23/2014  17:35:00       10.351       12.275       -4.229       19.919       29.711       12.928      396.755      882.735      167.139        0.086        0.072       16.057       11.135        0.481      335.844        6.749      868.201
11/23/2014  17:36:00      -29.275      -18.343       -8.029       27.893       22.706       23.176      778.017      515.553      537.132        0.154        0.092       34.547       14.696        0.181      335.899        6.839      868.237
11/23/2014  17:37:00      -33.633      -12.143        0.773       21.954       21.878       19.348      481.975      478.633      374.363        0.131        0.067       35.758       16.684        0.218      335.831        6.726      868.270
11/23/2014  17:38:00      -31.024       53.548      -14.897       26.833       54.082       16.978      720.009     2924.868      288.236        0.399        0.197       61.886       19.554        0.100      335.837        6.738      868.302
11/23/2014  17:39:00      -41.257      118.433       -7.565       25.810       44.560       22.358      666.133     1985.595      499.860        0.947        0.158      125.414       23.079        0.034      335.923        6.880      868.295
11/23/2014  17:40:00       -8.316       56.086       -9.735       22.345       29.238       11.789      499.306      854.882      138.989        0.240        0.075       56.699        7.972        0.020      335.832        6.729      868.278
11/23/2014  17:41:00      -24.354       57.422       -7.308       30.343       30.826       17.867      920.707      950.216      319.214        0.307        0.110       62.373       15.994        0.066      335.931        6.892      868.263
11/23/2014  17:42:00      -48.676       43.073      -17.587       20.609       33.046       17.480      424.724     1092.063      305.536        0.318        0.091       64.998       16.229        0.062      335.841        6.743      868.238
11/23/2014  17:43:00      -56.685       17.621       -9.443       21.289       22.960       12.085      453.203      527.148      146.044        0.237        0.056       59.361        6.658        0.013      335.895        6.834      868.214
11/23/2014  17:44:00      -62.674       79.833       -9.470       32.294       64.197       28.376     1042.876     4121.254      805.178        0.818        0.298      101.496       28.140        0.077      335.827        6.720      868.210
11/23/2014  17:45:00      -76.652       97.159      -15.073       50.895       58.323       28.977     2590.337     3401.525      839.661        1.119        0.342      123.756       33.458        0.073      335.773        6.629      868.226
11/23/2014  17:46:00      -92.692      112.232      -26.302       46.403       54.696       28.112     2153.256     2991.604      790.298        1.391        0.297      145.560       29.948        0.042      335.782        6.645      868.279
11/23/2014  17:47:00     -113.027       82.530      -24.580       51.312       60.647       23.548     2632.954     3678.041      554.528        1.353        0.343      139.951       26.501        0.036      335.777        6.637      868.318
11/23/2014  17:48:00     -116.067       94.510      -20.408       65.026       59.280       37.141     4228.330     3514.079     1379.424        1.597        0.456      149.679       36.341        0.059      335.767        6.619      868.329
11/23/2014  17:49:00     -128.034      113.928      -23.627       71.648       92.917       38.986     5133.437     8633.571     1519.924        2.261        0.764      171.384       37.282        0.047      335.748        6.588      868.336
11/23/2014  17:50:00     -107.755       92.135      -15.989       55.002       58.947       35.653     3025.222     3474.801     1271.105        1.406        0.389      141.775       36.793        0.067      335.702        6.511      868.361
11/23/2014  17:51:00     -120.339       69.509      -18.748       52.181       49.507       30.424     2722.881     2450.967      925.615        1.288        0.305      138.971       30.365        0.048      335.737        6.569      868.338
11/23/2014  17:52:00      -78.991       87.265       -9.980       48.145       36.761       29.631     2317.918     1351.349      877.972        0.925        0.227      117.707       25.473        0.047      335.728        6.556      868.289
11/23/2014  17:53:00     -100.564       59.318      -15.044       39.140       51.952       32.924     1531.964     2698.966     1083.964        0.959        0.266      116.755       25.447        0.048      335.812        6.695      868.231
11/23/2014  17:54:00      -99.466      -10.010      -12.191       32.178       76.557       29.553     1035.398     5861.023      873.350        0.895        0.388       99.969       21.044        0.044      335.862        6.780      868.191
11/23/2014  17:55:00     -108.970      -48.072      -21.907       44.681       40.535       27.127     1996.394     1643.077      735.870        0.952        0.219      119.102       12.155        0.010      335.669        6.458      868.169
11/23/2014  17:56:00     -126.465       10.225      -22.825       45.011       67.606       37.009     2026.016     4570.618     1369.647        1.229        0.398      126.878       17.555        0.019      335.664        6.449      868.159
11/23/2014  17:57:00     -151.838       44.084      -26.311       54.001       55.241       34.104     2916.110     3051.548     1163.084        1.641        0.357      158.108       28.209        0.032      335.648        6.422      868.152
11/23/2014  17:58:00     -125.231       26.395       -9.862       53.232       35.772       31.376     2833.611     1279.662      984.426        1.079        0.255      127.982       24.891        0.038      335.628        6.388      868.134
11/23/2014  17:59:00     -132.251       47.454      -40.101       54.788       90.622       35.603     3001.759     8212.283     1267.601        1.691        0.624      140.507       32.552        0.054      335.579        6.306      868.103
11/23/2014  18:00:00     -133.212       56.628      -15.774       47.130       33.194       30.679     2221.203     1101.826      941.205        1.273        0.213      144.748       22.610        0.024      335.570        6.290      868.092
11/23/2014  18:01:00      -75.339       50.667      -12.898       44.861       34.093       24.741     2012.518     1162.301      612.116        0.610        0.189       90.791       16.511        0.033      335.588        6.324      868.144
11/23/2014  18:02:00      -91.996       78.978      -18.022       34.820       40.132       27.037     1212.414     1610.594      731.019        0.929        0.178      121.247       24.081        0.039      335.580        6.308      868.208
11/23/2014  18:03:00      -86.248      124.880      -22.821       40.024       53.628       26.788     1601.959     2875.931      717.590        1.437        0.260      151.769       20.946        0.019      335.563        6.282      868.254
11/23/2014  18:04:00      -98.856      144.347      -19.272       41.118       69.516       33.087     1690.655     4832.432     1094.774        1.930        0.381      174.953       36.627        0.044      335.550        6.256      868.262
11/23/2014  18:05:00      -97.073       93.893      -13.351       40.812       40.951       27.859     1665.614     1676.990      776.104        1.127        0.206      135.052       18.070        0.018      335.607        6.355      868.248
11/23/2014  18:06:00     -121.057      156.199      -41.388       45.993       42.966       33.909     2115.399     1846.063     1149.801        2.294        0.256      197.618       29.306        0.022      335.440        6.075      868.240
11/23/2014  18:07:00     -129.826      169.029      -33.335       56.550       55.528       38.120     3197.854     3083.409     1453.103        2.713        0.387      213.133       28.352        0.018      335.434        6.062      868.232
11/23/2014  18:08:00     -100.630      135.855      -25.029       40.585       52.846       31.013     1647.183     2792.667      961.826        1.730        0.270      169.065       28.481        0.028      335.469        6.121      868.257
11/23/2014  18:09:00     -127.418      176.180      -37.624       60.615       64.497       41.546     3674.203     4159.926     1726.034        2.912        0.478      217.427       35.517        0.027      335.433        6.061      868.298
11/23/2014  18:10:00     -128.855      114.895      -22.328       65.345       60.264       29.359     4269.940     3631.705      861.965        1.953        0.438      172.640       23.165        0.018      335.426        6.050      868.322
11/23/2014  18:11:00      -99.081      149.511      -25.171       40.384       57.049       36.852     1630.877     3254.600     1358.088        1.952        0.312      179.362       35.035        0.038      335.423        6.045      868.317
11/23/2014  18:12:00     -167.383      176.602      -45.308       59.926       59.134       39.063     3591.130     3496.855     1525.901        3.493        0.431      243.322       36.100        0.022      335.398        6.001      868.310
11/23/2014  18:13:00     -108.465       73.243      -18.906       43.611       42.611       27.325     1901.935     1815.656      746.666        1.097        0.223      130.878       20.458        0.024      335.467        6.120      868.287
11/23/2014  18:14:00     -113.422       66.809      -23.410       38.634       52.975       26.684     1492.588     2806.317      712.049        1.144        0.251      131.636       27.498        0.044      335.464        6.115      868.257
11/23/2014  18:15:00      -96.433       77.167      -15.341       53.278       44.423       34.182     2838.566     1973.388     1168.401        1.073        0.299      123.507       31.855        0.067      335.431        6.060      868.233
11/23/2014  18:16:00      -84.818       91.834      -13.038       39.938       59.494       33.723     1595.063     3539.563     1137.212        1.103        0.314      125.010       37.296        0.089      335.379        5.974      868.199
11/23/2014  18:17:00     -158.649      144.234      -40.004       61.210       57.781       30.690     3746.636     3338.619      941.870        2.780        0.401      214.413       32.081        0.022      335.368        5.954      868.162
11/23/2014  18:18:00     -109.522      148.104      -18.589       55.675       90.700       35.707     3099.726     8226.436     1274.984        2.344        0.630      184.201       32.954        0.032      335.381        5.974      868.145
11/23/2014  18:19:00     -154.809      164.391      -42.372       43.697       62.917       24.037     1909.433     3958.583      577.772        2.961        0.322      225.810       12.330        0.003      335.354        5.928      868.139
11/23/2014  18:20:00     -128.326       93.174      -25.068       44.616       53.541       24.709     1990.547     2866.686      610.528        1.562        0.273      158.584       16.699        0.011      335.369        5.956      868.145
11/23/2014  18:21:00     -142.502      106.484      -32.432       48.491       49.293       34.019     2351.334     2429.830     1157.267        1.932        0.297      177.892       27.512        0.024      335.321        5.875      868.183
11/23/2014  18:22:00     -133.368      128.236      -21.393       38.490       75.958       33.010     1481.512     5769.650     1089.667        2.151        0.417      185.018       28.940        0.024      335.325        5.881      868.210
11/23/2014  18:23:00     -145.214       58.150      -27.813       33.665       46.526       20.326     1133.343     2164.623      413.156        1.448        0.186      156.425       10.602        0.005      335.345        5.916      868.252
11/23/2014  18:24:00     -142.096       81.958      -12.476       57.054       45.289       30.991     3255.169     2051.117      960.415        1.666        0.313      164.037       28.982        0.031      335.427        6.053      868.279
11/23/2014  18:25:00     -146.834       74.023      -29.760       57.280       76.073       36.176     3280.989     5787.118     1308.711        1.915        0.519      164.437       26.092        0.025      335.207        5.685      868.293
11/23/2014  18:26:00     -160.274       94.340      -26.883       58.382       58.639       35.083     3408.422     3438.496     1230.829        2.169        0.404      185.978       33.726        0.033      335.195        5.666      868.312
11/23/2014  18:27:00     -130.320      -23.873      -13.079       65.898       44.315       26.880     4342.526     1963.803      722.550        1.238        0.351      132.489       27.956        0.045      335.374        5.966      868.338
11/23/2014  18:28:00     -170.616       38.733      -23.029       80.003       57.453       36.595     6400.488     3300.805     1339.217        2.109        0.552      174.957       47.683        0.074      335.190        5.658      868.342
11/23/2014  18:29:00      -91.477       -2.516      -12.456       35.539       43.027       24.354     1262.992     1851.348      593.122        0.612        0.185       91.511       21.609        0.056      335.176        5.636      868.352
11/23/2014  18:30:00     -135.248       80.110      -19.976       49.960       50.799       28.808     2496.021     2580.585      829.922        1.551        0.295      157.193       22.517        0.021      335.058        5.442      868.352
11/23/2014  18:31:00     -136.065       29.315      -10.649       56.770       34.318       29.119     3222.810     1177.757      847.940        1.237        0.262      139.187       27.248        0.038      335.202        5.678      868.340
11/23/2014  18:32:00     -155.708       28.553      -22.125       29.189       31.910       19.849      852.011     1018.270      393.978        1.391        0.113      158.304       11.397        0.005      335.144        5.581      868.355
11/23/2014  18:33:00      -94.693        1.700      -10.623       30.856       34.758       20.368      952.106     1208.104      414.856        0.583        0.129       94.709       14.560        0.024      335.092        5.497      868.371
11/23/2014  18:34:00     -131.872       38.791      -31.525       38.643       46.745       21.595     1493.244     2185.078      466.348        1.202        0.207      137.458       23.777        0.030      335.107        5.522      868.393
11/23/2014  18:35:00      -65.863      -15.937      -10.225       32.644       35.255       23.231     1065.633     1242.908      539.660        0.377        0.142       67.763       10.695        0.025      335.196        5.669      868.403
11/23/2014  18:36:00      -77.019      -38.838       -3.960       32.460       35.930       20.909     1053.639     1290.951      437.181        0.512        0.139       86.258       18.095        0.044      335.026        5.388      868.367
11/23/2014  18:37:00     -106.781       -9.863      -14.607       39.979       37.828       22.516     1598.294     1430.943      506.986        0.762        0.177      107.236       21.084        0.039      334.999        5.343      868.334
11/23/2014  18:38:00      -81.834       11.804      -13.628       38.848       43.561       28.183     1509.145     1897.570      794.308        0.561        0.210       82.681       17.455        0.045      334.961        5.278      868.328
11/23/2014  18:39:00      -72.187      -20.524       -9.705       45.013       46.133       21.042     2026.139     2128.266      442.754        0.516        0.230       75.048       24.255        0.104      334.931        5.229      868.325
11/23/2014  18:40:00      -84.621       14.123      -12.699       38.056       29.414       23.986     1448.286      865.160      575.343        0.520        0.144       85.791       21.969        0.066      335.012        5.365      868.304
11/23/2014  18:41:00      -89.995       -7.141       -2.744       30.614       47.749       19.505      937.196     2280.012      380.450        0.588        0.180       90.278       12.599        0.019      334.966        5.286      868.288
11/23/2014  18:42:00      -60.152      -34.138       -1.762       48.854       33.845       21.184     2386.672     1145.513      448.775        0.438        0.199       69.164       23.830        0.119      334.883        5.150      868.293
11/23/2014  18:43:00      -98.242      -27.438      -12.033       29.377       33.359       19.033      863.032     1112.826      362.265        0.644        0.117      102.001        4.068        0.002      334.908        5.192      868.314
11/23/2014  18:44:00     -107.787      -46.152       -8.556       30.919       28.852       16.169      956.005      832.465      261.443        0.794        0.102      117.252       18.790        0.026      334.777        4.974      868.317
11/23/2014  18:45:00      -71.458      -19.497      -10.503       25.348       24.486       16.120      642.500      599.584      259.857        0.355        0.075       74.070       11.742        0.025      334.836        5.071      868.300
11/23/2014  18:46:00      -70.291        7.563      -10.874       31.063       65.696       31.382      964.935     4315.908      984.814        0.569        0.313       70.696       34.961        0.245      334.831        5.063      868.286
11/23/2014  18:47:00      -97.881      -43.342      -13.554       24.895       26.562       15.291      619.742      705.515      233.830        0.660        0.078      107.048        6.346        0.004      334.836        5.071      868.305
11/23/2014  18:48:00      -80.310      -33.937        0.971       54.508       36.370       22.115     2971.074     1322.806      489.082        0.619        0.239       87.186       29.549        0.115      334.784        4.985      868.348
11/23/2014  18:49:00     -105.608      -38.602      -18.223       29.027       28.123       18.420      842.567      790.929      339.292        0.747        0.099      112.442       16.331        0.021      334.796        5.005      868.382
11/23/2014  18:50:00     -107.377      -42.263      -12.997       27.244       24.489       18.511      742.232      599.707      342.650        0.758        0.084      115.395       11.536        0.010      334.786        4.987      868.390
11/23/2014  18:51:00      -83.921      -45.068        2.022       45.214       24.671       22.534     2044.333      608.670      507.801        0.612        0.158       95.257       25.521        0.072      334.664        4.784      868.405
11/23/2014  18:52:00     -113.735       -1.009      -18.830       25.623       25.596       17.999      656.548      655.155      323.973        0.746        0.082      113.739       14.323        0.016      334.882        5.149      868.441
11/23/2014  18:53:00     -102.318        1.150      -14.667       27.952       25.887       21.260      781.327      670.152      452.005        0.629        0.095      102.324       17.832        0.030      334.955        5.268      868.460
11/23/2014  18:54:00     -111.006       12.133      -10.156       37.934       31.761       23.654     1438.984     1008.755      559.530        0.779        0.150      111.667       21.987        0.039      335.008        5.358      868.496
11/23/2014  18:55:00      -94.431        6.372       -5.776       34.444       37.727       19.404     1186.385     1423.330      376.515        0.599        0.149       94.646       16.156        0.029      334.934        5.235      868.528
11/23/2014  18:56:00      -68.313       23.350      -11.105       20.146       28.099       19.829      405.862      789.550      393.190        0.346        0.079       72.194        9.523        0.017      334.956        5.271      868.526
11/23/2014  18:57:00      -62.439       40.546      -17.054       30.429       42.650       18.231      925.903     1818.980      332.383        0.445        0.154       74.449       16.387        0.048      334.986        5.321      868.508
11/23/2014  18:58:00      -68.453       54.031      -16.182       17.132       23.104       13.974      293.502      533.789      195.271        0.444        0.051       87.207       11.379        0.017      335.052        5.431      868.507
11/23/2014  18:59:00      -62.551       74.549      -16.444       23.584       29.891       17.073      556.196      893.445      291.494        0.574        0.087       97.315       13.490        0.019      335.096        5.504      868.511
11/23/2014  19:00:00     -102.533      116.747      -33.063       24.591       40.998       19.035      604.735     1680.857      362.350        1.394        0.132      155.379       17.463        0.013      335.051        5.429      868.520
11/23/2014  19:01:00     -102.150      106.706      -28.818       25.041       26.395       18.259      627.073      696.681      333.397        1.215        0.083      147.719       13.728        0.009      334.987        5.321      868.541
11/23/2014  19:02:00      -77.965       64.121      -17.943       29.110       28.481       20.918      847.365      811.165      437.574        0.630        0.105      100.946       18.829        0.035      335.121        5.546      868.573
11/23/2014  19:03:00      -95.480      108.286      -25.175       32.435       46.420       20.104     1052.009     2154.794      404.164        1.254        0.181      144.369       19.552        0.018      335.058        5.440      868.594
11/23/2014  19:04:00      -82.178       82.467      -20.039       25.304       35.261       19.738      640.315     1243.314      389.579        0.811        0.114      116.422       18.481        0.025      335.096        5.504      868.602
11/23/2014  19:05:00      -87.362       64.966      -13.608       32.726       34.264       22.408     1070.963     1174.033      502.104        0.739        0.137      108.870       21.999        0.041      335.206        5.686      868.618
11/23/2014  19:06:00      -80.792       58.865      -10.205       31.675       32.041       20.617     1003.313     1026.632      425.045        0.628        0.123       99.962       16.509        0.027      335.165        5.618      868.643
11/23/2014  19:07:00      -74.431       34.112       -1.824       35.981       22.771       19.420     1294.621      518.516      377.120        0.445        0.110       81.875       11.291        0.019      335.198        5.674      868.659
11/23/2014  19:08:00      -96.149       77.901      -24.337       33.385       35.760       17.565     1114.562     1278.751      308.539        0.930        0.135      123.746       17.036        0.019      335.079        5.477      868.672
11/23/2014  19:09:00      -67.446       72.729      -10.167       39.600       36.466       25.365     1568.172     1329.767      643.400        0.674        0.177       99.189       28.478        0.082      335.014        5.367      868.686
11/23/2014  19:10:00      -67.478      127.682      -23.194       28.109       29.651       21.272      790.138      879.174      452.516        1.176        0.106      144.416       12.205        0.007      334.976        5.304      868.711
11/23/2014  19:11:00      -91.305      109.988      -28.639       31.039       23.681       16.912      963.413      560.812      286.018        1.153        0.091      142.948       16.120        0.013      334.999        5.342      868.727
11/23/2014  19:12:00      -12.992       72.494       -7.569       26.191       34.053       15.663      685.965     1159.611      245.321        0.379        0.105       73.649       13.916        0.036      335.061        5.446      868.735
11/23/2014  19:13:00       -3.011      135.052      -23.805       30.733       26.312       13.543      944.525      692.345      183.425        1.032        0.091      135.086        5.595        0.002      334.874        5.134      868.736
11/23/2014  19:14:00      -32.611      134.169      -21.353       25.618       23.917       14.125      656.279      572.005      199.515        1.047        0.071      138.076       11.613        0.007      334.944        5.250      868.738
11/23/2014  19:15:00      -42.720      133.011      -21.120       35.648       38.760       16.984     1270.757     1502.309      288.440        1.151        0.153      139.703        8.790        0.004      335.009        5.359      868.747
11/23/2014  19:16:00     -129.188      137.958      -36.633       43.453       61.175       31.067     1888.135     3742.338      965.144        2.183        0.330      189.003       30.338        0.026      334.882        5.146      868.768
11/23/2014  19:17:00     -111.002      109.149      -19.886       32.693       45.980       31.364     1068.843     2114.195      983.670        1.440        0.208      155.676       25.682        0.027      334.828        5.057      868.790
11/23/2014  19:18:00     -121.746       69.697      -16.342       43.944       40.988       23.744     1931.049     1680.053      563.793        1.206        0.209      140.285       22.739        0.026      334.876        5.137      868.828
11/23/2014  19:19:00     -102.687       44.151      -24.007       35.449       44.787       16.247     1256.612     2005.842      263.957        0.830        0.176      111.776       11.400        0.010      334.903        5.184      868.883
11/23/2014  19:20:00     -107.600       48.187      -10.983       26.496       21.617       21.617      702.058      467.290      467.275        0.783        0.082      117.897       10.065        0.007      334.862        5.115      868.936
11/23/2014  19:21:00     -108.881       47.569      -20.797       47.639       25.472       23.533     2269.491      648.846      553.808        0.901        0.174      118.819       23.344        0.039      334.831        5.064      868.965
11/23/2014  19:22:00      -70.404       20.510       -9.105       31.789       26.023       25.186     1010.510      677.175      634.341        0.389        0.116       73.331       14.509        0.039      334.981        5.313      868.983
11/23/2014  19:23:00      -60.794      -12.168       -2.229       40.511       29.566       20.123     1641.175      874.169      404.917        0.338        0.146       61.999       23.206        0.140      334.845        5.086      868.988
11/23/2014  19:24:00      -82.254      -46.347      -12.486       30.252       28.431       18.260      915.196      808.333      333.409        0.556        0.103       94.412       11.909        0.016      334.771        4.964      868.982
11/23/2014  19:25:00      -90.844      -38.837      -13.424       26.656       28.196       21.679      710.560      795.026      470.000        0.596        0.099       98.797       12.040        0.015      334.767        4.959      868.978
11/23/2014  19:26:00      -55.349      -14.199       -9.793       23.796       18.760       12.600      566.255      351.947      158.763        0.222        0.054       57.141        8.520        0.022      334.741        4.914      868.966
11/23/2014  19:27:00      -37.220       19.106        0.672       42.238       32.526       23.280     1784.085     1057.941      541.979        0.257        0.169       41.838       23.203        0.308      334.747        4.924      868.971
11/23/2014  19:28:00      -12.784       47.928       -7.742       38.879       34.956       20.243     1511.592     1221.907      409.787        0.283        0.157       49.604       25.332        0.261      334.784        4.986      868.998
11/23/2014  19:29:00      -67.550       99.502      -16.802       35.581       40.572       27.003     1266.001     1646.115      729.182        0.919        0.182      120.265       24.142        0.040      334.764        4.951      869.005
11/23/2014  19:30:00      -42.750        3.909        1.307       55.771       31.775       28.668     3110.418     1009.662      821.845        0.339        0.247       42.929       25.723        0.359      334.792        4.999      868.987
11/23/2014  19:31:00      -75.768       68.983      -18.206       50.480       61.297       29.181     2548.235     3757.291      851.558        0.899        0.358      102.467       37.378        0.133      334.696        4.838      868.985
11/23/2014  19:32:00      -91.748      103.447      -22.402       51.000       35.338       20.523     2601.017     1248.808      421.190        1.195        0.214      138.272       17.877        0.017      334.643        4.750      869.003
11/23/2014  19:33:00      -11.463      109.844      -12.283       51.315       36.271       28.845     2633.189     1315.619      832.019        0.856        0.239      110.441       18.680        0.029      334.503        4.519      869.024
11/23/2014  19:34:00       56.938      135.293       -8.718       58.323       56.854       47.510     3401.553     3232.327     2257.246        1.525        0.445      146.786       41.755        0.081      334.431        4.397      869.033
11/23/2014  19:35:00      -83.514      231.534      -39.389       46.604       73.592       28.489     2171.944     5415.715      811.619        3.526        0.420      246.135       20.408        0.007      334.498        4.507      869.029
11/23/2014  19:36:00      -26.099      174.270      -23.172       59.539       36.040       26.273     3544.935     1298.865      690.258        1.856        0.277      176.213       18.189        0.011      334.555        4.604      869.047
11/23/2014  19:37:00       48.970       66.962       -1.857       38.442       33.558       22.771     1477.751     1126.161      518.520        0.500        0.156       82.958       16.714        0.041      334.469        4.462      869.062
11/23/2014  19:38:00       47.572       44.181       -1.552       42.301       28.155       23.325     1789.399      792.727      544.033        0.367        0.156       64.924        8.429        0.017      334.427        4.394      869.073
11/23/2014  19:39:00       16.775       91.622      -10.965       32.909       31.792       21.425     1082.975     1010.753      459.040        0.567        0.128       93.145       19.441        0.044      334.398        4.343      869.086
11/23/2014  19:40:00        1.872      113.835      -14.138       41.900       45.215       28.962     1755.641     2044.440      838.788        0.890        0.232      113.850       27.165        0.057      334.403        4.354      869.099
11/23/2014  19:41:00        9.965       87.764       -9.028       36.079       52.026       23.094     1301.665     2706.691      533.332        0.621        0.227       88.328       27.576        0.097      334.327        4.227      869.131
11/23/2014  19:42:00      -15.782      119.704      -14.613       24.586       40.847       27.366      604.490     1668.462      748.923        0.891        0.151      120.740       25.230        0.044      334.351        4.267      869.147
11/23/2014  19:43:00      -73.339       60.409       -9.921       48.183       72.620       20.819     2321.646     5273.641      433.451        0.858        0.401       95.015       24.191        0.065      334.441        4.416      869.146
11/23/2014  19:44:00      -86.587       -7.125      -19.010       33.433       48.666       20.101     1117.771     2368.344      404.056        0.590        0.195       86.880       23.117        0.071      334.404        4.356      869.133
11/23/2014  19:45:00      -39.834       26.053      -18.051       23.379       40.547       17.320      546.574     1644.025      299.986        0.254        0.125       47.597        8.863        0.035      334.379        4.313      869.132
11/23/2014  19:46:00       -3.166       29.737      -11.364        9.733       18.446       12.922       94.726      340.272      166.974        0.081        0.030       29.905       11.123        0.138      334.396        4.342      869.142
11/23/2014  19:47:00       27.410       45.571        1.520       20.396       29.161       16.030      416.001      850.380      256.972        0.218        0.076       53.179        7.815        0.022      334.389        4.330      869.161
11/23/2014  19:48:00       -4.479       83.171        1.805       30.256       48.656       21.108      915.439     2367.379      445.550        0.533        0.186       83.292       22.417        0.072      334.328        4.228      869.174
11/23/2014  19:49:00      -32.674       72.691      -16.803       31.145       33.462       16.813      970.012     1119.692      282.666        0.450        0.119       79.697       19.316        0.059      334.515        4.540      869.177
11/23/2014  19:50:00      -15.509       78.169       -7.695       48.108       65.746       30.325     2314.413     4322.476      919.615        0.698        0.378       79.692       36.421        0.209      334.383        4.318      869.174
11/23/2014  19:51:00      -42.601      109.432      -12.271       41.541       36.391       22.564     1725.693     1324.269      509.156        0.875        0.178      117.432       21.495        0.034      334.520        4.547      869.185
11/23/2014  19:52:00      -81.579      127.018      -27.238       26.274       64.722       20.117      690.337     4188.954      404.689        1.441        0.264      150.959       13.506        0.008      334.434        4.405      869.200
11/23/2014  19:53:00      -69.988       46.784      -16.284       35.735       45.245       23.868     1277.013     2047.107      569.680        0.562        0.195       84.184       29.988        0.127      334.473        4.469      869.226
11/23/2014  19:54:00      -40.097       26.939      -10.687       42.619       34.964       15.642     1816.338     1222.466      244.676        0.286        0.164       48.307       12.257        0.064      334.480        4.480      869.246
11/23/2014  19:55:00        0.580      -31.357       -5.927       10.965       20.977        9.758      120.230      440.023       95.225        0.084        0.033       31.362        5.579        0.032      334.511        4.531      869.258
11/23/2014  19:56:00      -66.492      -25.671       -0.817       33.793       23.284       18.118     1141.975      542.168      328.252        0.355        0.101       71.275       19.005        0.071      334.363        4.286      869.262
11/23/2014  19:57:00      -36.699      -15.167       -8.515       13.952       12.199        6.555      194.660      148.812       42.969        0.102        0.019       39.710        5.474        0.019      334.409        4.365      869.280
11/23/2014  19:58:00      -66.642      -47.059      -10.209       21.321       13.886        9.381      454.589      192.834       87.994        0.375        0.037       81.583        6.220        0.006      334.415        4.374      869.304
11/23/2014  19:59:00      -52.520      -31.456       -9.528       21.447       14.617        9.195      459.988      213.643       84.540        0.230        0.038       61.220        7.078        0.013      334.372        4.303      869.298
11/23/2014  20:00:00      -45.337      -43.320       -6.366       25.369       16.362       11.258      643.567      267.722      126.745        0.251        0.052       62.706        3.277        0.003      334.386        4.326      869.297
11/23/2014  20:01:00       -9.201      -21.563        2.747       10.945       25.509       12.095      119.797      650.689      146.294        0.074        0.046       23.444        8.689        0.137      334.418        4.378      869.294
11/23/2014  20:02:00      -26.344        7.998        3.025       17.535       20.410       12.589      307.466      416.548      158.491        0.082        0.044       27.531        7.899        0.082      334.445        4.423      869.277
11/23/2014  20:03:00      -22.417        8.500       -5.175       18.769       21.537       11.360      352.279      463.822      129.042        0.077        0.047       23.974        8.091        0.114      334.459        4.446      869.260
11/23/2014  20:04:00      -46.258      -15.664       -1.520       21.300       11.524        7.662      453.697      132.800       58.706        0.152        0.032       48.838        3.366        0.005      334.448        4.428      869.269
11/23/2014  20:05:00      -53.537      -29.133       -4.990       30.591       13.917       10.261      935.797      193.669      105.289        0.249        0.062       60.950        8.789        0.021      334.325        4.224      869.281
11/23/2014  20:06:00      -74.547      -32.684       -6.499        9.563        9.209        6.911       91.450       84.810       47.756        0.345        0.011       81.397        2.007        0.001      334.338        4.247      869.275
11/23/2014  20:07:00      -74.196      -42.086       -6.446       17.862       13.779       10.423      319.058      189.855      108.631        0.397        0.031       85.301        5.940        0.005      334.364        4.288      869.256
11/23/2014  20:08:00      -87.211      -36.017       -6.407       18.270       16.812        9.994      333.792      282.649       99.882        0.483        0.036       94.355        7.014        0.006      334.314        4.205      869.233
11/23/2014  20:09:00      -68.285      -47.959       -0.265       37.704       23.704       27.398     1421.569      561.876      750.625        0.485        0.137       83.444       23.689        0.081      334.226        4.060      869.215
11/23/2014  20:10:00      -81.505      -59.647       -9.289       34.823       27.602       17.465     1212.649      761.893      305.020        0.628        0.114      100.999       18.748        0.034      334.223        4.052      869.217
11/23/2014  20:11:00      -68.994      -48.063       -0.294       43.267       22.333       17.010     1872.043      498.752      289.324        0.486        0.133       84.085       16.914        0.040      334.160        3.949      869.231
11/23/2014  20:12:00      -87.146      -42.858        6.561       33.696       17.609       18.943     1135.445      310.078      358.842        0.564        0.090       97.114       18.969        0.038      334.132        3.902      869.259
11/23/2014  20:13:00      -55.582      -43.311       -0.103       24.419       24.360       15.548      596.305      593.429      241.746        0.320        0.072       70.465       16.074        0.052      334.143        3.920      869.278
11/23/2014  20:14:00       -7.452      -22.128        1.644       31.264       27.062       23.534      977.453      732.363      553.840        0.141        0.113       23.349       17.482        0.561      334.134        3.908      869.292
11/23/2014  20:15:00        2.765      -34.650       -2.616       20.788       25.155       17.237      432.136      632.771      297.100        0.129        0.068       34.760       13.177        0.144      334.191        4.001      869.310
11/23/2014  20:16:00        4.910       32.887       35.667       27.756       34.285       26.932      770.421     1175.439      725.339        0.252        0.134       33.251       26.441        0.632      334.088        3.830      869.333
11/23/2014  20:17:00       -5.119       27.463       49.097       36.456       41.304       31.398     1329.057     1706.010      985.817        0.361        0.201       27.936       21.526        0.594      333.999        3.683      869.383
11/23/2014  20:18:00       24.431       68.250       69.046       47.393       32.134       33.218     2246.105     1032.589     1103.402        0.720        0.219       72.491       29.074        0.161      333.906        3.527      869.432
11/23/2014  20:19:00       64.577       27.884       33.096       34.334       31.347       28.729     1178.840      982.610      825.370        0.451        0.149       70.340       28.222        0.161      333.838        3.416      869.457
11/23/2014  20:20:00       30.584       -1.921       21.433       34.684       19.490       17.435     1202.996      379.863      303.994        0.164        0.094       30.644       19.571        0.408      333.903        3.524      869.452
11/23/2014  20:21:00       -5.261      -11.681       16.012       11.820       12.492       11.661      139.717      156.046      135.975        0.043        0.022       12.811        6.019        0.221      333.990        3.667      869.441
11/23/2014  20:22:00      -25.192       -8.760        1.793       12.789       11.346       10.110      163.567      128.721      102.206        0.055        0.020       26.672        6.705        0.063      333.959        3.617      869.451
11/23/2014  20:23:00      -35.916       -8.424        3.349       35.046       28.348       16.131     1228.200      803.629      260.213        0.183        0.115       36.890       15.225        0.170      334.012        3.705      869.454
11/23/2014  20:24:00      -69.235      -55.935        0.249       41.014       37.218       19.529     1682.139     1385.196      381.394        0.568        0.172       89.007       11.280        0.016      333.997        3.680      869.431
11/23/2014  20:25:00      -73.155      -47.579        0.560       44.519       28.836       22.390     1981.950      831.535      501.317        0.546        0.166       87.266       13.648        0.024      334.000        3.686      869.412
11/23/2014  20:26:00      -27.639      -39.868        8.429       28.849       20.524       17.914      832.248      421.232      320.904        0.200        0.079       48.511       11.661        0.058      333.964        3.625      869.399
11/23/2014  20:27:00      -72.727      -55.668        0.711       40.307       29.183       18.378     1624.667      851.621      337.748        0.560        0.141       91.587       21.639        0.056      333.936        3.578      869.394
11/23/2014  20:28:00      -44.053      -34.783        4.593       32.834       21.246       15.156     1078.091      451.405      229.702        0.247        0.088       56.130       16.152        0.083      333.997        3.681      869.403
11/23/2014  20:29:00      -40.175      -46.613        2.490       30.508       17.880       17.114      930.761      319.690      292.890        0.267        0.077       61.537       18.593        0.091      334.035        3.742      869.418
11/23/2014  20:30:00      -21.652      -28.568       -3.235       28.935       15.000        9.954      837.225      225.011       99.078        0.123        0.058       35.846        8.066        0.051      334.032        3.737      869.430
11/23/2014  20:31:00       -5.742       -2.845        8.975       14.964       14.475       10.566      223.930      209.536      111.644        0.033        0.027        6.408       10.506        2.688      333.982        3.654      869.451
11/23/2014  20:32:00      -20.398      -20.902        2.516       28.001       19.544       11.087      784.073      381.952      122.911        0.107        0.064       29.205       10.592        0.132      333.996        3.678      869.487
11/23/2014  20:33:00      -40.922      -34.599        0.819       18.094       22.315       11.114      327.405      497.943      123.527        0.191        0.047       53.588        9.358        0.030      334.010        3.700      869.533
11/23/2014  20:34:00      -25.213      -20.874        4.602       21.470       19.621       12.362      460.971      384.996      152.822        0.105        0.050       32.732       14.170        0.187      333.901        3.520      869.560
11/23/2014  20:35:00      -38.246       -0.538        2.621       22.891       23.459       13.148      523.977      550.307      172.874        0.136        0.062       38.249       11.536        0.091      333.807        3.366      869.553
11/23/2014  20:36:00      -63.782      -12.138       -1.733       35.839       25.663       16.583     1284.467      658.593      274.992        0.322        0.111       64.927       16.928        0.068      333.670        3.136      869.527
11/23/2014  20:37:00      -89.181      -13.568        1.192       39.049       32.570       23.180     1524.827     1060.822      537.290        0.563        0.156       90.208       23.116        0.066      333.564        2.961      869.517
11/23/2014  20:38:00      -94.032      -13.478       -0.129       36.691       31.391       21.023     1346.211      985.371      441.946        0.590        0.139       94.993       18.782        0.039      333.518        2.885      869.503
11/23/2014  20:39:00     -120.203      -29.479        1.624       43.551       30.282       25.484     1896.717      916.986      649.416        0.939        0.173      123.765       24.802        0.040      333.546        2.931      869.505
11/23/2014  20:40:00     -105.583      -23.961       -3.567       33.964       37.124       23.887     1153.552     1378.216      570.604        0.742        0.155      108.268       18.102        0.028      333.497        2.851      869.523
11/23/2014  20:41:00     -141.520        3.834      -18.047       29.702       31.776       21.243      882.188     1009.692      451.270        1.136        0.117      141.572       18.182        0.016      333.588        3.000      869.552
11/23/2014  20:42:00     -123.966       -3.383       -8.383       26.919       34.691       21.674      724.627     1203.449      469.771        0.892        0.120      124.012       17.673        0.020      333.413        2.711      869.586
11/23/2014  20:43:00     -119.333      -47.972      -19.415       22.268       17.059       11.798      495.875      290.994      139.189        0.892        0.046      128.614       10.466        0.007      333.411        2.708      869.633
11/23/2014  20:44:00      -47.432      -39.500        1.084       41.686       24.549       21.363     1737.751      602.631      456.362        0.330        0.140       61.725       23.357        0.143      333.419        2.720      869.679
11/23/2014  20:45:00      -56.729      -22.832       -2.584       35.464       21.889       14.362     1257.728      479.108      206.270        0.284        0.097       61.151       16.494        0.073      333.452        2.776      869.715
11/23/2014  20:46:00      -84.608       -8.925       -6.405       25.628       22.808       10.846      656.808      520.198      117.632        0.429        0.065       85.078        9.939        0.014      333.409        2.705      869.719
11/23/2014  20:47:00     -120.054       -4.527      -15.425       11.802       14.230       12.245      139.298      202.494      149.932        0.758        0.025      120.140        6.509        0.003      333.370        2.641      869.707
11/23/2014  20:48:00     -128.054        0.661      -15.644       18.163       16.847       14.486      329.878      283.830      209.844        0.873        0.041      128.056       10.912        0.007      333.356        2.618      869.698
11/23/2014  20:49:00     -122.593      -25.755      -19.418       26.077       30.199       14.047      679.989      911.962      197.332        0.893        0.089      125.269       12.507        0.010      333.387        2.668      869.710
11/23/2014  20:50:00     -113.481      -18.170      -15.222       23.726       20.417       12.159      562.945      416.873      147.843        0.728        0.056      114.927        6.353        0.003      333.388        2.668      869.721
11/23/2014  20:51:00     -149.579       -8.394      -10.296       36.449       28.986       24.229     1328.522      840.180      587.055        1.265        0.138      149.814       22.539        0.023      333.286        2.501      869.726
11/23/2014  20:52:00     -152.138      -22.661      -16.967       50.324       44.230       26.889     2532.517     1956.262      723.030        1.458        0.261      153.816       31.521        0.042      333.167        2.305      869.748
11/23/2014  20:53:00     -137.606       16.349      -15.321       45.995       30.066       21.075     2115.513      903.942      444.141        1.145        0.173      138.574       18.057        0.017      333.193        2.347      869.765
11/23/2014  20:54:00     -112.698       13.231      -16.499       42.308       30.975       16.951     1789.943      959.481      287.327        0.809        0.152      113.472        9.472        0.007      333.199        2.357      869.774
11/23/2014  20:55:00     -108.246       -6.833      -10.612       27.896       33.920       20.324      778.212     1150.553      413.060        0.711        0.117      108.462       13.755        0.016      333.328        2.571      869.795
11/23/2014  20:56:00      -99.121      -39.137      -13.396       19.762       26.980       15.077      390.533      727.916      227.326        0.644        0.067      106.567        9.321        0.008      333.322        2.560      869.814
11/23/2014  20:57:00      -73.316      -23.186       -9.378       21.483       24.696       14.570      461.534      609.893      212.294        0.364        0.064       76.895        9.820        0.016      333.343        2.595      869.830
11/23/2014  20:58:00      -58.056      -30.852       -9.974       20.135       24.000       14.063      405.399      575.998      197.778        0.280        0.059       65.744        8.128        0.015      333.162        2.295      869.826
11/23/2014  20:59:00      -54.258      -20.473        6.969       26.945       24.441       18.180      726.039      597.345      330.519        0.253        0.083       57.992       11.063        0.036      333.255        2.448      869.823
11/23/2014  21:00:00      -62.302      -18.370       -3.134       22.051       23.896       15.681      486.251      571.019      245.886        0.277        0.065       64.954        9.319        0.021      333.285        2.499      869.836
11/23/2014  21:01:00      -48.830        4.536       -2.944       20.920       19.318       11.665      437.649      373.166      136.062        0.168        0.047       49.040        5.502        0.013      333.378        2.654      869.857
11/23/2014  21:02:00      -40.945      -12.514       -7.519       17.373       20.181       12.188      301.827      407.274      148.550        0.137        0.043       42.815        6.269        0.021      333.404        2.697      869.871
11/23/2014  21:03:00      -34.051       -7.094      -11.267       20.648       23.441       10.523      426.357      549.493      110.726        0.121        0.054       34.782        5.280        0.023      333.486        2.832      869.904
11/23/2014  21:04:00       10.250       22.832       -1.683       20.781       14.105        9.217      431.862      198.963       84.955        0.067        0.036       25.027        7.982        0.102      333.518        2.885      869.922
11/23/2014  21:05:00       17.187       19.803        1.647        9.778        8.364        9.342       95.617       69.950       87.277        0.047        0.013       26.221        2.877        0.012      333.507        2.867      869.951
11/23/2014  21:06:00       11.506       56.944       -7.181       13.126       22.813        6.962      172.284      520.428       48.465        0.208        0.037       58.095        9.578        0.027      333.688        3.167      869.970
11/23/2014  21:07:00        5.803       74.507       -6.878       12.677       15.650        8.000      160.694      244.938       64.007        0.305        0.023       74.732        7.105        0.009      333.788        3.333      869.998
11/23/2014  21:08:00        7.945       76.716       -6.330       13.962       17.886        9.596      194.927      319.921       92.075        0.330        0.030       77.126        7.436        0.009      333.912        3.539      870.038
11/23/2014  21:09:00       -0.893       91.815       -4.705       14.163       18.950       11.062      200.603      359.110      122.367        0.457        0.034       91.820        6.739        0.005      333.842        3.423      870.057
11/23/2014  21:10:00        4.446       86.848       -8.342       21.007       20.327       11.655      441.274      413.206      135.835        0.431        0.050       86.962        9.893        0.013      333.911        3.538      870.072
11/23/2014  21:11:00       21.320      108.428      -14.928       15.322       17.058       10.699      234.761      290.984      114.462        0.654        0.032      110.504        8.237        0.006      333.864        3.458      870.100
11/23/2014  21:12:00       -0.992      112.188      -13.008       31.809       54.106       21.549     1011.803     2927.409      464.376        0.858        0.220      112.193       29.654        0.070      333.800        3.350      870.125
11/23/2014  21:13:00       27.473      119.161      -23.458       21.625       26.463       15.035      467.627      700.267      226.045        0.845        0.070      122.287       13.270        0.012      333.759        3.285      870.146
11/23/2014  21:14:00       15.059       87.609      -13.522       20.246       26.737       12.514      409.908      714.873      156.591        0.468        0.064       88.893       11.742        0.017      333.672        3.139      870.163
11/23/2014  21:15:00       -0.702       61.723        0.377       34.700       41.206       18.407     1204.101     1697.922      338.809        0.352        0.162       61.727       20.530        0.111      333.679        3.151      870.183
11/23/2014  21:16:00       28.546       86.510       -4.051       28.177       39.140       22.887      793.935     1531.902      523.815        0.558        0.142       91.098       25.907        0.081      333.531        2.907      870.202
11/23/2014  21:17:00       48.675       71.728       -1.169       34.711       38.462       25.465     1204.831     1479.341      648.460        0.542        0.167       86.685       27.745        0.102      333.511        2.874      870.194
11/23/2014  21:18:00       47.369       33.631       -6.267       26.000       20.935       15.623      675.987      438.278      244.094        0.239        0.068       58.094       11.992        0.043      333.502        2.858      870.167
11/23/2014  21:19:00       20.317       28.394       -3.227       11.878       22.606       12.659      141.086      511.024      160.250        0.102        0.041       34.914        7.434        0.045      333.468        2.802      870.166
11/23/2014  21:20:00       10.075       39.979      -10.194        9.926        8.884        8.166       98.528       78.930       66.682        0.102        0.012       41.229        6.413        0.024      333.475        2.814      870.186
11/23/2014  21:21:00      -38.272      -21.255        1.921       46.686       34.273       14.773     2179.559     1174.627      218.233        0.275        0.179       43.778       15.229        0.121      333.360        2.624      870.202
11/23/2014  21:22:00      -79.493      -41.074       -8.422       21.802       18.039       13.441      475.324      325.416      180.659        0.453        0.049       89.477        7.530        0.007      333.188        2.340      870.199
11/23/2014  21:23:00     -122.471      -45.997       -2.179       30.474       28.642       18.189      928.689      820.380      330.846        0.960        0.104      130.824       12.326        0.009      333.111        2.212      870.206
11/23/2014  21:24:00     -108.397      -52.094        2.462       38.323       26.415       19.091     1468.639      697.773      364.481        0.850        0.127      120.265       18.047        0.023      333.032        2.081      870.228
11/23/2014  21:25:00     -133.079      -27.406       -4.937       28.155       31.980       20.327      792.696     1022.740      413.189        1.036        0.111      135.871       15.505        0.013      332.940        1.930      870.243
11/23/2014  21:26:00     -126.196      -21.100       -2.794       31.437       30.576       19.443      988.263      934.872      378.032        0.934        0.115      127.948       16.091        0.016      332.835        1.756      870.234
11/23/2014  21:27:00     -100.532      -39.425        1.824       36.372       24.785       17.502     1322.934      614.281      306.311        0.695        0.112      107.986       15.726        0.021      332.890        1.847      870.207
11/23/2014  21:28:00      -83.646      -22.266       -0.466       28.044       34.978       15.273      786.493     1223.450      233.265        0.487        0.112       86.559       15.435        0.032      332.968        1.976      870.190
11/23/2014  21:29:00     -133.706       -4.925      -10.599       25.821       21.278       17.485      666.707      452.732      305.738        0.972        0.071      133.796       16.329        0.015      332.908        1.877      870.174
11/23/2014  21:30:00      -70.982      -32.696        3.115       47.816       28.594       19.575     2286.381      817.608      383.179        0.480        0.174       78.151       23.923        0.094      332.983        2.001      870.150
11/23/2014  21:31:00      -58.120      -39.391        4.217       45.180       35.925       21.202     2041.252     1290.577      449.504        0.436        0.189       70.211       20.490        0.085      333.166        2.302      870.159
11/23/2014  21:32:00      -86.972      -36.650        1.033       33.490       31.418       20.618     1121.603      987.082      425.105        0.572        0.127       94.379       20.090        0.045      333.155        2.285      870.179
11/23/2014  21:33:00      -63.849      -31.060      -13.232       15.492       16.986       11.083      239.994      288.538      122.839        0.293        0.033       71.003        8.694        0.015      333.203        2.363      870.177
11/23/2014  21:34:00      -82.331      -37.382      -10.808       28.812       22.172       11.914      830.121      491.594      141.947        0.488        0.073       90.420        5.379        0.004      333.187        2.335      870.155
11/23/2014  21:35:00      -66.148      -22.945       -3.799       27.993       25.588       12.904      783.587      654.738      166.508        0.326        0.080       70.014       14.413        0.042      333.137        2.255      870.162
11/23/2014  21:36:00      -52.878      -18.234       -1.665       28.305       20.764       19.268      801.149      431.156      371.252        0.237        0.080       55.934       17.269        0.095      333.108        2.207      870.203
11/23/2014  21:37:00      -28.025      -21.066       -0.600       30.516       21.459       11.157      931.214      460.475      124.471        0.137        0.076       35.059       13.537        0.149      333.095        2.187      870.242
11/23/2014  21:38:00      -68.188      -28.296       -5.700       24.155       17.009       11.830      583.459      289.319      139.943        0.325        0.051       73.826        9.405        0.016      333.093        2.182      870.261
11/23/2014  21:39:00      -96.630      -20.684      -11.876       18.798       13.565       12.896      353.371      184.007      166.309        0.530        0.035       98.819        9.166        0.009      333.072        2.150      870.270
11/23/2014  21:40:00      -97.500      -28.355      -13.077       30.639       24.117       15.650      938.762      581.650      244.933        0.612        0.088      101.539       16.576        0.027      333.009        2.045      870.288
11/23/2014  21:41:00      -79.516      -29.374      -10.189       31.034       33.003       16.756      963.094     1089.227      280.749        0.481        0.117       84.769       13.070        0.024      332.991        2.013      870.286
11/23/2014  21:42:00     -128.862      -12.092      -12.348       29.759       21.247       16.023      885.603      451.438      256.749        0.925        0.080      129.428       14.245        0.012      332.893        1.853      870.294
11/23/2014  21:43:00     -127.696       15.413      -13.672       31.886       28.659       19.343     1016.747      821.321      374.163        0.947        0.111      128.623       18.538        0.021      332.995        2.021      870.329
11/23/2014  21:44:00     -158.254       12.416      -18.848       15.639       20.891       14.292      244.594      436.425      204.257        1.322        0.044      158.741        7.928        0.002      333.078        2.158      870.365
11/23/2014  21:45:00     -153.235       -8.268      -17.759       29.476       24.063       18.168      868.829      579.011      330.089        1.282        0.089      153.458       15.494        0.010      332.901        1.867      870.375
11/23/2014  21:46:00     -116.494      -23.232       -9.714       26.694       22.123       14.861      712.562      489.436      220.864        0.781        0.071      118.788       13.868        0.014      332.826        1.743      870.367
11/23/2014  21:47:00      -92.656      -19.462       -3.267       34.908       28.066       17.218     1218.594      787.713      296.454        0.564        0.115       94.678       16.881        0.032      332.835        1.758      870.331
11/23/2014  21:48:00      -95.503      -33.783       -7.299       21.508       22.943       17.007      462.590      526.359      289.252        0.580        0.064      101.302       12.791        0.016      332.869        1.814      870.306
11/23/2014  21:49:00      -96.622      -28.499      -10.616       23.415       30.371       14.195      548.265      922.395      201.491        0.597        0.084      100.737        9.365        0.009      332.838        1.763      870.316
11/23/2014  21:50:00      -66.036      -14.511       -2.986       30.350       19.286       15.391      921.129      371.962      236.895        0.305        0.076       67.611       14.489        0.046      332.885        1.838      870.318
11/23/2014  21:51:00      -81.171      -29.071       -1.690       28.794       17.908       14.099      829.069      320.698      198.772        0.439        0.067       86.220       11.523        0.018      332.982        1.998      870.297
11/23/2014  21:52:00      -76.466       -4.276      -15.399       23.165       15.424       16.034      536.610      237.902      257.094        0.357        0.052       76.585       12.477        0.027      332.971        1.981      870.268
11/23/2014  21:53:00      -81.374      -22.374      -12.268       33.856       23.410       14.848     1146.206      548.015      220.459        0.459        0.096       84.393       12.510        0.022      333.012        2.048      870.258
11/23/2014  21:54:00     -110.044       17.613       -8.988       28.113       19.733       16.016      790.366      389.385      256.499        0.697        0.072      111.445       15.329        0.019      333.037        2.091      870.270
11/23/2014  21:55:00      -82.830       35.859      -18.777       23.626       23.867       19.094      558.194      569.641      364.563        0.500        0.075       90.259       13.200        0.021      333.208        2.373      870.273
11/23/2014  21:56:00      -92.510       61.858      -15.196       35.933       35.595       20.183     1291.209     1267.010      407.362        0.779        0.148      111.286       13.618        0.015      333.342        2.593      870.267
11/23/2014  21:57:00      -77.770       88.021      -23.289       23.671       49.033       22.693      560.303     2404.189      514.954        0.891        0.174      117.455       28.047        0.057      333.434        2.745      870.264
11/23/2014  21:58:00      -88.128       45.198      -16.219       30.839       34.281       18.637      951.047     1175.207      347.354        0.627        0.124       99.043       11.414        0.013      333.435        2.745      870.267
11/23/2014  21:59:00      -81.812       11.778      -18.189       21.708       41.777       12.503      471.256     1745.348      156.324        0.477        0.119       82.656        7.511        0.008      333.323        2.561      870.268
11/23/2014  22:00:00      -90.134       -1.362      -13.439       25.248       24.376       16.298      637.461      594.200      265.626        0.490        0.075       90.145       12.342        0.019      333.342        2.593      870.276
11/23/2014  22:01:00      -74.889      -26.256       -2.442       18.726       25.354       13.401      350.653      642.836      179.594        0.374        0.059       79.358        8.808        0.012      333.130        2.244      870.299
11/23/2014  22:02:00      -86.066      -16.195       -9.082       21.588       22.853       12.950      466.059      522.246      167.713        0.445        0.058       87.577       12.723        0.021      333.160        2.292      870.340
11/23/2014  22:03:00      -86.465      -20.956       -6.834       24.491       24.131       13.672      599.792      582.283      186.928        0.467        0.068       88.969       11.435        0.017      333.084        2.168      870.384
11/23/2014  22:04:00      -96.544      -25.591       -6.102       21.665       18.363       14.774      469.381      337.197      218.279        0.552        0.051       99.878       10.928        0.012      333.043        2.100      870.428
11/23/2014  22:05:00     -100.638      -32.216       -6.437       26.315       24.187       13.742      692.472      585.013      188.851        0.634        0.073      105.669        9.583        0.008      333.051        2.115      870.446
11/23/2014  22:06:00      -80.027      -19.267       -5.727       20.331       17.542       14.555      413.338      307.736      211.852        0.387        0.047       82.313       12.319        0.022      333.053        2.117      870.455
11/23/2014  22:07:00      -76.188      -20.162       -8.834       21.605       21.457       13.156      466.761      460.422      173.077        0.369        0.055       78.811       11.708        0.022      333.034        2.087      870.473
11/23/2014  22:08:00      -73.741      -27.865       -6.460       27.099       25.461       18.544      734.357      648.242      343.894        0.399        0.086       78.831       17.512        0.049      333.063        2.134      870.494
11/23/2014  22:09:00      -82.089       -8.622       -2.788       33.962       26.089       15.920     1153.398      680.623      253.443        0.445        0.104       82.540       16.733        0.041      332.971        1.981      870.513
11/23/2014  22:10:00     -103.583       -1.360       -6.656       38.408       22.965       18.360     1475.156      527.380      337.080        0.656        0.117      103.592       20.402        0.039      332.997        2.023      870.518
11/23/2014  22:11:00      -95.714       17.779       -3.825       33.570       28.183       19.705     1126.926      794.289      388.304        0.590        0.115       97.352       16.025        0.027      333.064        2.135      870.523
11/23/2014  22:12:00     -111.956        0.961       -6.390       43.314       24.701       20.516     1876.069      610.152      420.900        0.774        0.145      111.960       22.405        0.040      332.969        1.976      870.533
11/23/2014  22:13:00     -140.102      -10.187      -10.215       31.391       23.181       16.144      985.376      537.368      260.614        1.081        0.089      140.471       12.492        0.008      332.919        1.896      870.544
11/23/2014  22:14:00     -100.669      -28.698        0.032       41.234       22.846       18.364     1700.276      521.923      337.246        0.676        0.128      104.680       21.910        0.044      332.828        1.746      870.539
11/23/2014  22:15:00     -126.291      -40.454       -6.499       26.415       20.839       16.567      697.733      434.280      274.463        0.952        0.070      132.612       12.945        0.010      332.836        1.758      870.536
11/23/2014  22:16:00     -125.390      -32.984      -13.834       22.734       22.522       15.525      516.837      507.234      241.022        0.913        0.063      129.656       13.035        0.010      332.793        1.686      870.530
11/23/2014  22:17:00     -125.356      -33.376      -14.072       25.083       26.395       16.684      629.172      696.686      278.349        0.931        0.080      129.723       11.548        0.008      332.711        1.552      870.512
11/23/2014  22:18:00     -130.061      -42.408      -11.461       31.662       26.151       16.161     1002.468      683.856      261.163        1.040        0.097      136.800       11.830        0.007      332.726        1.577      870.489
11/23/2014  22:19:00     -162.079      -72.029       -7.422       36.292       30.212       18.647     1317.118      912.776      347.703        1.704        0.129      177.363       10.131        0.003      332.619        1.398      870.497
11/23/2014  22:20:00     -147.810      -87.105       -1.733       55.589       40.427       27.931     3090.094     1634.346      780.123        1.747        0.275      171.566       28.052        0.027      332.551        1.286      870.511
11/23/2014  22:21:00     -199.685      -57.521      -14.813       34.847       30.120       17.896     1214.330      907.214      320.281        2.292        0.122      207.804       16.622        0.006      332.545        1.275      870.522
11/23/2014  22:22:00     -174.578      -37.568      -15.205       24.821       30.489       23.410      616.106      929.590      548.007        1.711        0.105      178.575       20.575        0.013      332.502        1.207      870.506
11/23/2014  22:23:00     -133.513      -32.062      -13.671       44.268       38.917       24.305     1959.693     1514.539      590.723        1.155        0.203      137.309       25.335        0.034      332.516        1.228      870.470
11/23/2014  22:24:00     -151.339       -1.361      -18.276       38.992       49.426       22.668     1520.380     2442.902      513.817        1.386        0.224      151.346       25.369        0.028      332.532        1.255      870.437
11/23/2014  22:25:00     -190.174      -19.763      -15.038       55.711       35.690       26.244     3103.662     1273.793      688.753        2.092        0.253      191.198       29.709        0.024      332.418        1.066      870.419
11/23/2014  22:26:00     -179.263      -29.869      -25.496       58.718       39.526       25.815     3447.780     1562.313      666.434        1.968        0.284      181.734       29.456        0.026      332.402        1.040      870.419
11/23/2014  22:27:00     -187.485      -30.178      -24.620       37.021       59.591       34.200     1370.577     3551.102     1169.617        2.138        0.305      189.899       22.297        0.014      332.412        1.055      870.442
11/23/2014  22:28:00     -123.841      -16.896       -2.493       39.356       46.985       25.879     1548.858     2207.570      669.702        1.003        0.221      124.988       18.762        0.023      332.401        1.039      870.466
11/23/2014  22:29:00     -119.856        9.652       -9.199       41.324       55.665       33.915     1707.714     3098.600     1150.201        1.025        0.298      120.244       27.037        0.051      332.465        1.146      870.464
11/23/2014  22:30:00     -164.784       38.819      -28.699       51.165       55.167       33.092     2617.823     3043.444     1095.066        1.812        0.338      169.295       29.347        0.030      332.438        1.100      870.454
11/23/2014  22:31:00      -97.326      -10.515      -13.926       45.261       42.693       30.918     2048.571     1822.707      955.893        0.730        0.241       97.892       29.433        0.090      332.386        1.014      870.465
11/23/2014  22:32:00     -142.114       53.531      -35.990       38.740       37.184       25.357     1500.761     1382.658      642.998        1.394        0.176      151.862        5.701        0.001      332.439        1.104      870.467
11/23/2014  22:33:00     -178.534       25.825      -19.086       36.238       62.029       36.996     1313.188     3847.643     1368.716        1.972        0.326      180.392       21.240        0.014      332.451        1.123      870.452
11/23/2014  22:34:00     -170.478       38.075      -28.315       60.597       47.576       33.615     3671.976     2263.497     1129.976        1.919        0.353      174.678       25.563        0.021      332.447        1.114      870.423
11/23/2014  22:35:00     -161.267       16.743       -4.885       44.763       71.616       36.208     2003.721     5128.920     1311.039        1.738        0.422      162.134       24.647        0.023      332.396        1.031      870.403
11/23/2014  22:36:00     -220.511       37.277      -20.152       70.980       55.304       38.883     5038.135     3058.509     1511.860        3.001        0.480      223.640       30.927        0.019      332.425        1.076      870.385
11/23/2014  22:37:00     -172.856        9.825      -32.507       51.447       50.853       25.662     2646.784     2586.058      658.542        1.846        0.295      173.135       26.437        0.023      332.427        1.081      870.383
11/23/2014  22:38:00     -111.036       -2.306      -17.578       45.162       44.466       27.475     2039.630     1977.211      754.856        0.871        0.239      111.060       22.414        0.041      332.403        1.042      870.400
11/23/2014  22:39:00     -133.885      -29.265       -4.209       49.609       52.477       32.783     2461.011     2753.866     1074.700        1.254        0.314      137.046       23.514        0.029      332.440        1.104      870.408
11/23/2014  22:40:00     -113.147       -0.765       -1.104       55.390       60.413       33.694     3068.018     3649.767     1135.309        1.033        0.393      113.149       27.983        0.061      332.463        1.142      870.404
11/23/2014  22:41:00     -168.653       19.342      -27.320       65.630       50.613       28.375     4307.332     2561.707      805.166        1.862        0.384      169.759       27.509        0.026      332.540        1.266      870.401
11/23/2014  22:42:00     -166.603       24.268      -14.550       48.980       63.242       28.866     2399.082     3999.582      833.251        1.789        0.362      168.361       26.494        0.025      332.508        1.215      870.403
11/23/2014  22:43:00     -135.508       39.284      -18.838       30.350       30.262       17.330      921.105      915.763      300.322        1.120        0.107      141.088       12.736        0.008      332.542        1.271      870.389
11/23/2014  22:44:00     -159.494       60.067      -26.888       26.874       31.265       22.891      722.211      977.512      523.979        1.600        0.111      170.430       16.801        0.010      332.589        1.350      870.367
11/23/2014  22:45:00     -100.129       12.077      -18.164       33.175       22.412       18.880     1100.569      502.299      356.450        0.623        0.098      100.855       17.144        0.029      332.515        1.227      870.366
11/23/2014  22:46:00     -111.506      -23.657      -13.444       19.796       31.637       17.032      391.880     1000.899      290.094        0.743        0.084      113.988       13.683        0.014      332.556        1.294      870.373
11/23/2014  22:47:00     -103.519       -1.159      -12.083       24.357       26.074       15.993      593.287      679.839      255.764        0.620        0.076      103.525        7.559        0.005      332.577        1.330      870.384
11/23/2014  22:48:00      -73.023      -19.603       -6.748       32.605       32.668       17.564     1063.080     1067.229      308.483        0.410        0.122       75.608       17.431        0.053      332.549        1.282      870.384
11/23/2014  22:49:00      -63.569      -12.938       -9.940       18.225       18.724       10.725      332.147      350.592      115.022        0.255        0.040       64.872        7.168        0.012      332.505        1.212      870.391
11/23/2014  22:50:00      -58.502      -13.624       -5.048       21.497       19.297       12.978      462.116      372.357      168.416        0.232        0.050       60.067       11.529        0.037      332.546        1.280      870.396
11/23/2014  22:51:00      -69.447      -30.063       -2.221       23.462       18.761       12.520      550.477      351.990      156.747        0.340        0.053       75.675       12.228        0.026      332.502        1.207      870.392
11/23/2014  22:52:00      -38.606      -18.001        2.321       23.622       23.485       15.888      557.999      551.553      252.414        0.159        0.068       42.597       13.446        0.100      332.468        1.149      870.385
11/23/2014  22:53:00      -93.175       -5.668       -8.486       22.044       21.843       12.326      485.939      477.108      151.931        0.495        0.056       93.348       12.282        0.017      332.447        1.115      870.370
11/23/2014  22:54:00     -116.819      -37.095      -13.134       26.589       21.960       12.494      706.985      482.224      156.102        0.827        0.067      122.568       11.640        0.009      332.457        1.132      870.341
11/23/2014  22:55:00     -107.347      -57.485       -7.731       20.470       16.135       12.633      419.017      260.345      159.589        0.786        0.042      121.770       13.258        0.012      332.474        1.160      870.310
11/23/2014  22:56:00     -110.105      -52.623       -1.823       30.739       25.967       16.591      944.897      674.274      275.264        0.839        0.095      122.034       14.622        0.014      332.530        1.253      870.312
11/23/2014  22:57:00     -117.214      -62.739        0.252       37.650       32.520       21.510     1417.540     1057.523      462.697        1.031        0.147      132.948       15.014        0.013      332.586        1.344      870.337
11/23/2014  22:58:00      -91.177      -73.366        0.535       39.192       27.530       21.731     1536.027      757.926      472.222        0.823        0.138      117.029       13.710        0.014      332.614        1.393      870.344
11/23/2014  22:59:00      -60.106      -28.704        3.318       53.162       24.778       18.617     2826.166      613.955      346.590        0.412        0.189       66.608       23.233        0.122      332.550        1.284      870.335
11/23/2014  23:00:00     -102.761      -29.683       -9.317       20.730       30.475       15.802      429.732      928.700      249.701        0.657        0.080      106.962        4.833        0.002      332.437        1.099      870.308
11/23/2014  23:01:00      -55.884      -67.158        2.619       53.932       38.128       26.622     2908.669     1453.740      708.744        0.635        0.254       87.368       26.599        0.093      332.446        1.114      870.285
11/23/2014  23:02:00     -127.314      -67.691      -12.493       38.828       24.293       17.986     1507.589      590.174      323.503        1.168        0.121      144.190       10.663        0.005      332.435        1.096      870.288
11/23/2014  23:03:00      -80.416      -51.453       -3.252       46.379       36.220       19.741     2151.024     1311.912      389.704        0.649        0.193       95.468       14.725        0.024      332.508        1.214      870.310
11/23/2014  23:04:00      -72.298      -66.059       -0.371       47.401       39.812       24.688     2246.899     1584.973      609.493        0.702        0.222       97.933       25.093        0.066      332.376        0.998      870.357
11/23/2014  23:05:00      -67.054      -86.284      -10.925       52.041       29.896       21.427     2708.297      893.779      459.114        0.806        0.203      109.276       17.988        0.027      332.386        1.014      870.390
11/23/2014  23:06:00      -74.039      -63.042       -5.217       43.437       33.091       21.381     1886.809     1094.999      457.140        0.646        0.172       97.242       17.645        0.033      332.233        0.762      870.396
11/23/2014  23:07:00      -87.062      -91.126        5.789       49.441       35.198       27.113     2444.439     1238.899      735.109        1.017        0.221      126.030       24.691        0.038      332.164        0.648      870.404
11/23/2014  23:08:00     -104.709      -96.150       -7.615       28.630       37.981       21.092      819.697     1442.532      444.893        1.149        0.135      142.157       12.897        0.008      332.167        0.653      870.413
11/23/2014  23:09:00     -111.743      -78.447       -7.502       41.845       37.556       25.798     1751.009     1410.451      665.536        1.126        0.191      136.530       20.202        0.022      332.187        0.687      870.440
11/23/2014  23:10:00      -93.467      -78.451      -12.891       52.988       39.691       24.744     2807.779     1575.358      612.271        1.003        0.250      122.027       24.853        0.041      332.138        0.606      870.451
11/23/2014  23:11:00      -86.043      -53.217        0.667       30.047       25.823       19.473      902.826      666.819      379.214        0.609        0.097      101.171       19.581        0.037      332.210        0.725      870.471
11/23/2014  23:12:00      -61.947      -48.558        0.720       26.779       25.953       16.012      717.138      673.580      256.383        0.392        0.082       78.711       11.163        0.020      332.174        0.666      870.498
11/23/2014  23:13:00      -77.607      -53.892       -0.693       37.389       23.725       20.028     1397.967      562.873      401.111        0.564        0.118       94.484       18.258        0.037      332.168        0.656      870.509
11/23/2014  23:14:00      -69.201      -40.217        2.390       38.860       27.998       21.492     1510.112      783.911      461.911        0.458        0.138       80.038       22.916        0.082      332.177        0.671      870.513
11/23/2014  23:15:00      -40.852      -33.518        9.854       36.068       15.395       16.373     1300.914      237.010      268.083        0.235        0.090       52.842       13.985        0.070      332.239        0.772      870.537
11/23/2014  23:16:00       -6.084      -69.614       -6.010       27.349       37.880       17.276      747.972     1434.871      298.470        0.370        0.124       69.879       14.301        0.042      332.306        0.882      870.560
11/23/2014  23:17:00      -11.651      -11.734       11.174       15.294       11.123       15.661      233.896      123.719      245.271        0.050        0.030       16.536       10.446        0.399      332.225        0.752      870.562
11/23/2014  23:18:00      -27.670      -29.317       -1.136       13.951       20.886       13.473      194.627      436.205      181.520        0.122        0.041       40.313        7.004        0.030      332.153        0.629      870.556
11/23/2014  23:19:00      -34.677      -56.692       -6.284       22.347       43.887       19.472      499.368     1926.037      379.153        0.363        0.140       66.457       13.789        0.043      332.142        0.612      870.554
11/23/2014  23:20:00      -41.256      -48.528       -1.477       37.830       29.671       19.170     1431.119      880.362      367.486        0.337        0.134       63.695       16.617        0.068      332.103        0.548      870.552
11/23/2014  23:21:00      -92.418      -82.186       -0.643       34.903       29.324       23.233     1218.248      859.909      539.792        0.896        0.131      123.676       17.357        0.020      332.010        0.396      870.550
11/23/2014  23:22:00      -78.537      -81.923       -0.716       52.795       28.617       23.577     2787.290      818.927      555.873        0.852        0.208      113.487       21.181        0.035      332.019        0.409      870.522
11/23/2014  23:23:00     -129.770      -63.896       -3.770       39.306       35.265       24.157     1544.925     1243.606      583.570        1.215        0.169      144.648       18.441        0.016      331.978        0.341      870.501
11/23/2014  23:24:00     -124.630      -62.002        1.241       61.373       35.427       24.596     3766.606     1255.093      604.969        1.250        0.281      139.201       25.646        0.034      331.909        0.228      870.492
11/23/2014  23:25:00      -80.150      -52.251        5.549       55.951       44.039       27.952     3130.565     1939.411      781.338        0.752        0.293       95.677       29.682        0.096      331.907        0.225      870.499
11/23/2014  23:26:00      -69.205      -80.742       12.256       64.679       45.278       28.625     4183.405     2050.060      819.383        0.925        0.353      106.342       37.005        0.121      331.943        0.284      870.499
11/23/2014  23:27:00      -67.277      -60.799        5.941       35.321       30.544       25.020     1247.565      932.932      625.996        0.553        0.140       90.680       19.096        0.044      331.956        0.306      870.486
11/23/2014  23:28:00      -71.849      -54.631       -6.857       26.458       16.512       14.961      700.007      272.633      223.846        0.469        0.060       90.260       11.446        0.016      332.027        0.423      870.481
11/23/2014  23:29:00      -87.334      -39.827       -5.608       19.865       24.675       12.742      394.616      608.856      162.354        0.521        0.058       95.986        6.558        0.005      331.969        0.328      870.476
11/23/2014  23:30:00      -85.856        0.454       -1.498       28.289       22.665       15.230      800.263      513.680      231.956        0.446        0.077       85.857       13.385        0.024      331.791        0.033      870.480
11/23/2014  23:31:00      -87.114       -3.546       -4.854       25.677       15.730       19.336      659.324      247.435      373.871        0.445        0.064       87.186       17.784        0.042      331.729       -0.068      870.476
11/23/2014  23:32:00      -47.481        1.064       -0.544       13.904       13.436        9.290      193.324      180.536       86.313        0.136        0.023       47.493        8.124        0.029      331.792        0.036      870.470
11/23/2014  23:33:00      -47.178        6.921        3.058       10.212        9.502        8.873      104.277       90.281       78.737        0.128        0.014       47.683        4.948        0.011      331.850        0.130      870.463
11/23/2014  23:34:00       -9.772       11.350        3.097       10.654        7.040        8.609      113.517       49.565       74.115        0.024        0.012       14.977        4.993        0.111      331.887        0.191      870.458
11/23/2014  23:35:00       -0.604        8.021        9.090       14.082        9.969       10.929      198.299       99.386      119.439        0.028        0.021        8.044        8.619        1.148      331.887        0.192      870.477
11/23/2014  23:36:00        3.338       17.879       33.278       25.645       21.754       18.763      657.677      473.251      352.046        0.146        0.074       18.188       17.320        0.907      331.800        0.049      870.495
11/23/2014  23:37:00       -3.641        1.495       23.598        6.065        8.701        9.007       36.782       75.709       81.117        0.038        0.010        3.936        3.818        0.941      331.836        0.107      870.523
11/23/2014  23:38:00        5.341       15.837        2.377        8.888        6.325        9.641       78.995       40.007       92.958        0.025        0.011       16.714        2.982        0.032      331.850        0.129      870.545
11/23/2014  23:39:00      -11.902       -5.634        4.612       16.505       17.456       11.402      272.406      304.695      130.016        0.045        0.035       13.168        7.411        0.317      331.843        0.118      870.548
11/23/2014  23:40:00      -28.228      -40.631       -6.457       19.960       25.864       11.400      398.387      668.940      129.949        0.184        0.060       49.474        6.630        0.018      331.987        0.360      870.527
11/23/2014  23:41:00      -15.681      -38.804        7.672       28.320       25.718       16.371      802.031      661.437      268.010        0.177        0.087       41.853       14.903        0.127      332.019        0.411      870.512
11/23/2014  23:42:00      -40.103      -28.286        7.332       42.078       19.387       16.367     1770.538      375.847      267.872        0.244        0.121       49.075       16.296        0.110      331.885        0.189      870.520
11/23/2014  23:43:00      -67.425      -47.253        2.777       45.512       26.559       20.267     2071.382      705.386      410.754        0.499        0.159       82.335       22.208        0.073      331.769       -0.002      870.527
11/23/2014  23:44:00      -86.396      -97.552        1.883       48.376       49.552       25.956     2340.275     2455.396      673.705        1.123        0.273      130.310       23.766        0.033      331.831        0.100      870.533
11/23/2014  23:45:00     -127.505      -63.243       -1.320       59.538       37.192       26.786     3544.824     1383.234      717.494        1.295        0.282      142.328       25.199        0.031      331.838        0.111      870.528
11/23/2014  23:46:00      -82.759      -56.890        1.194       60.682       36.779       24.532     3682.256     1352.716      601.809        0.786        0.282      100.427       22.077        0.048      331.826        0.091      870.529
11/23/2014  23:47:00      -68.775      -62.549       -0.027       53.976       42.219       28.735     2913.398     1782.447      825.686        0.708        0.276       92.964       33.487        0.130      331.789        0.030      870.528
11/23/2014  23:48:00      -68.217      -50.358        6.367       42.030       33.458       20.685     1766.503     1119.461      427.873        0.527        0.166       84.791       16.069        0.036      331.804        0.055      870.521
11/23/2014  23:49:00      -89.197      -51.223       -5.430       15.577       21.766       14.423      242.630      473.779      208.026        0.577        0.046      102.859        8.966        0.008      331.877        0.176      870.511
11/23/2014  23:50:00      -71.671      -17.723      -10.747       22.000       21.620       10.638      483.978      467.407      113.176        0.332        0.053       73.830       10.765        0.021      331.792        0.034      870.498
11/23/2014  23:51:00      -60.407        4.656       -0.764        8.554       11.550       10.385       73.176      133.393      107.838        0.199        0.016       60.586        6.776        0.013      331.790        0.031      870.466
11/23/2014  23:52:00      -18.447       -1.020       -3.147       14.969       10.239        8.997      224.057      104.833       80.938        0.038        0.020       18.475        5.470        0.088      331.731       -0.064      870.438
11/23/2014  23:53:00      -21.214       10.052       -4.740       17.887       14.669        8.281      319.942      215.193       68.573        0.059        0.030       23.475        6.908        0.087      331.770       -0.000      870.410
11/23/2014  23:54:00      -45.348      -20.952       -1.436       17.281       19.207        9.679      298.633      368.901       93.681        0.163        0.038       49.955        9.108        0.033      331.770       -0.001      870.378
11/23/2014  23:55:00      -35.730      -18.685       -6.939       15.947       12.779       10.362      254.321      163.299      107.381        0.110        0.026       40.321        5.960        0.022      331.822        0.085      870.345
11/23/2014  23:56:00      -41.197      -12.014       -6.370       11.287        9.863        9.564      127.398       97.279       91.463        0.110        0.016       42.913        6.414        0.022      331.793        0.036      870.324
11/23/2014  23:57:00      -44.885       -9.278       -6.758       14.083       15.412        9.364      198.337      237.541       87.688        0.133        0.026       45.834        8.289        0.033      331.738       -0.053      870.321
11/23/2014  23:58:00      -40.957       -6.067       -6.538        8.797       11.643        6.918       77.380      135.550       47.860        0.101        0.013       41.404        4.889        0.014      331.706       -0.105      870.336
11/23/2014  23:59:00      -67.057      -14.066       -5.280       15.436       13.413        8.765      238.278      179.920       76.818        0.261        0.025       68.516        7.086        0.011      331.660       -0.180      870.345
